<?xml version="1.0" encoding="UTF-8" standalone="no" ?>
<gpx xmlns="http://www.topografix.com/GPX/1/1" xmlns:xsi="http://www.w3.org/2001/XMLSchema-instance" xsi:schemaLocation="http://www.topografix.com/GPX/1/1 http://www.topografix.com/GPX/1/1/gpx.xsd" version="1.1" creator="VisuGPX - https://www.visugpx.com">
  <metadata>
    <name>Via-rhôna de Lyon à Sète</name>
    <desc><![CDATA[Via Rhona de Lyon à Sète en 7 jours soit un total de 594 km]]></desc>
  </metadata>
  <trk>
    <name><![CDATA[2019-05-25 09:59:40]]></name>
    <trkseg>
      <trkpt lat="45.74413" lon="4.85925">
        <ele>177.21</ele>
        <time>2019-05-25T07:59:40.000Z</time>
      </trkpt>
      <trkpt lat="45.7442" lon="4.85915">
        <ele>172.14</ele>
        <time>2019-05-25T08:02:58.000Z</time>
      </trkpt>
      <trkpt lat="45.74434" lon="4.85899">
        <ele>170.47</ele>
        <time>2019-05-25T08:03:03.000Z</time>
      </trkpt>
      <trkpt lat="45.74457" lon="4.85892">
        <ele>169.46</ele>
        <time>2019-05-25T08:03:08.000Z</time>
      </trkpt>
      <trkpt lat="45.74482" lon="4.859">
        <ele>169.21</ele>
        <time>2019-05-25T08:03:13.000Z</time>
      </trkpt>
      <trkpt lat="45.74508" lon="4.85908">
        <ele>169.4</ele>
        <time>2019-05-25T08:03:18.000Z</time>
      </trkpt>
      <trkpt lat="45.74532" lon="4.85916">
        <ele>170.2</ele>
        <time>2019-05-25T08:03:23.000Z</time>
      </trkpt>
      <trkpt lat="45.74555" lon="4.85921">
        <ele>171.2</ele>
        <time>2019-05-25T08:03:28.000Z</time>
      </trkpt>
      <trkpt lat="45.74577" lon="4.85929">
        <ele>172.01</ele>
        <time>2019-05-25T08:03:33.000Z</time>
      </trkpt>
      <trkpt lat="45.74598" lon="4.85934">
        <ele>173.15</ele>
        <time>2019-05-25T08:03:38.000Z</time>
      </trkpt>
      <trkpt lat="45.74619" lon="4.85939">
        <ele>173.21</ele>
        <time>2019-05-25T08:03:43.000Z</time>
      </trkpt>
      <trkpt lat="45.74636" lon="4.85943">
        <ele>174.19</ele>
        <time>2019-05-25T08:03:48.000Z</time>
      </trkpt>
      <trkpt lat="45.74652" lon="4.85947">
        <ele>176.15</ele>
        <time>2019-05-25T08:03:53.000Z</time>
      </trkpt>
      <trkpt lat="45.74668" lon="4.85951">
        <ele>177.21</ele>
        <time>2019-05-25T08:03:58.000Z</time>
      </trkpt>
      <trkpt lat="45.74685" lon="4.85955">
        <ele>177.96</ele>
        <time>2019-05-25T08:04:03.000Z</time>
      </trkpt>
      <trkpt lat="45.74702" lon="4.85962">
        <ele>176.22</ele>
        <time>2019-05-25T08:04:08.000Z</time>
      </trkpt>
      <trkpt lat="45.7472" lon="4.85963">
        <ele>179.14</ele>
        <time>2019-05-25T08:04:13.000Z</time>
      </trkpt>
      <trkpt lat="45.74739" lon="4.85968">
        <ele>180.96</ele>
        <time>2019-05-25T08:04:18.000Z</time>
      </trkpt>
      <trkpt lat="45.74761" lon="4.85973">
        <ele>180.96</ele>
        <time>2019-05-25T08:04:23.000Z</time>
      </trkpt>
      <trkpt lat="45.74787" lon="4.85979">
        <ele>181.21</ele>
        <time>2019-05-25T08:04:28.000Z</time>
      </trkpt>
      <trkpt lat="45.74813" lon="4.85984">
        <ele>182.15</ele>
        <time>2019-05-25T08:04:33.000Z</time>
      </trkpt>
      <trkpt lat="45.74837" lon="4.8599">
        <ele>183.97</ele>
        <time>2019-05-25T08:04:38.000Z</time>
      </trkpt>
      <trkpt lat="45.7486" lon="4.85998">
        <ele>185.2</ele>
        <time>2019-05-25T08:04:43.000Z</time>
      </trkpt>
      <trkpt lat="45.74886" lon="4.86009">
        <ele>184.96</ele>
        <time>2019-05-25T08:04:48.000Z</time>
      </trkpt>
      <trkpt lat="45.74909" lon="4.86025">
        <ele>181.24</ele>
        <time>2019-05-25T08:04:53.000Z</time>
      </trkpt>
      <trkpt lat="45.74924" lon="4.8603">
        <ele>180.28</ele>
        <time>2019-05-25T08:04:58.000Z</time>
      </trkpt>
      <trkpt lat="45.74935" lon="4.86037">
        <ele>182.2</ele>
        <time>2019-05-25T08:05:03.000Z</time>
      </trkpt>
      <trkpt lat="45.74949" lon="4.86025">
        <ele>182.22</ele>
        <time>2019-05-25T08:05:08.000Z</time>
      </trkpt>
      <trkpt lat="45.74957" lon="4.85996">
        <ele>182.22</ele>
        <time>2019-05-25T08:05:13.000Z</time>
      </trkpt>
      <trkpt lat="45.74961" lon="4.85978">
        <ele>180</ele>
        <time>2019-05-25T08:05:18.000Z</time>
      </trkpt>
      <trkpt lat="45.74966" lon="4.85966">
        <ele>176.22</ele>
        <time>2019-05-25T08:05:58.000Z</time>
      </trkpt>
      <trkpt lat="45.74974" lon="4.85944">
        <ele>175.28</ele>
        <time>2019-05-25T08:06:03.000Z</time>
      </trkpt>
      <trkpt lat="45.74983" lon="4.85911">
        <ele>175.23</ele>
        <time>2019-05-25T08:06:08.000Z</time>
      </trkpt>
      <trkpt lat="45.74994" lon="4.8587">
        <ele>174.28</ele>
        <time>2019-05-25T08:06:13.000Z</time>
      </trkpt>
      <trkpt lat="45.75008" lon="4.85829">
        <ele>174.92</ele>
        <time>2019-05-25T08:06:18.000Z</time>
      </trkpt>
      <trkpt lat="45.75019" lon="4.85784">
        <ele>176.21</ele>
        <time>2019-05-25T08:06:23.000Z</time>
      </trkpt>
      <trkpt lat="45.75036" lon="4.85741">
        <ele>178.89</ele>
        <time>2019-05-25T08:06:28.000Z</time>
      </trkpt>
      <trkpt lat="45.75051" lon="4.85703">
        <ele>179.2</ele>
        <time>2019-05-25T08:06:33.000Z</time>
      </trkpt>
      <trkpt lat="45.75066" lon="4.85662">
        <ele>179.52</ele>
        <time>2019-05-25T08:06:38.000Z</time>
      </trkpt>
      <trkpt lat="45.75079" lon="4.85621">
        <ele>176.3</ele>
        <time>2019-05-25T08:06:43.000Z</time>
      </trkpt>
      <trkpt lat="45.75089" lon="4.85596">
        <ele>176.96</ele>
        <time>2019-05-25T08:06:48.000Z</time>
      </trkpt>
      <trkpt lat="45.75098" lon="4.85568">
        <ele>178.13</ele>
        <time>2019-05-25T08:06:53.000Z</time>
      </trkpt>
      <trkpt lat="45.75111" lon="4.85529">
        <ele>180.95</ele>
        <time>2019-05-25T08:06:58.000Z</time>
      </trkpt>
      <trkpt lat="45.75126" lon="4.85487">
        <ele>182.26</ele>
        <time>2019-05-25T08:07:03.000Z</time>
      </trkpt>
      <trkpt lat="45.75142" lon="4.85444">
        <ele>182.96</ele>
        <time>2019-05-25T08:07:08.000Z</time>
      </trkpt>
      <trkpt lat="45.75155" lon="4.85402">
        <ele>180.19</ele>
        <time>2019-05-25T08:07:13.000Z</time>
      </trkpt>
      <trkpt lat="45.75165" lon="4.85363">
        <ele>180.22</ele>
        <time>2019-05-25T08:07:18.000Z</time>
      </trkpt>
      <trkpt lat="45.75181" lon="4.85324">
        <ele>175.6</ele>
        <time>2019-05-25T08:07:23.000Z</time>
      </trkpt>
      <trkpt lat="45.75195" lon="4.85282">
        <ele>174.21</ele>
        <time>2019-05-25T08:07:28.000Z</time>
      </trkpt>
      <trkpt lat="45.75209" lon="4.8524">
        <ele>174.2</ele>
        <time>2019-05-25T08:07:33.000Z</time>
      </trkpt>
      <trkpt lat="45.75225" lon="4.85197">
        <ele>175.95</ele>
        <time>2019-05-25T08:07:38.000Z</time>
      </trkpt>
      <trkpt lat="45.75246" lon="4.85152">
        <ele>181.62</ele>
        <time>2019-05-25T08:07:43.000Z</time>
      </trkpt>
      <trkpt lat="45.75255" lon="4.85125">
        <ele>184.7</ele>
        <time>2019-05-25T08:07:48.000Z</time>
      </trkpt>
      <trkpt lat="45.75258" lon="4.85109">
        <ele>177.39</ele>
        <time>2019-05-25T08:07:53.000Z</time>
      </trkpt>
      <trkpt lat="45.7526" lon="4.85092">
        <ele>178.54</ele>
        <time>2019-05-25T08:08:04.000Z</time>
      </trkpt>
      <trkpt lat="45.75267" lon="4.85066">
        <ele>176.51</ele>
        <time>2019-05-25T08:08:09.000Z</time>
      </trkpt>
      <trkpt lat="45.75274" lon="4.85032">
        <ele>179.19</ele>
        <time>2019-05-25T08:08:14.000Z</time>
      </trkpt>
      <trkpt lat="45.75292" lon="4.85006">
        <ele>180.18</ele>
        <time>2019-05-25T08:08:19.000Z</time>
      </trkpt>
      <trkpt lat="45.75304" lon="4.84966">
        <ele>180.96</ele>
        <time>2019-05-25T08:08:24.000Z</time>
      </trkpt>
      <trkpt lat="45.75312" lon="4.8493">
        <ele>181.95</ele>
        <time>2019-05-25T08:08:29.000Z</time>
      </trkpt>
      <trkpt lat="45.75318" lon="4.84914">
        <ele>172.37</ele>
        <time>2019-05-25T08:09:25.000Z</time>
      </trkpt>
      <trkpt lat="45.7533" lon="4.84882">
        <ele>172.21</ele>
        <time>2019-05-25T08:09:30.000Z</time>
      </trkpt>
      <trkpt lat="45.75339" lon="4.8485">
        <ele>173.19</ele>
        <time>2019-05-25T08:09:35.000Z</time>
      </trkpt>
      <trkpt lat="45.75352" lon="4.84815">
        <ele>174.93</ele>
        <time>2019-05-25T08:09:40.000Z</time>
      </trkpt>
      <trkpt lat="45.75371" lon="4.84775">
        <ele>176.93</ele>
        <time>2019-05-25T08:09:45.000Z</time>
      </trkpt>
      <trkpt lat="45.75384" lon="4.8474">
        <ele>179.19</ele>
        <time>2019-05-25T08:09:50.000Z</time>
      </trkpt>
      <trkpt lat="45.754" lon="4.84699">
        <ele>181.12</ele>
        <time>2019-05-25T08:09:55.000Z</time>
      </trkpt>
      <trkpt lat="45.75412" lon="4.84658">
        <ele>180.91</ele>
        <time>2019-05-25T08:10:00.000Z</time>
      </trkpt>
      <trkpt lat="45.75429" lon="4.84617">
        <ele>181.18</ele>
        <time>2019-05-25T08:10:05.000Z</time>
      </trkpt>
      <trkpt lat="45.75438" lon="4.84579">
        <ele>181.38</ele>
        <time>2019-05-25T08:10:10.000Z</time>
      </trkpt>
      <trkpt lat="45.75448" lon="4.84568">
        <ele>179.47</ele>
        <time>2019-05-25T08:10:15.000Z</time>
      </trkpt>
      <trkpt lat="45.7545" lon="4.84554">
        <ele>176.95</ele>
        <time>2019-05-25T08:11:06.000Z</time>
      </trkpt>
      <trkpt lat="45.75459" lon="4.84526">
        <ele>182.17</ele>
        <time>2019-05-25T08:11:11.000Z</time>
      </trkpt>
      <trkpt lat="45.75479" lon="4.84488">
        <ele>183.37</ele>
        <time>2019-05-25T08:11:16.000Z</time>
      </trkpt>
      <trkpt lat="45.755" lon="4.84443">
        <ele>181.12</ele>
        <time>2019-05-25T08:11:21.000Z</time>
      </trkpt>
      <trkpt lat="45.75517" lon="4.84398">
        <ele>185.1</ele>
        <time>2019-05-25T08:11:26.000Z</time>
      </trkpt>
      <trkpt lat="45.75529" lon="4.84363">
        <ele>183.19</ele>
        <time>2019-05-25T08:11:31.000Z</time>
      </trkpt>
      <trkpt lat="45.75533" lon="4.84351">
        <ele>187.56</ele>
        <time>2019-05-25T08:11:36.000Z</time>
      </trkpt>
      <trkpt lat="45.75531" lon="4.84336">
        <ele>185.19</ele>
        <time>2019-05-25T08:11:57.000Z</time>
      </trkpt>
      <trkpt lat="45.75539" lon="4.84308">
        <ele>184.39</ele>
        <time>2019-05-25T08:12:02.000Z</time>
      </trkpt>
      <trkpt lat="45.75552" lon="4.84271">
        <ele>183.17</ele>
        <time>2019-05-25T08:12:07.000Z</time>
      </trkpt>
      <trkpt lat="45.75564" lon="4.84242">
        <ele>179.27</ele>
        <time>2019-05-25T08:12:12.000Z</time>
      </trkpt>
      <trkpt lat="45.75572" lon="4.84216">
        <ele>178.43</ele>
        <time>2019-05-25T08:12:17.000Z</time>
      </trkpt>
      <trkpt lat="45.75579" lon="4.84189">
        <ele>178.2</ele>
        <time>2019-05-25T08:12:22.000Z</time>
      </trkpt>
      <trkpt lat="45.75586" lon="4.84161">
        <ele>178.43</ele>
        <time>2019-05-25T08:12:27.000Z</time>
      </trkpt>
      <trkpt lat="45.75595" lon="4.84139">
        <ele>179.24</ele>
        <time>2019-05-25T08:12:32.000Z</time>
      </trkpt>
      <trkpt lat="45.75603" lon="4.84113">
        <ele>178</ele>
        <time>2019-05-25T08:12:37.000Z</time>
      </trkpt>
      <trkpt lat="45.75614" lon="4.84088">
        <ele>179.1</ele>
        <time>2019-05-25T08:12:42.000Z</time>
      </trkpt>
      <trkpt lat="45.75624" lon="4.84058">
        <ele>179.37</ele>
        <time>2019-05-25T08:12:47.000Z</time>
      </trkpt>
      <trkpt lat="45.75632" lon="4.84033">
        <ele>178.18</ele>
        <time>2019-05-25T08:12:52.000Z</time>
      </trkpt>
      <trkpt lat="45.75639" lon="4.84024">
        <ele>175.5</ele>
        <time>2019-05-25T08:13:00.000Z</time>
      </trkpt>
      <trkpt lat="45.75629" lon="4.84017">
        <ele>170.12</ele>
        <time>2019-05-25T08:13:13.000Z</time>
      </trkpt>
      <trkpt lat="45.75612" lon="4.84008">
        <ele>171.91</ele>
        <time>2019-05-25T08:13:18.000Z</time>
      </trkpt>
      <trkpt lat="45.7559" lon="4.83999">
        <ele>173.16</ele>
        <time>2019-05-25T08:13:23.000Z</time>
      </trkpt>
      <trkpt lat="45.75564" lon="4.83981">
        <ele>173.93</ele>
        <time>2019-05-25T08:13:28.000Z</time>
      </trkpt>
      <trkpt lat="45.75534" lon="4.83962">
        <ele>174.17</ele>
        <time>2019-05-25T08:13:33.000Z</time>
      </trkpt>
      <trkpt lat="45.75504" lon="4.83935">
        <ele>174.13</ele>
        <time>2019-05-25T08:13:38.000Z</time>
      </trkpt>
      <trkpt lat="45.75471" lon="4.8391">
        <ele>173.42</ele>
        <time>2019-05-25T08:13:43.000Z</time>
      </trkpt>
      <trkpt lat="45.75439" lon="4.83883">
        <ele>173.92</ele>
        <time>2019-05-25T08:13:48.000Z</time>
      </trkpt>
      <trkpt lat="45.75406" lon="4.83858">
        <ele>175.16</ele>
        <time>2019-05-25T08:13:53.000Z</time>
      </trkpt>
      <trkpt lat="45.75375" lon="4.83832">
        <ele>176.17</ele>
        <time>2019-05-25T08:13:58.000Z</time>
      </trkpt>
      <trkpt lat="45.75343" lon="4.83806">
        <ele>175.19</ele>
        <time>2019-05-25T08:14:03.000Z</time>
      </trkpt>
      <trkpt lat="45.75311" lon="4.83784">
        <ele>172.99</ele>
        <time>2019-05-25T08:14:08.000Z</time>
      </trkpt>
      <trkpt lat="45.75281" lon="4.83763">
        <ele>172.97</ele>
        <time>2019-05-25T08:14:13.000Z</time>
      </trkpt>
      <trkpt lat="45.75262" lon="4.83736">
        <ele>175.15</ele>
        <time>2019-05-25T08:14:18.000Z</time>
      </trkpt>
      <trkpt lat="45.75243" lon="4.83713">
        <ele>174.17</ele>
        <time>2019-05-25T08:14:23.000Z</time>
      </trkpt>
      <trkpt lat="45.75235" lon="4.83703">
        <ele>176.15</ele>
        <time>2019-05-25T08:14:28.000Z</time>
      </trkpt>
      <trkpt lat="45.75225" lon="4.83706">
        <ele>175.19</ele>
        <time>2019-05-25T08:14:33.000Z</time>
      </trkpt>
      <trkpt lat="45.7521" lon="4.83695">
        <ele>175.42</ele>
        <time>2019-05-25T08:14:38.000Z</time>
      </trkpt>
      <trkpt lat="45.752" lon="4.83691">
        <ele>172.36</ele>
        <time>2019-05-25T08:15:06.000Z</time>
      </trkpt>
      <trkpt lat="45.75186" lon="4.83682">
        <ele>175.08</ele>
        <time>2019-05-25T08:15:11.000Z</time>
      </trkpt>
      <trkpt lat="45.75171" lon="4.8367">
        <ele>176.84</ele>
        <time>2019-05-25T08:15:16.000Z</time>
      </trkpt>
      <trkpt lat="45.75155" lon="4.83653">
        <ele>179.84</ele>
        <time>2019-05-25T08:15:21.000Z</time>
      </trkpt>
      <trkpt lat="45.75138" lon="4.83639">
        <ele>180.4</ele>
        <time>2019-05-25T08:15:26.000Z</time>
      </trkpt>
      <trkpt lat="45.75126" lon="4.83627">
        <ele>180.93</ele>
        <time>2019-05-25T08:15:31.000Z</time>
      </trkpt>
      <trkpt lat="45.75124" lon="4.83614">
        <ele>181.91</ele>
        <time>2019-05-25T08:15:36.000Z</time>
      </trkpt>
      <trkpt lat="45.75111" lon="4.836">
        <ele>180.23</ele>
        <time>2019-05-25T08:15:41.000Z</time>
      </trkpt>
      <trkpt lat="45.75089" lon="4.8358">
        <ele>177.98</ele>
        <time>2019-05-25T08:15:46.000Z</time>
      </trkpt>
      <trkpt lat="45.75068" lon="4.83561">
        <ele>176.18</ele>
        <time>2019-05-25T08:15:51.000Z</time>
      </trkpt>
      <trkpt lat="45.75049" lon="4.83529">
        <ele>174.24</ele>
        <time>2019-05-25T08:15:56.000Z</time>
      </trkpt>
      <trkpt lat="45.75029" lon="4.835">
        <ele>174.16</ele>
        <time>2019-05-25T08:16:01.000Z</time>
      </trkpt>
      <trkpt lat="45.75002" lon="4.83479">
        <ele>172.24</ele>
        <time>2019-05-25T08:16:06.000Z</time>
      </trkpt>
      <trkpt lat="45.74974" lon="4.83458">
        <ele>171.41</ele>
        <time>2019-05-25T08:16:11.000Z</time>
      </trkpt>
      <trkpt lat="45.74946" lon="4.83436">
        <ele>171.16</ele>
        <time>2019-05-25T08:16:16.000Z</time>
      </trkpt>
      <trkpt lat="45.74921" lon="4.83412">
        <ele>172.19</ele>
        <time>2019-05-25T08:16:21.000Z</time>
      </trkpt>
      <trkpt lat="45.74893" lon="4.83392">
        <ele>169.47</ele>
        <time>2019-05-25T08:16:26.000Z</time>
      </trkpt>
      <trkpt lat="45.74863" lon="4.83369">
        <ele>165.5</ele>
        <time>2019-05-25T08:16:31.000Z</time>
      </trkpt>
      <trkpt lat="45.74833" lon="4.83347">
        <ele>164.16</ele>
        <time>2019-05-25T08:16:36.000Z</time>
      </trkpt>
      <trkpt lat="45.74799" lon="4.83328">
        <ele>162.96</ele>
        <time>2019-05-25T08:16:41.000Z</time>
      </trkpt>
      <trkpt lat="45.74775" lon="4.83306">
        <ele>162.17</ele>
        <time>2019-05-25T08:16:46.000Z</time>
      </trkpt>
      <trkpt lat="45.74743" lon="4.83285">
        <ele>162.15</ele>
        <time>2019-05-25T08:16:51.000Z</time>
      </trkpt>
      <trkpt lat="45.74711" lon="4.83259">
        <ele>159.12</ele>
        <time>2019-05-25T08:16:56.000Z</time>
      </trkpt>
      <trkpt lat="45.74678" lon="4.83237">
        <ele>156.71</ele>
        <time>2019-05-25T08:17:01.000Z</time>
      </trkpt>
      <trkpt lat="45.74654" lon="4.83213">
        <ele>157.09</ele>
        <time>2019-05-25T08:17:06.000Z</time>
      </trkpt>
      <trkpt lat="45.74627" lon="4.83187">
        <ele>158.84</ele>
        <time>2019-05-25T08:17:11.000Z</time>
      </trkpt>
      <trkpt lat="45.74598" lon="4.83168">
        <ele>159.14</ele>
        <time>2019-05-25T08:17:16.000Z</time>
      </trkpt>
      <trkpt lat="45.74568" lon="4.83142">
        <ele>162.88</ele>
        <time>2019-05-25T08:17:21.000Z</time>
      </trkpt>
      <trkpt lat="45.74544" lon="4.83106">
        <ele>166.44</ele>
        <time>2019-05-25T08:17:26.000Z</time>
      </trkpt>
      <trkpt lat="45.74515" lon="4.83072">
        <ele>167.89</ele>
        <time>2019-05-25T08:17:31.000Z</time>
      </trkpt>
      <trkpt lat="45.74486" lon="4.8304">
        <ele>166.96</ele>
        <time>2019-05-25T08:17:36.000Z</time>
      </trkpt>
      <trkpt lat="45.74457" lon="4.83009">
        <ele>167.14</ele>
        <time>2019-05-25T08:17:41.000Z</time>
      </trkpt>
      <trkpt lat="45.74424" lon="4.82979">
        <ele>167.14</ele>
        <time>2019-05-25T08:17:46.000Z</time>
      </trkpt>
      <trkpt lat="45.74397" lon="4.82954">
        <ele>166.64</ele>
        <time>2019-05-25T08:17:51.000Z</time>
      </trkpt>
      <trkpt lat="45.74364" lon="4.82934">
        <ele>163.46</ele>
        <time>2019-05-25T08:17:56.000Z</time>
      </trkpt>
      <trkpt lat="45.74338" lon="4.82914">
        <ele>160.77</ele>
        <time>2019-05-25T08:18:01.000Z</time>
      </trkpt>
      <trkpt lat="45.74313" lon="4.82886">
        <ele>161.13</ele>
        <time>2019-05-25T08:18:06.000Z</time>
      </trkpt>
      <trkpt lat="45.74284" lon="4.82863">
        <ele>161.37</ele>
        <time>2019-05-25T08:18:11.000Z</time>
      </trkpt>
      <trkpt lat="45.74251" lon="4.82839">
        <ele>160.4</ele>
        <time>2019-05-25T08:18:16.000Z</time>
      </trkpt>
      <trkpt lat="45.74224" lon="4.82813">
        <ele>161.83</ele>
        <time>2019-05-25T08:18:21.000Z</time>
      </trkpt>
      <trkpt lat="45.74198" lon="4.82788">
        <ele>163.91</ele>
        <time>2019-05-25T08:18:26.000Z</time>
      </trkpt>
      <trkpt lat="45.7417" lon="4.82765">
        <ele>164.13</ele>
        <time>2019-05-25T08:18:31.000Z</time>
      </trkpt>
      <trkpt lat="45.74144" lon="4.8274">
        <ele>167.61</ele>
        <time>2019-05-25T08:18:36.000Z</time>
      </trkpt>
      <trkpt lat="45.74117" lon="4.82715">
        <ele>169.12</ele>
        <time>2019-05-25T08:18:41.000Z</time>
      </trkpt>
      <trkpt lat="45.74086" lon="4.82691">
        <ele>169.13</ele>
        <time>2019-05-25T08:18:46.000Z</time>
      </trkpt>
      <trkpt lat="45.74056" lon="4.82668">
        <ele>170.07</ele>
        <time>2019-05-25T08:18:51.000Z</time>
      </trkpt>
      <trkpt lat="45.74026" lon="4.82642">
        <ele>169.18</ele>
        <time>2019-05-25T08:18:56.000Z</time>
      </trkpt>
      <trkpt lat="45.73997" lon="4.82618">
        <ele>170.08</ele>
        <time>2019-05-25T08:19:01.000Z</time>
      </trkpt>
      <trkpt lat="45.7397" lon="4.82593">
        <ele>170.13</ele>
        <time>2019-05-25T08:19:06.000Z</time>
      </trkpt>
      <trkpt lat="45.73943" lon="4.82567">
        <ele>170.13</ele>
        <time>2019-05-25T08:19:11.000Z</time>
      </trkpt>
      <trkpt lat="45.73912" lon="4.82549">
        <ele>168.38</ele>
        <time>2019-05-25T08:19:16.000Z</time>
      </trkpt>
      <trkpt lat="45.73884" lon="4.82524">
        <ele>168.36</ele>
        <time>2019-05-25T08:19:21.000Z</time>
      </trkpt>
      <trkpt lat="45.73857" lon="4.82497">
        <ele>169.86</ele>
        <time>2019-05-25T08:19:26.000Z</time>
      </trkpt>
      <trkpt lat="45.73829" lon="4.82471">
        <ele>171.11</ele>
        <time>2019-05-25T08:19:31.000Z</time>
      </trkpt>
      <trkpt lat="45.738" lon="4.8245">
        <ele>170.19</ele>
        <time>2019-05-25T08:19:36.000Z</time>
      </trkpt>
      <trkpt lat="45.73773" lon="4.82425">
        <ele>171.85</ele>
        <time>2019-05-25T08:19:41.000Z</time>
      </trkpt>
      <trkpt lat="45.73745" lon="4.82402">
        <ele>171.37</ele>
        <time>2019-05-25T08:19:46.000Z</time>
      </trkpt>
      <trkpt lat="45.73718" lon="4.82381">
        <ele>171.12</ele>
        <time>2019-05-25T08:19:51.000Z</time>
      </trkpt>
      <trkpt lat="45.73694" lon="4.8237">
        <ele>169.12</ele>
        <time>2019-05-25T08:19:56.000Z</time>
      </trkpt>
      <trkpt lat="45.73675" lon="4.82357">
        <ele>169.12</ele>
        <time>2019-05-25T08:20:01.000Z</time>
      </trkpt>
      <trkpt lat="45.73658" lon="4.82351">
        <ele>170.05</ele>
        <time>2019-05-25T08:20:06.000Z</time>
      </trkpt>
      <trkpt lat="45.73637" lon="4.82339">
        <ele>169.13</ele>
        <time>2019-05-25T08:20:11.000Z</time>
      </trkpt>
      <trkpt lat="45.73615" lon="4.82319">
        <ele>170.86</ele>
        <time>2019-05-25T08:20:16.000Z</time>
      </trkpt>
      <trkpt lat="45.7359" lon="4.823">
        <ele>171.11</ele>
        <time>2019-05-25T08:20:21.000Z</time>
      </trkpt>
      <trkpt lat="45.73566" lon="4.82278">
        <ele>171.11</ele>
        <time>2019-05-25T08:20:26.000Z</time>
      </trkpt>
      <trkpt lat="45.7354" lon="4.82257">
        <ele>169.37</ele>
        <time>2019-05-25T08:20:31.000Z</time>
      </trkpt>
      <trkpt lat="45.73514" lon="4.82238">
        <ele>169.11</ele>
        <time>2019-05-25T08:20:36.000Z</time>
      </trkpt>
      <trkpt lat="45.7349" lon="4.82222">
        <ele>168.12</ele>
        <time>2019-05-25T08:20:41.000Z</time>
      </trkpt>
      <trkpt lat="45.73469" lon="4.82214">
        <ele>168.11</ele>
        <time>2019-05-25T08:20:46.000Z</time>
      </trkpt>
      <trkpt lat="45.73446" lon="4.82208">
        <ele>168.91</ele>
        <time>2019-05-25T08:20:51.000Z</time>
      </trkpt>
      <trkpt lat="45.73419" lon="4.822">
        <ele>167.36</ele>
        <time>2019-05-25T08:20:56.000Z</time>
      </trkpt>
      <trkpt lat="45.73391" lon="4.8219">
        <ele>167.11</ele>
        <time>2019-05-25T08:21:01.000Z</time>
      </trkpt>
      <trkpt lat="45.73364" lon="4.82187">
        <ele>168.05</ele>
        <time>2019-05-25T08:21:06.000Z</time>
      </trkpt>
      <trkpt lat="45.73339" lon="4.82185">
        <ele>169.09</ele>
        <time>2019-05-25T08:21:11.000Z</time>
      </trkpt>
      <trkpt lat="45.73315" lon="4.82183">
        <ele>169.16</ele>
        <time>2019-05-25T08:21:16.000Z</time>
      </trkpt>
      <trkpt lat="45.73295" lon="4.82172">
        <ele>166.18</ele>
        <time>2019-05-25T08:21:21.000Z</time>
      </trkpt>
      <trkpt lat="45.73266" lon="4.82163">
        <ele>166.29</ele>
        <time>2019-05-25T08:21:26.000Z</time>
      </trkpt>
      <trkpt lat="45.73241" lon="4.82148">
        <ele>166.15</ele>
        <time>2019-05-25T08:21:31.000Z</time>
      </trkpt>
      <trkpt lat="45.73212" lon="4.82134">
        <ele>164.86</ele>
        <time>2019-05-25T08:21:36.000Z</time>
      </trkpt>
      <trkpt lat="45.73181" lon="4.82129">
        <ele>166.55</ele>
        <time>2019-05-25T08:21:41.000Z</time>
      </trkpt>
      <trkpt lat="45.73154" lon="4.82124">
        <ele>165.92</ele>
        <time>2019-05-25T08:21:46.000Z</time>
      </trkpt>
      <trkpt lat="45.73131" lon="4.82119">
        <ele>165.12</ele>
        <time>2019-05-25T08:21:51.000Z</time>
      </trkpt>
      <trkpt lat="45.73136" lon="4.8213">
        <ele>167.04</ele>
        <time>2019-05-25T08:21:59.000Z</time>
      </trkpt>
      <trkpt lat="45.7315" lon="4.82136">
        <ele>168.85</ele>
        <time>2019-05-25T08:22:04.000Z</time>
      </trkpt>
      <trkpt lat="45.73163" lon="4.82149">
        <ele>170.29</ele>
        <time>2019-05-25T08:22:09.000Z</time>
      </trkpt>
      <trkpt lat="45.73175" lon="4.82166">
        <ele>171.35</ele>
        <time>2019-05-25T08:22:14.000Z</time>
      </trkpt>
      <trkpt lat="45.73175" lon="4.82192">
        <ele>172.11</ele>
        <time>2019-05-25T08:22:19.000Z</time>
      </trkpt>
      <trkpt lat="45.73171" lon="4.8222">
        <ele>172.11</ele>
        <time>2019-05-25T08:22:24.000Z</time>
      </trkpt>
      <trkpt lat="45.7318" lon="4.82215">
        <ele>172.86</ele>
        <time>2019-05-25T08:22:32.000Z</time>
      </trkpt>
      <trkpt lat="45.73184" lon="4.8219">
        <ele>173.86</ele>
        <time>2019-05-25T08:22:37.000Z</time>
      </trkpt>
      <trkpt lat="45.73187" lon="4.82165">
        <ele>173.12</ele>
        <time>2019-05-25T08:22:42.000Z</time>
      </trkpt>
      <trkpt lat="45.73192" lon="4.8214">
        <ele>172.93</ele>
        <time>2019-05-25T08:22:47.000Z</time>
      </trkpt>
      <trkpt lat="45.73202" lon="4.82119">
        <ele>173.34</ele>
        <time>2019-05-25T08:22:52.000Z</time>
      </trkpt>
      <trkpt lat="45.73216" lon="4.82103">
        <ele>173.12</ele>
        <time>2019-05-25T08:22:57.000Z</time>
      </trkpt>
      <trkpt lat="45.73229" lon="4.82089">
        <ele>173.11</ele>
        <time>2019-05-25T08:23:02.000Z</time>
      </trkpt>
      <trkpt lat="45.73243" lon="4.8207">
        <ele>172.17</ele>
        <time>2019-05-25T08:23:07.000Z</time>
      </trkpt>
      <trkpt lat="45.73257" lon="4.82052">
        <ele>172.09</ele>
        <time>2019-05-25T08:23:12.000Z</time>
      </trkpt>
      <trkpt lat="45.73272" lon="4.82033">
        <ele>170.17</ele>
        <time>2019-05-25T08:23:17.000Z</time>
      </trkpt>
      <trkpt lat="45.7329" lon="4.82009">
        <ele>169.29</ele>
        <time>2019-05-25T08:23:22.000Z</time>
      </trkpt>
      <trkpt lat="45.7331" lon="4.81986">
        <ele>170.1</ele>
        <time>2019-05-25T08:23:27.000Z</time>
      </trkpt>
      <trkpt lat="45.73331" lon="4.81963">
        <ele>171.29</ele>
        <time>2019-05-25T08:23:32.000Z</time>
      </trkpt>
      <trkpt lat="45.73346" lon="4.81925">
        <ele>169.18</ele>
        <time>2019-05-25T08:23:37.000Z</time>
      </trkpt>
      <trkpt lat="45.73355" lon="4.81893">
        <ele>168.86</ele>
        <time>2019-05-25T08:23:42.000Z</time>
      </trkpt>
      <trkpt lat="45.73362" lon="4.81863">
        <ele>168.91</ele>
        <time>2019-05-25T08:23:47.000Z</time>
      </trkpt>
      <trkpt lat="45.73368" lon="4.8184">
        <ele>168.85</ele>
        <time>2019-05-25T08:23:52.000Z</time>
      </trkpt>
      <trkpt lat="45.73377" lon="4.81821">
        <ele>169.1</ele>
        <time>2019-05-25T08:23:57.000Z</time>
      </trkpt>
      <trkpt lat="45.73385" lon="4.81805">
        <ele>169.1</ele>
        <time>2019-05-25T08:24:02.000Z</time>
      </trkpt>
      <trkpt lat="45.73393" lon="4.81797">
        <ele>167.35</ele>
        <time>2019-05-25T08:24:07.000Z</time>
      </trkpt>
      <trkpt lat="45.73402" lon="4.81804">
        <ele>170.75</ele>
        <time>2019-05-25T08:24:12.000Z</time>
      </trkpt>
      <trkpt lat="45.73395" lon="4.81793">
        <ele>164.21</ele>
        <time>2019-05-25T08:24:31.000Z</time>
      </trkpt>
      <trkpt lat="45.73399" lon="4.81781">
        <ele>168.1</ele>
        <time>2019-05-25T08:24:42.000Z</time>
      </trkpt>
      <trkpt lat="45.734" lon="4.81767">
        <ele>167.1</ele>
        <time>2019-05-25T08:24:54.000Z</time>
      </trkpt>
      <trkpt lat="45.73383" lon="4.81763">
        <ele>167.85</ele>
        <time>2019-05-25T08:24:59.000Z</time>
      </trkpt>
      <trkpt lat="45.73363" lon="4.81743">
        <ele>169.1</ele>
        <time>2019-05-25T08:25:04.000Z</time>
      </trkpt>
      <trkpt lat="45.73342" lon="4.81726">
        <ele>168.86</ele>
        <time>2019-05-25T08:25:09.000Z</time>
      </trkpt>
      <trkpt lat="45.73323" lon="4.81708">
        <ele>169.04</ele>
        <time>2019-05-25T08:25:14.000Z</time>
      </trkpt>
      <trkpt lat="45.73305" lon="4.81695">
        <ele>170.09</ele>
        <time>2019-05-25T08:25:19.000Z</time>
      </trkpt>
      <trkpt lat="45.73283" lon="4.81679">
        <ele>169.36</ele>
        <time>2019-05-25T08:25:24.000Z</time>
      </trkpt>
      <trkpt lat="45.73258" lon="4.81668">
        <ele>172.03</ele>
        <time>2019-05-25T08:25:29.000Z</time>
      </trkpt>
      <trkpt lat="45.73232" lon="4.81652">
        <ele>171.53</ele>
        <time>2019-05-25T08:25:34.000Z</time>
      </trkpt>
      <trkpt lat="45.73207" lon="4.81635">
        <ele>171.85</ele>
        <time>2019-05-25T08:25:39.000Z</time>
      </trkpt>
      <trkpt lat="45.73185" lon="4.81616">
        <ele>175.78</ele>
        <time>2019-05-25T08:25:44.000Z</time>
      </trkpt>
      <trkpt lat="45.73165" lon="4.81598">
        <ele>178.07</ele>
        <time>2019-05-25T08:25:49.000Z</time>
      </trkpt>
      <trkpt lat="45.73145" lon="4.8158">
        <ele>178.1</ele>
        <time>2019-05-25T08:25:54.000Z</time>
      </trkpt>
      <trkpt lat="45.73123" lon="4.81561">
        <ele>177.34</ele>
        <time>2019-05-25T08:25:59.000Z</time>
      </trkpt>
      <trkpt lat="45.73097" lon="4.81541">
        <ele>176.15</ele>
        <time>2019-05-25T08:26:04.000Z</time>
      </trkpt>
      <trkpt lat="45.73068" lon="4.81517">
        <ele>176.09</ele>
        <time>2019-05-25T08:26:09.000Z</time>
      </trkpt>
      <trkpt lat="45.7304" lon="4.81504">
        <ele>175.29</ele>
        <time>2019-05-25T08:26:14.000Z</time>
      </trkpt>
      <trkpt lat="45.73012" lon="4.81516">
        <ele>173.17</ele>
        <time>2019-05-25T08:26:19.000Z</time>
      </trkpt>
      <trkpt lat="45.72987" lon="4.81528">
        <ele>174.09</ele>
        <time>2019-05-25T08:26:24.000Z</time>
      </trkpt>
      <trkpt lat="45.72962" lon="4.81538">
        <ele>174.84</ele>
        <time>2019-05-25T08:26:29.000Z</time>
      </trkpt>
      <trkpt lat="45.72939" lon="4.81539">
        <ele>176.83</ele>
        <time>2019-05-25T08:26:34.000Z</time>
      </trkpt>
      <trkpt lat="45.7293" lon="4.81543">
        <ele>177.09</ele>
        <time>2019-05-25T08:26:39.000Z</time>
      </trkpt>
      <trkpt lat="45.72923" lon="4.81552">
        <ele>178.09</ele>
        <time>2019-05-25T08:26:46.000Z</time>
      </trkpt>
      <trkpt lat="45.72902" lon="4.81571">
        <ele>176.34</ele>
        <time>2019-05-25T08:26:51.000Z</time>
      </trkpt>
      <trkpt lat="45.7287" lon="4.81585">
        <ele>174.35</ele>
        <time>2019-05-25T08:26:56.000Z</time>
      </trkpt>
      <trkpt lat="45.7283" lon="4.81598">
        <ele>171.36</ele>
        <time>2019-05-25T08:27:01.000Z</time>
      </trkpt>
      <trkpt lat="45.72783" lon="4.81613">
        <ele>168.16</ele>
        <time>2019-05-25T08:27:06.000Z</time>
      </trkpt>
      <trkpt lat="45.72734" lon="4.81622">
        <ele>168.09</ele>
        <time>2019-05-25T08:27:11.000Z</time>
      </trkpt>
      <trkpt lat="45.72691" lon="4.81632">
        <ele>168.04</ele>
        <time>2019-05-25T08:27:16.000Z</time>
      </trkpt>
      <trkpt lat="45.72652" lon="4.81642">
        <ele>168.83</ele>
        <time>2019-05-25T08:27:21.000Z</time>
      </trkpt>
      <trkpt lat="45.72618" lon="4.81649">
        <ele>169.09</ele>
        <time>2019-05-25T08:27:26.000Z</time>
      </trkpt>
      <trkpt lat="45.7258" lon="4.81664">
        <ele>170.31</ele>
        <time>2019-05-25T08:27:31.000Z</time>
      </trkpt>
      <trkpt lat="45.72542" lon="4.81677">
        <ele>170.1</ele>
        <time>2019-05-25T08:27:36.000Z</time>
      </trkpt>
      <trkpt lat="45.72503" lon="4.81685">
        <ele>168.15</ele>
        <time>2019-05-25T08:27:41.000Z</time>
      </trkpt>
      <trkpt lat="45.72468" lon="4.81696">
        <ele>168.34</ele>
        <time>2019-05-25T08:27:46.000Z</time>
      </trkpt>
      <trkpt lat="45.72431" lon="4.81705">
        <ele>168.09</ele>
        <time>2019-05-25T08:27:51.000Z</time>
      </trkpt>
      <trkpt lat="45.72394" lon="4.81716">
        <ele>168.09</ele>
        <time>2019-05-25T08:27:56.000Z</time>
      </trkpt>
      <trkpt lat="45.72357" lon="4.81724">
        <ele>167.1</ele>
        <time>2019-05-25T08:28:01.000Z</time>
      </trkpt>
      <trkpt lat="45.72319" lon="4.81733">
        <ele>167.09</ele>
        <time>2019-05-25T08:28:06.000Z</time>
      </trkpt>
      <trkpt lat="45.7228" lon="4.81741">
        <ele>166.1</ele>
        <time>2019-05-25T08:28:11.000Z</time>
      </trkpt>
      <trkpt lat="45.72243" lon="4.81749">
        <ele>166.08</ele>
        <time>2019-05-25T08:28:16.000Z</time>
      </trkpt>
      <trkpt lat="45.72202" lon="4.81758">
        <ele>164.15</ele>
        <time>2019-05-25T08:28:21.000Z</time>
      </trkpt>
      <trkpt lat="45.72162" lon="4.81767">
        <ele>164.09</ele>
        <time>2019-05-25T08:28:26.000Z</time>
      </trkpt>
      <trkpt lat="45.72122" lon="4.81776">
        <ele>164.09</ele>
        <time>2019-05-25T08:28:31.000Z</time>
      </trkpt>
      <trkpt lat="45.72088" lon="4.81783">
        <ele>164.08</ele>
        <time>2019-05-25T08:28:36.000Z</time>
      </trkpt>
      <trkpt lat="45.72055" lon="4.81791">
        <ele>164.08</ele>
        <time>2019-05-25T08:28:41.000Z</time>
      </trkpt>
      <trkpt lat="45.7203" lon="4.81796">
        <ele>163.84</ele>
        <time>2019-05-25T08:28:46.000Z</time>
      </trkpt>
      <trkpt lat="45.72021" lon="4.81798">
        <ele>164.83</ele>
        <time>2019-05-25T08:28:51.000Z</time>
      </trkpt>
      <trkpt lat="45.72001" lon="4.81804">
        <ele>164.1</ele>
        <time>2019-05-25T08:28:56.000Z</time>
      </trkpt>
      <trkpt lat="45.71976" lon="4.81812">
        <ele>165.07</ele>
        <time>2019-05-25T08:29:01.000Z</time>
      </trkpt>
      <trkpt lat="45.71947" lon="4.81817">
        <ele>164.32</ele>
        <time>2019-05-25T08:29:06.000Z</time>
      </trkpt>
      <trkpt lat="45.71916" lon="4.81826">
        <ele>165.08</ele>
        <time>2019-05-25T08:29:11.000Z</time>
      </trkpt>
      <trkpt lat="45.71884" lon="4.81833">
        <ele>165.78</ele>
        <time>2019-05-25T08:29:16.000Z</time>
      </trkpt>
      <trkpt lat="45.71852" lon="4.8184">
        <ele>166.89</ele>
        <time>2019-05-25T08:29:21.000Z</time>
      </trkpt>
      <trkpt lat="45.7182" lon="4.81843">
        <ele>166.1</ele>
        <time>2019-05-25T08:29:26.000Z</time>
      </trkpt>
      <trkpt lat="45.71785" lon="4.8185">
        <ele>167.02</ele>
        <time>2019-05-25T08:29:31.000Z</time>
      </trkpt>
      <trkpt lat="45.71753" lon="4.81864">
        <ele>166.32</ele>
        <time>2019-05-25T08:29:36.000Z</time>
      </trkpt>
      <trkpt lat="45.71722" lon="4.8187">
        <ele>167.81</ele>
        <time>2019-05-25T08:29:41.000Z</time>
      </trkpt>
      <trkpt lat="45.71689" lon="4.81878">
        <ele>168.82</ele>
        <time>2019-05-25T08:29:46.000Z</time>
      </trkpt>
      <trkpt lat="45.71655" lon="4.81883">
        <ele>169.08</ele>
        <time>2019-05-25T08:29:51.000Z</time>
      </trkpt>
      <trkpt lat="45.71623" lon="4.8189">
        <ele>169.08</ele>
        <time>2019-05-25T08:29:56.000Z</time>
      </trkpt>
      <trkpt lat="45.71593" lon="4.81898">
        <ele>167.17</ele>
        <time>2019-05-25T08:30:01.000Z</time>
      </trkpt>
      <trkpt lat="45.71561" lon="4.81903">
        <ele>166.09</ele>
        <time>2019-05-25T08:30:06.000Z</time>
      </trkpt>
      <trkpt lat="45.71527" lon="4.81909">
        <ele>165.89</ele>
        <time>2019-05-25T08:30:11.000Z</time>
      </trkpt>
      <trkpt lat="45.71496" lon="4.81917">
        <ele>166.77</ele>
        <time>2019-05-25T08:30:16.000Z</time>
      </trkpt>
      <trkpt lat="45.71466" lon="4.81925">
        <ele>165.14</ele>
        <time>2019-05-25T08:30:21.000Z</time>
      </trkpt>
      <trkpt lat="45.71444" lon="4.81928">
        <ele>165.09</ele>
        <time>2019-05-25T08:30:26.000Z</time>
      </trkpt>
      <trkpt lat="45.71433" lon="4.81931">
        <ele>163.83</ele>
        <time>2019-05-25T08:31:09.000Z</time>
      </trkpt>
      <trkpt lat="45.71411" lon="4.81932">
        <ele>162.33</ele>
        <time>2019-05-25T08:31:14.000Z</time>
      </trkpt>
      <trkpt lat="45.71385" lon="4.81941">
        <ele>163.08</ele>
        <time>2019-05-25T08:31:19.000Z</time>
      </trkpt>
      <trkpt lat="45.71356" lon="4.81945">
        <ele>163.84</ele>
        <time>2019-05-25T08:31:24.000Z</time>
      </trkpt>
      <trkpt lat="45.71325" lon="4.81953">
        <ele>164.08</ele>
        <time>2019-05-25T08:31:29.000Z</time>
      </trkpt>
      <trkpt lat="45.71297" lon="4.81964">
        <ele>165.08</ele>
        <time>2019-05-25T08:31:34.000Z</time>
      </trkpt>
      <trkpt lat="45.71266" lon="4.81972">
        <ele>166.01</ele>
        <time>2019-05-25T08:31:39.000Z</time>
      </trkpt>
      <trkpt lat="45.71234" lon="4.81981">
        <ele>166.08</ele>
        <time>2019-05-25T08:31:44.000Z</time>
      </trkpt>
      <trkpt lat="45.71203" lon="4.81988">
        <ele>166.08</ele>
        <time>2019-05-25T08:31:49.000Z</time>
      </trkpt>
      <trkpt lat="45.71172" lon="4.81992">
        <ele>167.01</ele>
        <time>2019-05-25T08:31:54.000Z</time>
      </trkpt>
      <trkpt lat="45.71141" lon="4.81999">
        <ele>165.38</ele>
        <time>2019-05-25T08:31:59.000Z</time>
      </trkpt>
      <trkpt lat="45.71107" lon="4.82006">
        <ele>164.89</ele>
        <time>2019-05-25T08:32:04.000Z</time>
      </trkpt>
      <trkpt lat="45.71077" lon="4.82013">
        <ele>166</ele>
        <time>2019-05-25T08:32:09.000Z</time>
      </trkpt>
      <trkpt lat="45.71043" lon="4.8202">
        <ele>167.77</ele>
        <time>2019-05-25T08:32:14.000Z</time>
      </trkpt>
      <trkpt lat="45.71015" lon="4.82032">
        <ele>166.14</ele>
        <time>2019-05-25T08:32:19.000Z</time>
      </trkpt>
      <trkpt lat="45.7099" lon="4.82051">
        <ele>165</ele>
        <time>2019-05-25T08:32:24.000Z</time>
      </trkpt>
      <trkpt lat="45.70973" lon="4.82062">
        <ele>164.83</ele>
        <time>2019-05-25T08:32:29.000Z</time>
      </trkpt>
      <trkpt lat="45.70957" lon="4.82072">
        <ele>168.24</ele>
        <time>2019-05-25T08:32:34.000Z</time>
      </trkpt>
      <trkpt lat="45.70938" lon="4.82084">
        <ele>167.32</ele>
        <time>2019-05-25T08:32:39.000Z</time>
      </trkpt>
      <trkpt lat="45.70922" lon="4.82098">
        <ele>166.95</ele>
        <time>2019-05-25T08:32:44.000Z</time>
      </trkpt>
      <trkpt lat="45.70907" lon="4.82109">
        <ele>168.77</ele>
        <time>2019-05-25T08:32:49.000Z</time>
      </trkpt>
      <trkpt lat="45.70891" lon="4.82121">
        <ele>169.84</ele>
        <time>2019-05-25T08:32:54.000Z</time>
      </trkpt>
      <trkpt lat="45.70872" lon="4.8213">
        <ele>170.81</ele>
        <time>2019-05-25T08:32:59.000Z</time>
      </trkpt>
      <trkpt lat="45.70852" lon="4.82133">
        <ele>171.89</ele>
        <time>2019-05-25T08:33:04.000Z</time>
      </trkpt>
      <trkpt lat="45.70826" lon="4.82138">
        <ele>170.2</ele>
        <time>2019-05-25T08:33:09.000Z</time>
      </trkpt>
      <trkpt lat="45.70794" lon="4.82141">
        <ele>168.14</ele>
        <time>2019-05-25T08:33:14.000Z</time>
      </trkpt>
      <trkpt lat="45.70766" lon="4.82133">
        <ele>167.08</ele>
        <time>2019-05-25T08:33:19.000Z</time>
      </trkpt>
      <trkpt lat="45.70756" lon="4.8213">
        <ele>166.37</ele>
        <time>2019-05-25T08:33:28.000Z</time>
      </trkpt>
      <trkpt lat="45.70746" lon="4.82123">
        <ele>164.78</ele>
        <time>2019-05-25T08:34:06.000Z</time>
      </trkpt>
      <trkpt lat="45.70724" lon="4.82117">
        <ele>167.81</ele>
        <time>2019-05-25T08:34:11.000Z</time>
      </trkpt>
      <trkpt lat="45.70699" lon="4.8211">
        <ele>169.01</ele>
        <time>2019-05-25T08:34:16.000Z</time>
      </trkpt>
      <trkpt lat="45.70671" lon="4.82103">
        <ele>169.82</ele>
        <time>2019-05-25T08:34:21.000Z</time>
      </trkpt>
      <trkpt lat="45.70641" lon="4.82097">
        <ele>169.07</ele>
        <time>2019-05-25T08:34:26.000Z</time>
      </trkpt>
      <trkpt lat="45.70611" lon="4.82089">
        <ele>166.33</ele>
        <time>2019-05-25T08:34:31.000Z</time>
      </trkpt>
      <trkpt lat="45.70583" lon="4.82081">
        <ele>167.93</ele>
        <time>2019-05-25T08:34:36.000Z</time>
      </trkpt>
      <trkpt lat="45.7055" lon="4.82073">
        <ele>166.13</ele>
        <time>2019-05-25T08:34:41.000Z</time>
      </trkpt>
      <trkpt lat="45.7052" lon="4.82064">
        <ele>166.08</ele>
        <time>2019-05-25T08:34:46.000Z</time>
      </trkpt>
      <trkpt lat="45.7049" lon="4.8206">
        <ele>168.26</ele>
        <time>2019-05-25T08:34:51.000Z</time>
      </trkpt>
      <trkpt lat="45.70459" lon="4.82061">
        <ele>167.08</ele>
        <time>2019-05-25T08:34:56.000Z</time>
      </trkpt>
      <trkpt lat="45.70426" lon="4.82063">
        <ele>167.07</ele>
        <time>2019-05-25T08:35:01.000Z</time>
      </trkpt>
      <trkpt lat="45.70392" lon="4.82067">
        <ele>166.83</ele>
        <time>2019-05-25T08:35:06.000Z</time>
      </trkpt>
      <trkpt lat="45.70361" lon="4.82073">
        <ele>168.05</ele>
        <time>2019-05-25T08:35:11.000Z</time>
      </trkpt>
      <trkpt lat="45.70337" lon="4.82078">
        <ele>167.32</ele>
        <time>2019-05-25T08:35:16.000Z</time>
      </trkpt>
      <trkpt lat="45.70329" lon="4.82086">
        <ele>165.07</ele>
        <time>2019-05-25T08:35:55.000Z</time>
      </trkpt>
      <trkpt lat="45.7031" lon="4.82094">
        <ele>167.06</ele>
        <time>2019-05-25T08:36:00.000Z</time>
      </trkpt>
      <trkpt lat="45.70284" lon="4.82109">
        <ele>165.88</ele>
        <time>2019-05-25T08:36:05.000Z</time>
      </trkpt>
      <trkpt lat="45.70257" lon="4.82127">
        <ele>166.2</ele>
        <time>2019-05-25T08:36:10.000Z</time>
      </trkpt>
      <trkpt lat="45.70227" lon="4.82146">
        <ele>166.06</ele>
        <time>2019-05-25T08:36:15.000Z</time>
      </trkpt>
      <trkpt lat="45.70193" lon="4.82166">
        <ele>168.01</ele>
        <time>2019-05-25T08:36:20.000Z</time>
      </trkpt>
      <trkpt lat="45.70165" lon="4.82188">
        <ele>169.02</ele>
        <time>2019-05-25T08:36:25.000Z</time>
      </trkpt>
      <trkpt lat="45.70135" lon="4.8221">
        <ele>168.87</ele>
        <time>2019-05-25T08:36:30.000Z</time>
      </trkpt>
      <trkpt lat="45.70104" lon="4.82231">
        <ele>167.2</ele>
        <time>2019-05-25T08:36:35.000Z</time>
      </trkpt>
      <trkpt lat="45.70075" lon="4.82251">
        <ele>168.07</ele>
        <time>2019-05-25T08:36:40.000Z</time>
      </trkpt>
      <trkpt lat="45.70044" lon="4.82274">
        <ele>167.32</ele>
        <time>2019-05-25T08:36:45.000Z</time>
      </trkpt>
      <trkpt lat="45.70016" lon="4.82293">
        <ele>166.33</ele>
        <time>2019-05-25T08:36:50.000Z</time>
      </trkpt>
      <trkpt lat="45.69984" lon="4.82315">
        <ele>167.06</ele>
        <time>2019-05-25T08:36:55.000Z</time>
      </trkpt>
      <trkpt lat="45.69963" lon="4.8234">
        <ele>166.12</ele>
        <time>2019-05-25T08:37:00.000Z</time>
      </trkpt>
      <trkpt lat="45.69929" lon="4.82357">
        <ele>164.13</ele>
        <time>2019-05-25T08:37:05.000Z</time>
      </trkpt>
      <trkpt lat="45.69898" lon="4.82379">
        <ele>165.06</ele>
        <time>2019-05-25T08:37:10.000Z</time>
      </trkpt>
      <trkpt lat="45.69866" lon="4.82399">
        <ele>165.09</ele>
        <time>2019-05-25T08:37:15.000Z</time>
      </trkpt>
      <trkpt lat="45.69836" lon="4.82422">
        <ele>165.02</ele>
        <time>2019-05-25T08:37:20.000Z</time>
      </trkpt>
      <trkpt lat="45.69809" lon="4.82439">
        <ele>166.07</ele>
        <time>2019-05-25T08:37:25.000Z</time>
      </trkpt>
      <trkpt lat="45.69793" lon="4.82451">
        <ele>166.17</ele>
        <time>2019-05-25T08:37:30.000Z</time>
      </trkpt>
      <trkpt lat="45.69792" lon="4.82464">
        <ele>169.07</ele>
        <time>2019-05-25T08:37:46.000Z</time>
      </trkpt>
      <trkpt lat="45.69784" lon="4.82467">
        <ele>167.15</ele>
        <time>2019-05-25T08:37:51.000Z</time>
      </trkpt>
      <trkpt lat="45.6976" lon="4.82479">
        <ele>166.38</ele>
        <time>2019-05-25T08:37:56.000Z</time>
      </trkpt>
      <trkpt lat="45.69737" lon="4.82496">
        <ele>166.93</ele>
        <time>2019-05-25T08:38:01.000Z</time>
      </trkpt>
      <trkpt lat="45.69712" lon="4.82509">
        <ele>166.07</ele>
        <time>2019-05-25T08:38:06.000Z</time>
      </trkpt>
      <trkpt lat="45.69685" lon="4.82527">
        <ele>166.07</ele>
        <time>2019-05-25T08:38:11.000Z</time>
      </trkpt>
      <trkpt lat="45.69657" lon="4.82546">
        <ele>167.77</ele>
        <time>2019-05-25T08:38:16.000Z</time>
      </trkpt>
      <trkpt lat="45.69627" lon="4.82567">
        <ele>168.07</ele>
        <time>2019-05-25T08:38:21.000Z</time>
      </trkpt>
      <trkpt lat="45.69595" lon="4.82588">
        <ele>167.55</ele>
        <time>2019-05-25T08:38:26.000Z</time>
      </trkpt>
      <trkpt lat="45.69568" lon="4.82607">
        <ele>169.94</ele>
        <time>2019-05-25T08:38:31.000Z</time>
      </trkpt>
      <trkpt lat="45.69547" lon="4.82614">
        <ele>170.07</ele>
        <time>2019-05-25T08:38:36.000Z</time>
      </trkpt>
      <trkpt lat="45.69527" lon="4.82597">
        <ele>169.31</ele>
        <time>2019-05-25T08:38:41.000Z</time>
      </trkpt>
      <trkpt lat="45.69501" lon="4.82603">
        <ele>169.13</ele>
        <time>2019-05-25T08:38:46.000Z</time>
      </trkpt>
      <trkpt lat="45.69489" lon="4.82634">
        <ele>170.06</ele>
        <time>2019-05-25T08:38:51.000Z</time>
      </trkpt>
      <trkpt lat="45.69487" lon="4.82647">
        <ele>171.01</ele>
        <time>2019-05-25T08:38:56.000Z</time>
      </trkpt>
      <trkpt lat="45.69486" lon="4.82663">
        <ele>169.04</ele>
        <time>2019-05-25T08:39:14.000Z</time>
      </trkpt>
      <trkpt lat="45.69468" lon="4.82681">
        <ele>168.83</ele>
        <time>2019-05-25T08:39:19.000Z</time>
      </trkpt>
      <trkpt lat="45.6945" lon="4.82705">
        <ele>169.07</ele>
        <time>2019-05-25T08:39:24.000Z</time>
      </trkpt>
      <trkpt lat="45.69428" lon="4.82725">
        <ele>170.07</ele>
        <time>2019-05-25T08:39:29.000Z</time>
      </trkpt>
      <trkpt lat="45.69406" lon="4.82741">
        <ele>169.88</ele>
        <time>2019-05-25T08:39:34.000Z</time>
      </trkpt>
      <trkpt lat="45.6938" lon="4.8276">
        <ele>170.07</ele>
        <time>2019-05-25T08:39:39.000Z</time>
      </trkpt>
      <trkpt lat="45.69353" lon="4.82779">
        <ele>169.33</ele>
        <time>2019-05-25T08:39:44.000Z</time>
      </trkpt>
      <trkpt lat="45.69339" lon="4.82807">
        <ele>168.09</ele>
        <time>2019-05-25T08:39:49.000Z</time>
      </trkpt>
      <trkpt lat="45.69327" lon="4.82815">
        <ele>168.81</ele>
        <time>2019-05-25T08:39:54.000Z</time>
      </trkpt>
      <trkpt lat="45.69317" lon="4.82811">
        <ele>170.06</ele>
        <time>2019-05-25T08:40:01.000Z</time>
      </trkpt>
      <trkpt lat="45.69297" lon="4.8279">
        <ele>168.32</ele>
        <time>2019-05-25T08:40:06.000Z</time>
      </trkpt>
      <trkpt lat="45.69272" lon="4.82779">
        <ele>167.07</ele>
        <time>2019-05-25T08:40:11.000Z</time>
      </trkpt>
      <trkpt lat="45.69244" lon="4.82772">
        <ele>165.32</ele>
        <time>2019-05-25T08:40:16.000Z</time>
      </trkpt>
      <trkpt lat="45.69211" lon="4.82762">
        <ele>162.58</ele>
        <time>2019-05-25T08:40:21.000Z</time>
      </trkpt>
      <trkpt lat="45.69184" lon="4.82753">
        <ele>159.31</ele>
        <time>2019-05-25T08:40:26.000Z</time>
      </trkpt>
      <trkpt lat="45.69154" lon="4.82741">
        <ele>161.73</ele>
        <time>2019-05-25T08:40:31.000Z</time>
      </trkpt>
      <trkpt lat="45.69124" lon="4.82731">
        <ele>162.25</ele>
        <time>2019-05-25T08:40:36.000Z</time>
      </trkpt>
      <trkpt lat="45.69097" lon="4.82723">
        <ele>162.25</ele>
        <time>2019-05-25T08:40:41.000Z</time>
      </trkpt>
      <trkpt lat="45.69069" lon="4.82714">
        <ele>163.33</ele>
        <time>2019-05-25T08:40:46.000Z</time>
      </trkpt>
      <trkpt lat="45.69046" lon="4.82721">
        <ele>161.92</ele>
        <time>2019-05-25T08:40:51.000Z</time>
      </trkpt>
      <trkpt lat="45.69029" lon="4.82743">
        <ele>162.3</ele>
        <time>2019-05-25T08:40:56.000Z</time>
      </trkpt>
      <trkpt lat="45.69011" lon="4.82744">
        <ele>163.25</ele>
        <time>2019-05-25T08:41:01.000Z</time>
      </trkpt>
      <trkpt lat="45.69001" lon="4.82733">
        <ele>163.06</ele>
        <time>2019-05-25T08:41:06.000Z</time>
      </trkpt>
      <trkpt lat="45.69" lon="4.82716">
        <ele>171</ele>
        <time>2019-05-25T08:43:58.000Z</time>
      </trkpt>
      <trkpt lat="45.68982" lon="4.82695">
        <ele>170.02</ele>
        <time>2019-05-25T08:44:03.000Z</time>
      </trkpt>
      <trkpt lat="45.68959" lon="4.82683">
        <ele>170.05</ele>
        <time>2019-05-25T08:44:08.000Z</time>
      </trkpt>
      <trkpt lat="45.68934" lon="4.82673">
        <ele>170.03</ele>
        <time>2019-05-25T08:44:13.000Z</time>
      </trkpt>
      <trkpt lat="45.68903" lon="4.82673">
        <ele>169.06</ele>
        <time>2019-05-25T08:44:18.000Z</time>
      </trkpt>
      <trkpt lat="45.68873" lon="4.82675">
        <ele>166.13</ele>
        <time>2019-05-25T08:44:23.000Z</time>
      </trkpt>
      <trkpt lat="45.6885" lon="4.82688">
        <ele>166.05</ele>
        <time>2019-05-25T08:44:28.000Z</time>
      </trkpt>
      <trkpt lat="45.68836" lon="4.82691">
        <ele>167.06</ele>
        <time>2019-05-25T08:44:33.000Z</time>
      </trkpt>
      <trkpt lat="45.68823" lon="4.82675">
        <ele>166.88</ele>
        <time>2019-05-25T08:44:38.000Z</time>
      </trkpt>
      <trkpt lat="45.68798" lon="4.82671">
        <ele>166.06</ele>
        <time>2019-05-25T08:44:43.000Z</time>
      </trkpt>
      <trkpt lat="45.68768" lon="4.82672">
        <ele>165.07</ele>
        <time>2019-05-25T08:44:48.000Z</time>
      </trkpt>
      <trkpt lat="45.68735" lon="4.82672">
        <ele>165</ele>
        <time>2019-05-25T08:44:53.000Z</time>
      </trkpt>
      <trkpt lat="45.68703" lon="4.82676">
        <ele>163.12</ele>
        <time>2019-05-25T08:44:58.000Z</time>
      </trkpt>
      <trkpt lat="45.68665" lon="4.82682">
        <ele>162.05</ele>
        <time>2019-05-25T08:45:03.000Z</time>
      </trkpt>
      <trkpt lat="45.68633" lon="4.82688">
        <ele>162.06</ele>
        <time>2019-05-25T08:45:08.000Z</time>
      </trkpt>
      <trkpt lat="45.68602" lon="4.82697">
        <ele>162.81</ele>
        <time>2019-05-25T08:45:13.000Z</time>
      </trkpt>
      <trkpt lat="45.68582" lon="4.82708">
        <ele>163.06</ele>
        <time>2019-05-25T08:45:18.000Z</time>
      </trkpt>
      <trkpt lat="45.68559" lon="4.82708">
        <ele>163.05</ele>
        <time>2019-05-25T08:45:23.000Z</time>
      </trkpt>
      <trkpt lat="45.68534" lon="4.82718">
        <ele>165.74</ele>
        <time>2019-05-25T08:45:28.000Z</time>
      </trkpt>
      <trkpt lat="45.68508" lon="4.82741">
        <ele>164.93</ele>
        <time>2019-05-25T08:45:33.000Z</time>
      </trkpt>
      <trkpt lat="45.68485" lon="4.82762">
        <ele>163.06</ele>
        <time>2019-05-25T08:45:38.000Z</time>
      </trkpt>
      <trkpt lat="45.68467" lon="4.82777">
        <ele>164.04</ele>
        <time>2019-05-25T08:45:43.000Z</time>
      </trkpt>
      <trkpt lat="45.68449" lon="4.82771">
        <ele>162.56</ele>
        <time>2019-05-25T08:45:48.000Z</time>
      </trkpt>
      <trkpt lat="45.68443" lon="4.82761">
        <ele>162.12</ele>
        <time>2019-05-25T08:45:54.000Z</time>
      </trkpt>
      <trkpt lat="45.68442" lon="4.82746">
        <ele>163.05</ele>
        <time>2019-05-25T08:46:06.000Z</time>
      </trkpt>
      <trkpt lat="45.68426" lon="4.82748">
        <ele>162.12</ele>
        <time>2019-05-25T08:46:11.000Z</time>
      </trkpt>
      <trkpt lat="45.68401" lon="4.82768">
        <ele>162.29</ele>
        <time>2019-05-25T08:46:16.000Z</time>
      </trkpt>
      <trkpt lat="45.68374" lon="4.8278">
        <ele>161.06</ele>
        <time>2019-05-25T08:46:21.000Z</time>
      </trkpt>
      <trkpt lat="45.68348" lon="4.82795">
        <ele>160.87</ele>
        <time>2019-05-25T08:46:26.000Z</time>
      </trkpt>
      <trkpt lat="45.68318" lon="4.8281">
        <ele>161.79</ele>
        <time>2019-05-25T08:46:31.000Z</time>
      </trkpt>
      <trkpt lat="45.68289" lon="4.82826">
        <ele>161.26</ele>
        <time>2019-05-25T08:46:36.000Z</time>
      </trkpt>
      <trkpt lat="45.68262" lon="4.82847">
        <ele>162.29</ele>
        <time>2019-05-25T08:46:41.000Z</time>
      </trkpt>
      <trkpt lat="45.68232" lon="4.82866">
        <ele>162.07</ele>
        <time>2019-05-25T08:46:46.000Z</time>
      </trkpt>
      <trkpt lat="45.68199" lon="4.82885">
        <ele>158.63</ele>
        <time>2019-05-25T08:46:51.000Z</time>
      </trkpt>
      <trkpt lat="45.68164" lon="4.82904">
        <ele>159.06</ele>
        <time>2019-05-25T08:46:56.000Z</time>
      </trkpt>
      <trkpt lat="45.68136" lon="4.82931">
        <ele>160.1</ele>
        <time>2019-05-25T08:47:01.000Z</time>
      </trkpt>
      <trkpt lat="45.68107" lon="4.82955">
        <ele>160.31</ele>
        <time>2019-05-25T08:47:06.000Z</time>
      </trkpt>
      <trkpt lat="45.68073" lon="4.82976">
        <ele>162.49</ele>
        <time>2019-05-25T08:47:11.000Z</time>
      </trkpt>
      <trkpt lat="45.68042" lon="4.82999">
        <ele>163.29</ele>
        <time>2019-05-25T08:47:16.000Z</time>
      </trkpt>
      <trkpt lat="45.68013" lon="4.83025">
        <ele>162.06</ele>
        <time>2019-05-25T08:47:21.000Z</time>
      </trkpt>
      <trkpt lat="45.67981" lon="4.83052">
        <ele>161.25</ele>
        <time>2019-05-25T08:47:26.000Z</time>
      </trkpt>
      <trkpt lat="45.6795" lon="4.83078">
        <ele>161.02</ele>
        <time>2019-05-25T08:47:31.000Z</time>
      </trkpt>
      <trkpt lat="45.67918" lon="4.83104">
        <ele>159.87</ele>
        <time>2019-05-25T08:47:36.000Z</time>
      </trkpt>
      <trkpt lat="45.67884" lon="4.83121">
        <ele>160.04</ele>
        <time>2019-05-25T08:47:41.000Z</time>
      </trkpt>
      <trkpt lat="45.67852" lon="4.8313">
        <ele>161.55</ele>
        <time>2019-05-25T08:47:46.000Z</time>
      </trkpt>
      <trkpt lat="45.67822" lon="4.83136">
        <ele>164.07</ele>
        <time>2019-05-25T08:47:51.000Z</time>
      </trkpt>
      <trkpt lat="45.67796" lon="4.83135">
        <ele>165.07</ele>
        <time>2019-05-25T08:47:56.000Z</time>
      </trkpt>
      <trkpt lat="45.67769" lon="4.83131">
        <ele>167.04</ele>
        <time>2019-05-25T08:48:01.000Z</time>
      </trkpt>
      <trkpt lat="45.67741" lon="4.83126">
        <ele>166.12</ele>
        <time>2019-05-25T08:48:06.000Z</time>
      </trkpt>
      <trkpt lat="45.6771" lon="4.83117">
        <ele>166.06</ele>
        <time>2019-05-25T08:48:11.000Z</time>
      </trkpt>
      <trkpt lat="45.67677" lon="4.8311">
        <ele>166.01</ele>
        <time>2019-05-25T08:48:16.000Z</time>
      </trkpt>
      <trkpt lat="45.67645" lon="4.83101">
        <ele>165.3</ele>
        <time>2019-05-25T08:48:21.000Z</time>
      </trkpt>
      <trkpt lat="45.67612" lon="4.83091">
        <ele>164.07</ele>
        <time>2019-05-25T08:48:26.000Z</time>
      </trkpt>
      <trkpt lat="45.67579" lon="4.83086">
        <ele>165.05</ele>
        <time>2019-05-25T08:48:31.000Z</time>
      </trkpt>
      <trkpt lat="45.67547" lon="4.83082">
        <ele>165.8</ele>
        <time>2019-05-25T08:48:36.000Z</time>
      </trkpt>
      <trkpt lat="45.6752" lon="4.83079">
        <ele>168.72</ele>
        <time>2019-05-25T08:48:41.000Z</time>
      </trkpt>
      <trkpt lat="45.67495" lon="4.83074">
        <ele>171.8</ele>
        <time>2019-05-25T08:48:46.000Z</time>
      </trkpt>
      <trkpt lat="45.67473" lon="4.83073">
        <ele>173.99</ele>
        <time>2019-05-25T08:48:51.000Z</time>
      </trkpt>
      <trkpt lat="45.67453" lon="4.83069">
        <ele>174.07</ele>
        <time>2019-05-25T08:48:56.000Z</time>
      </trkpt>
      <trkpt lat="45.67437" lon="4.83067">
        <ele>178.73</ele>
        <time>2019-05-25T08:49:01.000Z</time>
      </trkpt>
      <trkpt lat="45.6742" lon="4.83055">
        <ele>176.3</ele>
        <time>2019-05-25T08:49:06.000Z</time>
      </trkpt>
      <trkpt lat="45.67404" lon="4.83046">
        <ele>177.73</ele>
        <time>2019-05-25T08:49:11.000Z</time>
      </trkpt>
      <trkpt lat="45.67381" lon="4.83036">
        <ele>177.13</ele>
        <time>2019-05-25T08:49:16.000Z</time>
      </trkpt>
      <trkpt lat="45.6736" lon="4.83021">
        <ele>176.06</ele>
        <time>2019-05-25T08:49:21.000Z</time>
      </trkpt>
      <trkpt lat="45.67339" lon="4.83006">
        <ele>175.04</ele>
        <time>2019-05-25T08:49:26.000Z</time>
      </trkpt>
      <trkpt lat="45.67319" lon="4.82994">
        <ele>175.22</ele>
        <time>2019-05-25T08:49:31.000Z</time>
      </trkpt>
      <trkpt lat="45.673" lon="4.82982">
        <ele>175.86</ele>
        <time>2019-05-25T08:49:36.000Z</time>
      </trkpt>
      <trkpt lat="45.67291" lon="4.82974">
        <ele>176.05</ele>
        <time>2019-05-25T08:49:41.000Z</time>
      </trkpt>
      <trkpt lat="45.6728" lon="4.82969">
        <ele>178.22</ele>
        <time>2019-05-25T08:50:03.000Z</time>
      </trkpt>
      <trkpt lat="45.67272" lon="4.82953">
        <ele>177.05</ele>
        <time>2019-05-25T08:50:08.000Z</time>
      </trkpt>
      <trkpt lat="45.67263" lon="4.82961">
        <ele>175.99</ele>
        <time>2019-05-25T08:50:13.000Z</time>
      </trkpt>
      <trkpt lat="45.67241" lon="4.82945">
        <ele>175.23</ele>
        <time>2019-05-25T08:50:18.000Z</time>
      </trkpt>
      <trkpt lat="45.67219" lon="4.82928">
        <ele>174.1</ele>
        <time>2019-05-25T08:50:23.000Z</time>
      </trkpt>
      <trkpt lat="45.67194" lon="4.82914">
        <ele>176.12</ele>
        <time>2019-05-25T08:50:28.000Z</time>
      </trkpt>
      <trkpt lat="45.67171" lon="4.82896">
        <ele>177.04</ele>
        <time>2019-05-25T08:50:33.000Z</time>
      </trkpt>
      <trkpt lat="45.67144" lon="4.82883">
        <ele>177.04</ele>
        <time>2019-05-25T08:50:38.000Z</time>
      </trkpt>
      <trkpt lat="45.6712" lon="4.82874">
        <ele>178.04</ele>
        <time>2019-05-25T08:50:43.000Z</time>
      </trkpt>
      <trkpt lat="45.67095" lon="4.82866">
        <ele>179.04</ele>
        <time>2019-05-25T08:50:48.000Z</time>
      </trkpt>
      <trkpt lat="45.67071" lon="4.82863">
        <ele>181.96</ele>
        <time>2019-05-25T08:50:53.000Z</time>
      </trkpt>
      <trkpt lat="45.67043" lon="4.82856">
        <ele>181.06</ele>
        <time>2019-05-25T08:50:58.000Z</time>
      </trkpt>
      <trkpt lat="45.67015" lon="4.82854">
        <ele>181.98</ele>
        <time>2019-05-25T08:51:03.000Z</time>
      </trkpt>
      <trkpt lat="45.66985" lon="4.8285">
        <ele>182.04</ele>
        <time>2019-05-25T08:51:08.000Z</time>
      </trkpt>
      <trkpt lat="45.66956" lon="4.82843">
        <ele>181.29</ele>
        <time>2019-05-25T08:51:13.000Z</time>
      </trkpt>
      <trkpt lat="45.66923" lon="4.82839">
        <ele>180.29</ele>
        <time>2019-05-25T08:51:18.000Z</time>
      </trkpt>
      <trkpt lat="45.66887" lon="4.82836">
        <ele>180.27</ele>
        <time>2019-05-25T08:51:23.000Z</time>
      </trkpt>
      <trkpt lat="45.66851" lon="4.82836">
        <ele>180.05</ele>
        <time>2019-05-25T08:51:28.000Z</time>
      </trkpt>
      <trkpt lat="45.66812" lon="4.82841">
        <ele>180.79</ele>
        <time>2019-05-25T08:51:33.000Z</time>
      </trkpt>
      <trkpt lat="45.66777" lon="4.82833">
        <ele>178.05</ele>
        <time>2019-05-25T08:51:38.000Z</time>
      </trkpt>
      <trkpt lat="45.66742" lon="4.82819">
        <ele>178.79</ele>
        <time>2019-05-25T08:51:43.000Z</time>
      </trkpt>
      <trkpt lat="45.66708" lon="4.82804">
        <ele>178.04</ele>
        <time>2019-05-25T08:51:48.000Z</time>
      </trkpt>
      <trkpt lat="45.66677" lon="4.82784">
        <ele>179.03</ele>
        <time>2019-05-25T08:51:53.000Z</time>
      </trkpt>
      <trkpt lat="45.66651" lon="4.82761">
        <ele>178.16</ele>
        <time>2019-05-25T08:51:58.000Z</time>
      </trkpt>
      <trkpt lat="45.66626" lon="4.82738">
        <ele>178.98</ele>
        <time>2019-05-25T08:52:03.000Z</time>
      </trkpt>
      <trkpt lat="45.666" lon="4.82713">
        <ele>179.98</ele>
        <time>2019-05-25T08:52:08.000Z</time>
      </trkpt>
      <trkpt lat="45.66574" lon="4.82685">
        <ele>179.28</ele>
        <time>2019-05-25T08:52:13.000Z</time>
      </trkpt>
      <trkpt lat="45.66546" lon="4.82656">
        <ele>178.28</ele>
        <time>2019-05-25T08:52:18.000Z</time>
      </trkpt>
      <trkpt lat="45.66522" lon="4.82624">
        <ele>175.86</ele>
        <time>2019-05-25T08:52:23.000Z</time>
      </trkpt>
      <trkpt lat="45.66494" lon="4.82612">
        <ele>174.15</ele>
        <time>2019-05-25T08:52:28.000Z</time>
      </trkpt>
      <trkpt lat="45.66463" lon="4.82602">
        <ele>175.78</ele>
        <time>2019-05-25T08:52:33.000Z</time>
      </trkpt>
      <trkpt lat="45.66432" lon="4.82585">
        <ele>177.01</ele>
        <time>2019-05-25T08:52:38.000Z</time>
      </trkpt>
      <trkpt lat="45.66399" lon="4.82569">
        <ele>175.28</ele>
        <time>2019-05-25T08:52:43.000Z</time>
      </trkpt>
      <trkpt lat="45.66368" lon="4.82554">
        <ele>176.01</ele>
        <time>2019-05-25T08:52:48.000Z</time>
      </trkpt>
      <trkpt lat="45.66336" lon="4.82538">
        <ele>176.04</ele>
        <time>2019-05-25T08:52:53.000Z</time>
      </trkpt>
      <trkpt lat="45.66304" lon="4.82518">
        <ele>176.02</ele>
        <time>2019-05-25T08:52:58.000Z</time>
      </trkpt>
      <trkpt lat="45.66272" lon="4.82495">
        <ele>175.27</ele>
        <time>2019-05-25T08:53:03.000Z</time>
      </trkpt>
      <trkpt lat="45.66242" lon="4.8247">
        <ele>175.02</ele>
        <time>2019-05-25T08:53:08.000Z</time>
      </trkpt>
      <trkpt lat="45.66213" lon="4.82448">
        <ele>175.02</ele>
        <time>2019-05-25T08:53:13.000Z</time>
      </trkpt>
      <trkpt lat="45.66181" lon="4.82425">
        <ele>174.27</ele>
        <time>2019-05-25T08:53:18.000Z</time>
      </trkpt>
      <trkpt lat="45.6615" lon="4.82401">
        <ele>172.08</ele>
        <time>2019-05-25T08:53:23.000Z</time>
      </trkpt>
      <trkpt lat="45.66119" lon="4.82379">
        <ele>174.01</ele>
        <time>2019-05-25T08:53:28.000Z</time>
      </trkpt>
      <trkpt lat="45.66094" lon="4.82349">
        <ele>173.03</ele>
        <time>2019-05-25T08:53:33.000Z</time>
      </trkpt>
      <trkpt lat="45.66072" lon="4.8232">
        <ele>173.02</ele>
        <time>2019-05-25T08:53:38.000Z</time>
      </trkpt>
      <trkpt lat="45.6605" lon="4.82291">
        <ele>173.01</ele>
        <time>2019-05-25T08:53:43.000Z</time>
      </trkpt>
      <trkpt lat="45.66026" lon="4.82262">
        <ele>172.26</ele>
        <time>2019-05-25T08:53:48.000Z</time>
      </trkpt>
      <trkpt lat="45.66004" lon="4.82234">
        <ele>171.26</ele>
        <time>2019-05-25T08:53:53.000Z</time>
      </trkpt>
      <trkpt lat="45.65983" lon="4.82207">
        <ele>171.01</ele>
        <time>2019-05-25T08:53:58.000Z</time>
      </trkpt>
      <trkpt lat="45.65962" lon="4.82183">
        <ele>171.76</ele>
        <time>2019-05-25T08:54:03.000Z</time>
      </trkpt>
      <trkpt lat="45.65943" lon="4.82157">
        <ele>171.01</ele>
        <time>2019-05-25T08:54:08.000Z</time>
      </trkpt>
      <trkpt lat="45.65924" lon="4.82133">
        <ele>171.96</ele>
        <time>2019-05-25T08:54:13.000Z</time>
      </trkpt>
      <trkpt lat="45.65903" lon="4.82109">
        <ele>173.76</ele>
        <time>2019-05-25T08:54:18.000Z</time>
      </trkpt>
      <trkpt lat="45.65884" lon="4.82086">
        <ele>174.01</ele>
        <time>2019-05-25T08:54:23.000Z</time>
      </trkpt>
      <trkpt lat="45.65866" lon="4.82064">
        <ele>179.49</ele>
        <time>2019-05-25T08:54:28.000Z</time>
      </trkpt>
      <trkpt lat="45.65848" lon="4.82043">
        <ele>177.03</ele>
        <time>2019-05-25T08:54:33.000Z</time>
      </trkpt>
      <trkpt lat="45.65829" lon="4.82022">
        <ele>176.76</ele>
        <time>2019-05-25T08:54:38.000Z</time>
      </trkpt>
      <trkpt lat="45.65811" lon="4.82002">
        <ele>177.95</ele>
        <time>2019-05-25T08:54:43.000Z</time>
      </trkpt>
      <trkpt lat="45.65795" lon="4.81983">
        <ele>178.05</ele>
        <time>2019-05-25T08:54:48.000Z</time>
      </trkpt>
      <trkpt lat="45.65777" lon="4.81961">
        <ele>177.5</ele>
        <time>2019-05-25T08:54:53.000Z</time>
      </trkpt>
      <trkpt lat="45.65758" lon="4.81939">
        <ele>176.99</ele>
        <time>2019-05-25T08:54:58.000Z</time>
      </trkpt>
      <trkpt lat="45.65739" lon="4.81917">
        <ele>178.75</ele>
        <time>2019-05-25T08:55:03.000Z</time>
      </trkpt>
      <trkpt lat="45.65717" lon="4.81893">
        <ele>179.75</ele>
        <time>2019-05-25T08:55:08.000Z</time>
      </trkpt>
      <trkpt lat="45.65697" lon="4.81869">
        <ele>179.75</ele>
        <time>2019-05-25T08:55:13.000Z</time>
      </trkpt>
      <trkpt lat="45.65674" lon="4.81846">
        <ele>179.94</ele>
        <time>2019-05-25T08:55:18.000Z</time>
      </trkpt>
      <trkpt lat="45.65654" lon="4.81825">
        <ele>180.95</ele>
        <time>2019-05-25T08:55:23.000Z</time>
      </trkpt>
      <trkpt lat="45.65634" lon="4.81805">
        <ele>181.99</ele>
        <time>2019-05-25T08:55:28.000Z</time>
      </trkpt>
      <trkpt lat="45.65614" lon="4.81785">
        <ele>184.99</ele>
        <time>2019-05-25T08:55:33.000Z</time>
      </trkpt>
      <trkpt lat="45.65596" lon="4.81759">
        <ele>183.75</ele>
        <time>2019-05-25T08:55:38.000Z</time>
      </trkpt>
      <trkpt lat="45.65579" lon="4.81736">
        <ele>183</ele>
        <time>2019-05-25T08:55:43.000Z</time>
      </trkpt>
      <trkpt lat="45.65564" lon="4.81708">
        <ele>182.48</ele>
        <time>2019-05-25T08:55:48.000Z</time>
      </trkpt>
      <trkpt lat="45.65552" lon="4.81679">
        <ele>181.7</ele>
        <time>2019-05-25T08:55:53.000Z</time>
      </trkpt>
      <trkpt lat="45.65541" lon="4.81638">
        <ele>181.07</ele>
        <time>2019-05-25T08:55:58.000Z</time>
      </trkpt>
      <trkpt lat="45.65524" lon="4.81595">
        <ele>180.92</ele>
        <time>2019-05-25T08:56:03.000Z</time>
      </trkpt>
      <trkpt lat="45.65496" lon="4.81562">
        <ele>180.05</ele>
        <time>2019-05-25T08:56:08.000Z</time>
      </trkpt>
      <trkpt lat="45.65462" lon="4.81564">
        <ele>179.76</ele>
        <time>2019-05-25T08:56:13.000Z</time>
      </trkpt>
      <trkpt lat="45.65428" lon="4.81565">
        <ele>181.68</ele>
        <time>2019-05-25T08:56:18.000Z</time>
      </trkpt>
      <trkpt lat="45.65402" lon="4.81559">
        <ele>182.03</ele>
        <time>2019-05-25T08:56:23.000Z</time>
      </trkpt>
      <trkpt lat="45.65383" lon="4.8154">
        <ele>182.98</ele>
        <time>2019-05-25T08:56:28.000Z</time>
      </trkpt>
      <trkpt lat="45.65366" lon="4.81523">
        <ele>184.96</ele>
        <time>2019-05-25T08:56:33.000Z</time>
      </trkpt>
      <trkpt lat="45.65347" lon="4.81497">
        <ele>184.05</ele>
        <time>2019-05-25T08:56:38.000Z</time>
      </trkpt>
      <trkpt lat="45.65327" lon="4.81468">
        <ele>182.8</ele>
        <time>2019-05-25T08:56:43.000Z</time>
      </trkpt>
      <trkpt lat="45.65306" lon="4.81439">
        <ele>182.92</ele>
        <time>2019-05-25T08:56:48.000Z</time>
      </trkpt>
      <trkpt lat="45.65283" lon="4.81406">
        <ele>181.25</ele>
        <time>2019-05-25T08:56:53.000Z</time>
      </trkpt>
      <trkpt lat="45.65257" lon="4.81373">
        <ele>179.05</ele>
        <time>2019-05-25T08:56:58.000Z</time>
      </trkpt>
      <trkpt lat="45.65226" lon="4.81344">
        <ele>178.98</ele>
        <time>2019-05-25T08:57:03.000Z</time>
      </trkpt>
      <trkpt lat="45.65191" lon="4.81325">
        <ele>180.73</ele>
        <time>2019-05-25T08:57:08.000Z</time>
      </trkpt>
      <trkpt lat="45.65155" lon="4.81305">
        <ele>179.99</ele>
        <time>2019-05-25T08:57:13.000Z</time>
      </trkpt>
      <trkpt lat="45.65121" lon="4.81286">
        <ele>176.24</ele>
        <time>2019-05-25T08:57:18.000Z</time>
      </trkpt>
      <trkpt lat="45.65086" lon="4.81269">
        <ele>176.93</ele>
        <time>2019-05-25T08:57:23.000Z</time>
      </trkpt>
      <trkpt lat="45.65053" lon="4.81249">
        <ele>177.23</ele>
        <time>2019-05-25T08:57:28.000Z</time>
      </trkpt>
      <trkpt lat="45.65024" lon="4.81227">
        <ele>177.98</ele>
        <time>2019-05-25T08:57:33.000Z</time>
      </trkpt>
      <trkpt lat="45.65005" lon="4.81202">
        <ele>175.99</ele>
        <time>2019-05-25T08:57:38.000Z</time>
      </trkpt>
      <trkpt lat="45.6498" lon="4.81203">
        <ele>176.03</ele>
        <time>2019-05-25T08:57:43.000Z</time>
      </trkpt>
      <trkpt lat="45.64954" lon="4.81197">
        <ele>177.98</ele>
        <time>2019-05-25T08:57:48.000Z</time>
      </trkpt>
      <trkpt lat="45.64927" lon="4.81197">
        <ele>179.91</ele>
        <time>2019-05-25T08:57:53.000Z</time>
      </trkpt>
      <trkpt lat="45.64895" lon="4.81202">
        <ele>178.23</ele>
        <time>2019-05-25T08:57:58.000Z</time>
      </trkpt>
      <trkpt lat="45.6486" lon="4.81204">
        <ele>178.49</ele>
        <time>2019-05-25T08:58:03.000Z</time>
      </trkpt>
      <trkpt lat="45.64828" lon="4.812">
        <ele>176.24</ele>
        <time>2019-05-25T08:58:08.000Z</time>
      </trkpt>
      <trkpt lat="45.64795" lon="4.81195">
        <ele>176.21</ele>
        <time>2019-05-25T08:58:13.000Z</time>
      </trkpt>
      <trkpt lat="45.6477" lon="4.81188">
        <ele>174.05</ele>
        <time>2019-05-25T08:58:18.000Z</time>
      </trkpt>
      <trkpt lat="45.64755" lon="4.81197">
        <ele>175.04</ele>
        <time>2019-05-25T08:58:23.000Z</time>
      </trkpt>
      <trkpt lat="45.64748" lon="4.81212">
        <ele>172.03</ele>
        <time>2019-05-25T08:58:28.000Z</time>
      </trkpt>
      <trkpt lat="45.64745" lon="4.81228">
        <ele>171.94</ele>
        <time>2019-05-25T08:58:33.000Z</time>
      </trkpt>
      <trkpt lat="45.64741" lon="4.81255">
        <ele>172.97</ele>
        <time>2019-05-25T08:58:38.000Z</time>
      </trkpt>
      <trkpt lat="45.64738" lon="4.8129">
        <ele>169.04</ele>
        <time>2019-05-25T08:58:43.000Z</time>
      </trkpt>
      <trkpt lat="45.64732" lon="4.81302">
        <ele>169.02</ele>
        <time>2019-05-25T08:58:55.000Z</time>
      </trkpt>
      <trkpt lat="45.6473" lon="4.81319">
        <ele>168.22</ele>
        <time>2019-05-25T08:59:00.000Z</time>
      </trkpt>
      <trkpt lat="45.64719" lon="4.81339">
        <ele>168.22</ele>
        <time>2019-05-25T08:59:05.000Z</time>
      </trkpt>
      <trkpt lat="45.64708" lon="4.81377">
        <ele>165.08</ele>
        <time>2019-05-25T08:59:10.000Z</time>
      </trkpt>
      <trkpt lat="45.64701" lon="4.81424">
        <ele>164.04</ele>
        <time>2019-05-25T08:59:15.000Z</time>
      </trkpt>
      <trkpt lat="45.64689" lon="4.81457">
        <ele>163.41</ele>
        <time>2019-05-25T08:59:20.000Z</time>
      </trkpt>
      <trkpt lat="45.6467" lon="4.81484">
        <ele>164.66</ele>
        <time>2019-05-25T08:59:25.000Z</time>
      </trkpt>
      <trkpt lat="45.64653" lon="4.81507">
        <ele>166.96</ele>
        <time>2019-05-25T08:59:30.000Z</time>
      </trkpt>
      <trkpt lat="45.64634" lon="4.81534">
        <ele>164.05</ele>
        <time>2019-05-25T08:59:35.000Z</time>
      </trkpt>
      <trkpt lat="45.64617" lon="4.8156">
        <ele>165.96</ele>
        <time>2019-05-25T08:59:40.000Z</time>
      </trkpt>
      <trkpt lat="45.646" lon="4.81584">
        <ele>165.98</ele>
        <time>2019-05-25T08:59:45.000Z</time>
      </trkpt>
      <trkpt lat="45.64582" lon="4.81608">
        <ele>165.98</ele>
        <time>2019-05-25T08:59:50.000Z</time>
      </trkpt>
      <trkpt lat="45.64564" lon="4.81637">
        <ele>165.73</ele>
        <time>2019-05-25T08:59:55.000Z</time>
      </trkpt>
      <trkpt lat="45.64545" lon="4.81671">
        <ele>166.67</ele>
        <time>2019-05-25T09:00:00.000Z</time>
      </trkpt>
      <trkpt lat="45.64521" lon="4.81698">
        <ele>167.68</ele>
        <time>2019-05-25T09:00:05.000Z</time>
      </trkpt>
      <trkpt lat="45.64493" lon="4.81728">
        <ele>166.04</ele>
        <time>2019-05-25T09:00:10.000Z</time>
      </trkpt>
      <trkpt lat="45.64474" lon="4.81769">
        <ele>165.23</ele>
        <time>2019-05-25T09:00:15.000Z</time>
      </trkpt>
      <trkpt lat="45.64456" lon="4.81797">
        <ele>162.99</ele>
        <time>2019-05-25T09:00:20.000Z</time>
      </trkpt>
      <trkpt lat="45.64438" lon="4.81824">
        <ele>161</ele>
        <time>2019-05-25T09:00:25.000Z</time>
      </trkpt>
      <trkpt lat="45.64425" lon="4.8185">
        <ele>158.02</ele>
        <time>2019-05-25T09:00:30.000Z</time>
      </trkpt>
      <trkpt lat="45.64418" lon="4.8189">
        <ele>157.79</ele>
        <time>2019-05-25T09:00:35.000Z</time>
      </trkpt>
      <trkpt lat="45.64422" lon="4.81945">
        <ele>158.07</ele>
        <time>2019-05-25T09:00:40.000Z</time>
      </trkpt>
      <trkpt lat="45.64428" lon="4.81995">
        <ele>154.36</ele>
        <time>2019-05-25T09:00:45.000Z</time>
      </trkpt>
      <trkpt lat="45.64441" lon="4.82047">
        <ele>152.3</ele>
        <time>2019-05-25T09:00:50.000Z</time>
      </trkpt>
      <trkpt lat="45.64448" lon="4.82091">
        <ele>152.05</ele>
        <time>2019-05-25T09:00:55.000Z</time>
      </trkpt>
      <trkpt lat="45.64456" lon="4.82137">
        <ele>154.98</ele>
        <time>2019-05-25T09:01:00.000Z</time>
      </trkpt>
      <trkpt lat="45.64459" lon="4.82176">
        <ele>158.65</ele>
        <time>2019-05-25T09:01:05.000Z</time>
      </trkpt>
      <trkpt lat="45.64452" lon="4.82214">
        <ele>158.41</ele>
        <time>2019-05-25T09:01:10.000Z</time>
      </trkpt>
      <trkpt lat="45.64443" lon="4.82249">
        <ele>158.93</ele>
        <time>2019-05-25T09:01:15.000Z</time>
      </trkpt>
      <trkpt lat="45.64431" lon="4.82271">
        <ele>159.99</ele>
        <time>2019-05-25T09:01:20.000Z</time>
      </trkpt>
      <trkpt lat="45.64425" lon="4.82283">
        <ele>160.8</ele>
        <time>2019-05-25T09:01:25.000Z</time>
      </trkpt>
      <trkpt lat="45.64431" lon="4.82294">
        <ele>161.82</ele>
        <time>2019-05-25T09:01:30.000Z</time>
      </trkpt>
      <trkpt lat="45.64427" lon="4.82308">
        <ele>162.1</ele>
        <time>2019-05-25T09:01:35.000Z</time>
      </trkpt>
      <trkpt lat="45.64413" lon="4.82326">
        <ele>162.8</ele>
        <time>2019-05-25T09:01:40.000Z</time>
      </trkpt>
      <trkpt lat="45.644" lon="4.82339">
        <ele>159.56</ele>
        <time>2019-05-25T09:01:45.000Z</time>
      </trkpt>
      <trkpt lat="45.64397" lon="4.82352">
        <ele>163.67</ele>
        <time>2019-05-25T09:02:49.000Z</time>
      </trkpt>
      <trkpt lat="45.64391" lon="4.82376">
        <ele>165.68</ele>
        <time>2019-05-25T09:02:54.000Z</time>
      </trkpt>
      <trkpt lat="45.64382" lon="4.82406">
        <ele>165.19</ele>
        <time>2019-05-25T09:02:59.000Z</time>
      </trkpt>
      <trkpt lat="45.6437" lon="4.82431">
        <ele>166.74</ele>
        <time>2019-05-25T09:03:04.000Z</time>
      </trkpt>
      <trkpt lat="45.64355" lon="4.82462">
        <ele>166.99</ele>
        <time>2019-05-25T09:03:09.000Z</time>
      </trkpt>
      <trkpt lat="45.6434" lon="4.8249">
        <ele>165.06</ele>
        <time>2019-05-25T09:03:14.000Z</time>
      </trkpt>
      <trkpt lat="45.64327" lon="4.82533">
        <ele>165.98</ele>
        <time>2019-05-25T09:03:19.000Z</time>
      </trkpt>
      <trkpt lat="45.64311" lon="4.82568">
        <ele>164.31</ele>
        <time>2019-05-25T09:03:24.000Z</time>
      </trkpt>
      <trkpt lat="45.64296" lon="4.82603">
        <ele>164.92</ele>
        <time>2019-05-25T09:03:29.000Z</time>
      </trkpt>
      <trkpt lat="45.64277" lon="4.82612">
        <ele>161.26</ele>
        <time>2019-05-25T09:03:34.000Z</time>
      </trkpt>
      <trkpt lat="45.64267" lon="4.82595">
        <ele>160.95</ele>
        <time>2019-05-25T09:03:39.000Z</time>
      </trkpt>
      <trkpt lat="45.64276" lon="4.82574">
        <ele>161</ele>
        <time>2019-05-25T09:03:44.000Z</time>
      </trkpt>
      <trkpt lat="45.64288" lon="4.82561">
        <ele>159.95</ele>
        <time>2019-05-25T09:03:49.000Z</time>
      </trkpt>
      <trkpt lat="45.643" lon="4.82542">
        <ele>160.92</ele>
        <time>2019-05-25T09:03:54.000Z</time>
      </trkpt>
      <trkpt lat="45.64297" lon="4.8252">
        <ele>161.01</ele>
        <time>2019-05-25T09:03:59.000Z</time>
      </trkpt>
      <trkpt lat="45.64284" lon="4.82506">
        <ele>160.01</ele>
        <time>2019-05-25T09:04:04.000Z</time>
      </trkpt>
      <trkpt lat="45.64267" lon="4.82498">
        <ele>160.99</ele>
        <time>2019-05-25T09:04:09.000Z</time>
      </trkpt>
      <trkpt lat="45.64248" lon="4.82485">
        <ele>159.95</ele>
        <time>2019-05-25T09:04:14.000Z</time>
      </trkpt>
      <trkpt lat="45.64229" lon="4.82466">
        <ele>159.99</ele>
        <time>2019-05-25T09:04:19.000Z</time>
      </trkpt>
      <trkpt lat="45.64205" lon="4.82447">
        <ele>156.01</ele>
        <time>2019-05-25T09:04:24.000Z</time>
      </trkpt>
      <trkpt lat="45.64184" lon="4.82427">
        <ele>156.99</ele>
        <time>2019-05-25T09:04:29.000Z</time>
      </trkpt>
      <trkpt lat="45.64159" lon="4.82409">
        <ele>153.1</ele>
        <time>2019-05-25T09:04:34.000Z</time>
      </trkpt>
      <trkpt lat="45.64138" lon="4.82389">
        <ele>152.24</ele>
        <time>2019-05-25T09:04:39.000Z</time>
      </trkpt>
      <trkpt lat="45.64115" lon="4.82368">
        <ele>153.74</ele>
        <time>2019-05-25T09:04:44.000Z</time>
      </trkpt>
      <trkpt lat="45.6409" lon="4.82345">
        <ele>153.24</ele>
        <time>2019-05-25T09:04:49.000Z</time>
      </trkpt>
      <trkpt lat="45.64065" lon="4.82322">
        <ele>153.61</ele>
        <time>2019-05-25T09:04:54.000Z</time>
      </trkpt>
      <trkpt lat="45.64042" lon="4.82304">
        <ele>153.24</ele>
        <time>2019-05-25T09:04:59.000Z</time>
      </trkpt>
      <trkpt lat="45.64018" lon="4.82288">
        <ele>153.74</ele>
        <time>2019-05-25T09:05:04.000Z</time>
      </trkpt>
      <trkpt lat="45.63993" lon="4.82269">
        <ele>154.74</ele>
        <time>2019-05-25T09:05:09.000Z</time>
      </trkpt>
      <trkpt lat="45.63969" lon="4.82249">
        <ele>155.97</ele>
        <time>2019-05-25T09:05:14.000Z</time>
      </trkpt>
      <trkpt lat="45.63947" lon="4.82228">
        <ele>156.92</ele>
        <time>2019-05-25T09:05:19.000Z</time>
      </trkpt>
      <trkpt lat="45.63925" lon="4.82208">
        <ele>156.05</ele>
        <time>2019-05-25T09:05:24.000Z</time>
      </trkpt>
      <trkpt lat="45.63909" lon="4.82191">
        <ele>156.67</ele>
        <time>2019-05-25T09:05:29.000Z</time>
      </trkpt>
      <trkpt lat="45.63899" lon="4.82178">
        <ele>156.97</ele>
        <time>2019-05-25T09:05:34.000Z</time>
      </trkpt>
      <trkpt lat="45.63884" lon="4.82172">
        <ele>154.99</ele>
        <time>2019-05-25T09:05:39.000Z</time>
      </trkpt>
      <trkpt lat="45.63866" lon="4.82157">
        <ele>154.79</ele>
        <time>2019-05-25T09:05:44.000Z</time>
      </trkpt>
      <trkpt lat="45.63845" lon="4.82139">
        <ele>154.98</ele>
        <time>2019-05-25T09:05:49.000Z</time>
      </trkpt>
      <trkpt lat="45.63822" lon="4.82121">
        <ele>154.98</ele>
        <time>2019-05-25T09:05:54.000Z</time>
      </trkpt>
      <trkpt lat="45.63797" lon="4.82103">
        <ele>155.92</ele>
        <time>2019-05-25T09:05:59.000Z</time>
      </trkpt>
      <trkpt lat="45.63775" lon="4.82084">
        <ele>157.73</ele>
        <time>2019-05-25T09:06:04.000Z</time>
      </trkpt>
      <trkpt lat="45.63751" lon="4.82062">
        <ele>159.21</ele>
        <time>2019-05-25T09:06:09.000Z</time>
      </trkpt>
      <trkpt lat="45.63727" lon="4.82042">
        <ele>157.85</ele>
        <time>2019-05-25T09:06:14.000Z</time>
      </trkpt>
      <trkpt lat="45.63706" lon="4.82024">
        <ele>156.75</ele>
        <time>2019-05-25T09:06:19.000Z</time>
      </trkpt>
      <trkpt lat="45.63686" lon="4.82009">
        <ele>156.73</ele>
        <time>2019-05-25T09:06:24.000Z</time>
      </trkpt>
      <trkpt lat="45.63672" lon="4.81992">
        <ele>154.98</ele>
        <time>2019-05-25T09:06:29.000Z</time>
      </trkpt>
      <trkpt lat="45.63659" lon="4.81973">
        <ele>154.23</ele>
        <time>2019-05-25T09:06:34.000Z</time>
      </trkpt>
      <trkpt lat="45.63636" lon="4.81953">
        <ele>153.97</ele>
        <time>2019-05-25T09:06:39.000Z</time>
      </trkpt>
      <trkpt lat="45.63617" lon="4.81936">
        <ele>154.68</ele>
        <time>2019-05-25T09:06:44.000Z</time>
      </trkpt>
      <trkpt lat="45.63591" lon="4.81912">
        <ele>152.99</ele>
        <time>2019-05-25T09:06:49.000Z</time>
      </trkpt>
      <trkpt lat="45.63575" lon="4.819">
        <ele>152.98</ele>
        <time>2019-05-25T09:06:54.000Z</time>
      </trkpt>
      <trkpt lat="45.63554" lon="4.81888">
        <ele>154.72</ele>
        <time>2019-05-25T09:06:59.000Z</time>
      </trkpt>
      <trkpt lat="45.63534" lon="4.81879">
        <ele>154.66</ele>
        <time>2019-05-25T09:07:04.000Z</time>
      </trkpt>
      <trkpt lat="45.63516" lon="4.81871">
        <ele>152.49</ele>
        <time>2019-05-25T09:07:09.000Z</time>
      </trkpt>
      <trkpt lat="45.63497" lon="4.81853">
        <ele>151.87</ele>
        <time>2019-05-25T09:07:14.000Z</time>
      </trkpt>
      <trkpt lat="45.63476" lon="4.8184">
        <ele>151.72</ele>
        <time>2019-05-25T09:07:19.000Z</time>
      </trkpt>
      <trkpt lat="45.63457" lon="4.81817">
        <ele>150.22</ele>
        <time>2019-05-25T09:07:24.000Z</time>
      </trkpt>
      <trkpt lat="45.63439" lon="4.81805">
        <ele>150.78</ele>
        <time>2019-05-25T09:07:29.000Z</time>
      </trkpt>
      <trkpt lat="45.63424" lon="4.81794">
        <ele>152.03</ele>
        <time>2019-05-25T09:07:34.000Z</time>
      </trkpt>
      <trkpt lat="45.63406" lon="4.8178">
        <ele>151.92</ele>
        <time>2019-05-25T09:07:39.000Z</time>
      </trkpt>
      <trkpt lat="45.63384" lon="4.81767">
        <ele>153.72</ele>
        <time>2019-05-25T09:07:44.000Z</time>
      </trkpt>
      <trkpt lat="45.63367" lon="4.81755">
        <ele>150.99</ele>
        <time>2019-05-25T09:07:49.000Z</time>
      </trkpt>
      <trkpt lat="45.6335" lon="4.8174">
        <ele>151.64</ele>
        <time>2019-05-25T09:07:54.000Z</time>
      </trkpt>
      <trkpt lat="45.63323" lon="4.8173">
        <ele>146.42</ele>
        <time>2019-05-25T09:07:59.000Z</time>
      </trkpt>
      <trkpt lat="45.633" lon="4.81713">
        <ele>146.96</ele>
        <time>2019-05-25T09:08:04.000Z</time>
      </trkpt>
      <trkpt lat="45.63282" lon="4.81698">
        <ele>149.72</ele>
        <time>2019-05-25T09:08:09.000Z</time>
      </trkpt>
      <trkpt lat="45.63264" lon="4.81682">
        <ele>152.58</ele>
        <time>2019-05-25T09:08:14.000Z</time>
      </trkpt>
      <trkpt lat="45.63235" lon="4.81674">
        <ele>150.95</ele>
        <time>2019-05-25T09:08:19.000Z</time>
      </trkpt>
      <trkpt lat="45.63224" lon="4.81669">
        <ele>152.95</ele>
        <time>2019-05-25T09:08:25.000Z</time>
      </trkpt>
      <trkpt lat="45.63211" lon="4.81662">
        <ele>153.71</ele>
        <time>2019-05-25T09:08:30.000Z</time>
      </trkpt>
      <trkpt lat="45.63197" lon="4.8165">
        <ele>154.96</ele>
        <time>2019-05-25T09:08:35.000Z</time>
      </trkpt>
      <trkpt lat="45.63178" lon="4.81641">
        <ele>155.21</ele>
        <time>2019-05-25T09:08:40.000Z</time>
      </trkpt>
      <trkpt lat="45.63155" lon="4.81628">
        <ele>152.85</ele>
        <time>2019-05-25T09:08:45.000Z</time>
      </trkpt>
      <trkpt lat="45.63129" lon="4.81617">
        <ele>153.19</ele>
        <time>2019-05-25T09:08:50.000Z</time>
      </trkpt>
      <trkpt lat="45.63108" lon="4.81603">
        <ele>154</ele>
        <time>2019-05-25T09:08:55.000Z</time>
      </trkpt>
      <trkpt lat="45.63082" lon="4.81588">
        <ele>153.33</ele>
        <time>2019-05-25T09:09:00.000Z</time>
      </trkpt>
      <trkpt lat="45.63058" lon="4.81574">
        <ele>152.96</ele>
        <time>2019-05-25T09:09:05.000Z</time>
      </trkpt>
      <trkpt lat="45.63033" lon="4.81558">
        <ele>150.03</ele>
        <time>2019-05-25T09:09:10.000Z</time>
      </trkpt>
      <trkpt lat="45.63007" lon="4.81544">
        <ele>145.28</ele>
        <time>2019-05-25T09:09:15.000Z</time>
      </trkpt>
      <trkpt lat="45.62994" lon="4.81534">
        <ele>149.14</ele>
        <time>2019-05-25T09:09:20.000Z</time>
      </trkpt>
      <trkpt lat="45.62985" lon="4.81522">
        <ele>152.15</ele>
        <time>2019-05-25T09:09:25.000Z</time>
      </trkpt>
      <trkpt lat="45.62968" lon="4.81511">
        <ele>152.71</ele>
        <time>2019-05-25T09:09:30.000Z</time>
      </trkpt>
      <trkpt lat="45.62947" lon="4.81504">
        <ele>154.7</ele>
        <time>2019-05-25T09:09:35.000Z</time>
      </trkpt>
      <trkpt lat="45.62929" lon="4.81504">
        <ele>154.95</ele>
        <time>2019-05-25T09:09:40.000Z</time>
      </trkpt>
      <trkpt lat="45.62915" lon="4.81499">
        <ele>156.89</ele>
        <time>2019-05-25T09:09:45.000Z</time>
      </trkpt>
      <trkpt lat="45.629" lon="4.8149">
        <ele>155.47</ele>
        <time>2019-05-25T09:09:50.000Z</time>
      </trkpt>
      <trkpt lat="45.62882" lon="4.81475">
        <ele>153.02</ele>
        <time>2019-05-25T09:09:55.000Z</time>
      </trkpt>
      <trkpt lat="45.6286" lon="4.81464">
        <ele>154.83</ele>
        <time>2019-05-25T09:10:00.000Z</time>
      </trkpt>
      <trkpt lat="45.62837" lon="4.81452">
        <ele>153.94</ele>
        <time>2019-05-25T09:10:05.000Z</time>
      </trkpt>
      <trkpt lat="45.62815" lon="4.8144">
        <ele>156.87</ele>
        <time>2019-05-25T09:10:10.000Z</time>
      </trkpt>
      <trkpt lat="45.62791" lon="4.81427">
        <ele>157.72</ele>
        <time>2019-05-25T09:10:15.000Z</time>
      </trkpt>
      <trkpt lat="45.62764" lon="4.81415">
        <ele>157.51</ele>
        <time>2019-05-25T09:10:20.000Z</time>
      </trkpt>
      <trkpt lat="45.62738" lon="4.814">
        <ele>156.96</ele>
        <time>2019-05-25T09:10:25.000Z</time>
      </trkpt>
      <trkpt lat="45.62713" lon="4.81392">
        <ele>155.13</ele>
        <time>2019-05-25T09:10:30.000Z</time>
      </trkpt>
      <trkpt lat="45.62698" lon="4.8138">
        <ele>156.88</ele>
        <time>2019-05-25T09:10:35.000Z</time>
      </trkpt>
      <trkpt lat="45.62679" lon="4.81365">
        <ele>153.05</ele>
        <time>2019-05-25T09:10:40.000Z</time>
      </trkpt>
      <trkpt lat="45.62658" lon="4.81353">
        <ele>153.88</ele>
        <time>2019-05-25T09:10:45.000Z</time>
      </trkpt>
      <trkpt lat="45.62641" lon="4.81342">
        <ele>153.2</ele>
        <time>2019-05-25T09:10:50.000Z</time>
      </trkpt>
      <trkpt lat="45.62617" lon="4.81331">
        <ele>153.71</ele>
        <time>2019-05-25T09:10:55.000Z</time>
      </trkpt>
      <trkpt lat="45.62597" lon="4.81327">
        <ele>155.69</ele>
        <time>2019-05-25T09:11:00.000Z</time>
      </trkpt>
      <trkpt lat="45.62577" lon="4.81314">
        <ele>155.88</ele>
        <time>2019-05-25T09:11:05.000Z</time>
      </trkpt>
      <trkpt lat="45.62555" lon="4.81308">
        <ele>157.68</ele>
        <time>2019-05-25T09:11:10.000Z</time>
      </trkpt>
      <trkpt lat="45.62533" lon="4.81296">
        <ele>156.96</ele>
        <time>2019-05-25T09:11:15.000Z</time>
      </trkpt>
      <trkpt lat="45.62512" lon="4.81288">
        <ele>156.99</ele>
        <time>2019-05-25T09:11:20.000Z</time>
      </trkpt>
      <trkpt lat="45.62483" lon="4.81276">
        <ele>154.96</ele>
        <time>2019-05-25T09:11:25.000Z</time>
      </trkpt>
      <trkpt lat="45.62456" lon="4.81263">
        <ele>155.7</ele>
        <time>2019-05-25T09:11:30.000Z</time>
      </trkpt>
      <trkpt lat="45.6243" lon="4.81253">
        <ele>156.69</ele>
        <time>2019-05-25T09:11:35.000Z</time>
      </trkpt>
      <trkpt lat="45.62404" lon="4.81242">
        <ele>156.88</ele>
        <time>2019-05-25T09:11:40.000Z</time>
      </trkpt>
      <trkpt lat="45.62383" lon="4.81232">
        <ele>156.19</ele>
        <time>2019-05-25T09:11:45.000Z</time>
      </trkpt>
      <trkpt lat="45.62363" lon="4.81223">
        <ele>158.49</ele>
        <time>2019-05-25T09:11:50.000Z</time>
      </trkpt>
      <trkpt lat="45.62338" lon="4.81212">
        <ele>157.88</ele>
        <time>2019-05-25T09:11:55.000Z</time>
      </trkpt>
      <trkpt lat="45.62313" lon="4.81203">
        <ele>157.95</ele>
        <time>2019-05-25T09:12:00.000Z</time>
      </trkpt>
      <trkpt lat="45.62292" lon="4.81197">
        <ele>158.19</ele>
        <time>2019-05-25T09:12:05.000Z</time>
      </trkpt>
      <trkpt lat="45.62273" lon="4.81186">
        <ele>158.69</ele>
        <time>2019-05-25T09:12:10.000Z</time>
      </trkpt>
      <trkpt lat="45.62245" lon="4.81179">
        <ele>157.13</ele>
        <time>2019-05-25T09:12:15.000Z</time>
      </trkpt>
      <trkpt lat="45.62224" lon="4.81171">
        <ele>154.3</ele>
        <time>2019-05-25T09:12:20.000Z</time>
      </trkpt>
      <trkpt lat="45.62203" lon="4.81157">
        <ele>150.94</ele>
        <time>2019-05-25T09:12:25.000Z</time>
      </trkpt>
      <trkpt lat="45.62178" lon="4.81143">
        <ele>153.98</ele>
        <time>2019-05-25T09:12:30.000Z</time>
      </trkpt>
      <trkpt lat="45.62153" lon="4.81138">
        <ele>155.12</ele>
        <time>2019-05-25T09:12:35.000Z</time>
      </trkpt>
      <trkpt lat="45.62128" lon="4.8113">
        <ele>153.92</ele>
        <time>2019-05-25T09:12:40.000Z</time>
      </trkpt>
      <trkpt lat="45.62107" lon="4.81121">
        <ele>156.87</ele>
        <time>2019-05-25T09:12:45.000Z</time>
      </trkpt>
      <trkpt lat="45.62078" lon="4.8111">
        <ele>151.96</ele>
        <time>2019-05-25T09:12:50.000Z</time>
      </trkpt>
      <trkpt lat="45.62052" lon="4.811">
        <ele>150.75</ele>
        <time>2019-05-25T09:12:55.000Z</time>
      </trkpt>
      <trkpt lat="45.6203" lon="4.81095">
        <ele>150.87</ele>
        <time>2019-05-25T09:13:00.000Z</time>
      </trkpt>
      <trkpt lat="45.62006" lon="4.81082">
        <ele>150.98</ele>
        <time>2019-05-25T09:13:05.000Z</time>
      </trkpt>
      <trkpt lat="45.6199" lon="4.81074">
        <ele>155.08</ele>
        <time>2019-05-25T09:13:10.000Z</time>
      </trkpt>
      <trkpt lat="45.61963" lon="4.81061">
        <ele>154.93</ele>
        <time>2019-05-25T09:13:15.000Z</time>
      </trkpt>
      <trkpt lat="45.6194" lon="4.81052">
        <ele>155.89</ele>
        <time>2019-05-25T09:13:20.000Z</time>
      </trkpt>
      <trkpt lat="45.61913" lon="4.81042">
        <ele>154.05</ele>
        <time>2019-05-25T09:13:25.000Z</time>
      </trkpt>
      <trkpt lat="45.61888" lon="4.81033">
        <ele>152.49</ele>
        <time>2019-05-25T09:13:30.000Z</time>
      </trkpt>
      <trkpt lat="45.61866" lon="4.81021">
        <ele>154.67</ele>
        <time>2019-05-25T09:13:35.000Z</time>
      </trkpt>
      <trkpt lat="45.61837" lon="4.8101">
        <ele>150.64</ele>
        <time>2019-05-25T09:13:40.000Z</time>
      </trkpt>
      <trkpt lat="45.61812" lon="4.81003">
        <ele>152.17</ele>
        <time>2019-05-25T09:13:45.000Z</time>
      </trkpt>
      <trkpt lat="45.61794" lon="4.80997">
        <ele>153.88</ele>
        <time>2019-05-25T09:13:50.000Z</time>
      </trkpt>
      <trkpt lat="45.6177" lon="4.80986">
        <ele>153.93</ele>
        <time>2019-05-25T09:13:55.000Z</time>
      </trkpt>
      <trkpt lat="45.61746" lon="4.80978">
        <ele>155.67</ele>
        <time>2019-05-25T09:14:00.000Z</time>
      </trkpt>
      <trkpt lat="45.61724" lon="4.80964">
        <ele>154.87</ele>
        <time>2019-05-25T09:14:05.000Z</time>
      </trkpt>
      <trkpt lat="45.61694" lon="4.80952">
        <ele>149.24</ele>
        <time>2019-05-25T09:14:10.000Z</time>
      </trkpt>
      <trkpt lat="45.61668" lon="4.80941">
        <ele>149.48</ele>
        <time>2019-05-25T09:14:15.000Z</time>
      </trkpt>
      <trkpt lat="45.61637" lon="4.80933">
        <ele>148.04</ele>
        <time>2019-05-25T09:14:20.000Z</time>
      </trkpt>
      <trkpt lat="45.61614" lon="4.80917">
        <ele>149.86</ele>
        <time>2019-05-25T09:14:25.000Z</time>
      </trkpt>
      <trkpt lat="45.61596" lon="4.80906">
        <ele>153.17</ele>
        <time>2019-05-25T09:14:30.000Z</time>
      </trkpt>
      <trkpt lat="45.61575" lon="4.80894">
        <ele>153.86</ele>
        <time>2019-05-25T09:14:35.000Z</time>
      </trkpt>
      <trkpt lat="45.61553" lon="4.80884">
        <ele>154.66</ele>
        <time>2019-05-25T09:14:40.000Z</time>
      </trkpt>
      <trkpt lat="45.61543" lon="4.80885">
        <ele>153.14</ele>
        <time>2019-05-25T09:14:45.000Z</time>
      </trkpt>
      <trkpt lat="45.61525" lon="4.80892">
        <ele>153.67</ele>
        <time>2019-05-25T09:14:50.000Z</time>
      </trkpt>
      <trkpt lat="45.61508" lon="4.80887">
        <ele>154.93</ele>
        <time>2019-05-25T09:14:55.000Z</time>
      </trkpt>
      <trkpt lat="45.61488" lon="4.80877">
        <ele>156.67</ele>
        <time>2019-05-25T09:15:00.000Z</time>
      </trkpt>
      <trkpt lat="45.61468" lon="4.8087">
        <ele>157.73</ele>
        <time>2019-05-25T09:15:05.000Z</time>
      </trkpt>
      <trkpt lat="45.61446" lon="4.80865">
        <ele>155.75</ele>
        <time>2019-05-25T09:15:10.000Z</time>
      </trkpt>
      <trkpt lat="45.61431" lon="4.80857">
        <ele>154.93</ele>
        <time>2019-05-25T09:15:15.000Z</time>
      </trkpt>
      <trkpt lat="45.61416" lon="4.80851">
        <ele>155.92</ele>
        <time>2019-05-25T09:15:20.000Z</time>
      </trkpt>
      <trkpt lat="45.61406" lon="4.80847">
        <ele>157.71</ele>
        <time>2019-05-25T09:15:25.000Z</time>
      </trkpt>
      <trkpt lat="45.61395" lon="4.80846">
        <ele>162.6</ele>
        <time>2019-05-25T09:15:32.000Z</time>
      </trkpt>
      <trkpt lat="45.61388" lon="4.80864">
        <ele>163.1</ele>
        <time>2019-05-25T09:15:37.000Z</time>
      </trkpt>
      <trkpt lat="45.61381" lon="4.80886">
        <ele>160.86</ele>
        <time>2019-05-25T09:15:42.000Z</time>
      </trkpt>
      <trkpt lat="45.61372" lon="4.80908">
        <ele>162.91</ele>
        <time>2019-05-25T09:15:47.000Z</time>
      </trkpt>
      <trkpt lat="45.61357" lon="4.80933">
        <ele>165.34</ele>
        <time>2019-05-25T09:15:52.000Z</time>
      </trkpt>
      <trkpt lat="45.61334" lon="4.80942">
        <ele>162.91</ele>
        <time>2019-05-25T09:15:57.000Z</time>
      </trkpt>
      <trkpt lat="45.61309" lon="4.80919">
        <ele>161.17</ele>
        <time>2019-05-25T09:16:02.000Z</time>
      </trkpt>
      <trkpt lat="45.61288" lon="4.80889">
        <ele>159.73</ele>
        <time>2019-05-25T09:16:07.000Z</time>
      </trkpt>
      <trkpt lat="45.61266" lon="4.80853">
        <ele>158.48</ele>
        <time>2019-05-25T09:16:12.000Z</time>
      </trkpt>
      <trkpt lat="45.61243" lon="4.80839">
        <ele>157.92</ele>
        <time>2019-05-25T09:16:17.000Z</time>
      </trkpt>
      <trkpt lat="45.6122" lon="4.80846">
        <ele>159.1</ele>
        <time>2019-05-25T09:16:22.000Z</time>
      </trkpt>
      <trkpt lat="45.61208" lon="4.80839">
        <ele>159.91</ele>
        <time>2019-05-25T09:16:27.000Z</time>
      </trkpt>
      <trkpt lat="45.61199" lon="4.80837">
        <ele>159.92</ele>
        <time>2019-05-25T09:16:39.000Z</time>
      </trkpt>
      <trkpt lat="45.61184" lon="4.80856">
        <ele>161.9</ele>
        <time>2019-05-25T09:16:44.000Z</time>
      </trkpt>
      <trkpt lat="45.61173" lon="4.80873">
        <ele>161.9</ele>
        <time>2019-05-25T09:16:49.000Z</time>
      </trkpt>
      <trkpt lat="45.61166" lon="4.80863">
        <ele>163.91</ele>
        <time>2019-05-25T09:16:58.000Z</time>
      </trkpt>
      <trkpt lat="45.61159" lon="4.80853">
        <ele>164.85</ele>
        <time>2019-05-25T09:17:03.000Z</time>
      </trkpt>
      <trkpt lat="45.61151" lon="4.80845">
        <ele>169.66</ele>
        <time>2019-05-25T09:17:08.000Z</time>
      </trkpt>
      <trkpt lat="45.6114" lon="4.80842">
        <ele>171.89</ele>
        <time>2019-05-25T09:17:13.000Z</time>
      </trkpt>
      <trkpt lat="45.61146" lon="4.80857">
        <ele>173.6</ele>
        <time>2019-05-25T09:17:18.000Z</time>
      </trkpt>
      <trkpt lat="45.61157" lon="4.80872">
        <ele>173.92</ele>
        <time>2019-05-25T09:17:23.000Z</time>
      </trkpt>
      <trkpt lat="45.61163" lon="4.80887">
        <ele>172.7</ele>
        <time>2019-05-25T09:17:28.000Z</time>
      </trkpt>
      <trkpt lat="45.61163" lon="4.809">
        <ele>171.92</ele>
        <time>2019-05-25T09:17:33.000Z</time>
      </trkpt>
      <trkpt lat="45.61159" lon="4.80914">
        <ele>173.6</ele>
        <time>2019-05-25T09:17:38.000Z</time>
      </trkpt>
      <trkpt lat="45.61152" lon="4.80926">
        <ele>176.09</ele>
        <time>2019-05-25T09:17:43.000Z</time>
      </trkpt>
      <trkpt lat="45.61147" lon="4.80941">
        <ele>177.9</ele>
        <time>2019-05-25T09:17:48.000Z</time>
      </trkpt>
      <trkpt lat="45.61147" lon="4.80956">
        <ele>178.96</ele>
        <time>2019-05-25T09:17:53.000Z</time>
      </trkpt>
      <trkpt lat="45.61153" lon="4.80972">
        <ele>178.86</ele>
        <time>2019-05-25T09:17:58.000Z</time>
      </trkpt>
      <trkpt lat="45.61161" lon="4.80983">
        <ele>180.96</ele>
        <time>2019-05-25T09:18:03.000Z</time>
      </trkpt>
      <trkpt lat="45.61156" lon="4.80997">
        <ele>183.59</ele>
        <time>2019-05-25T09:18:08.000Z</time>
      </trkpt>
      <trkpt lat="45.61143" lon="4.81004">
        <ele>183.73</ele>
        <time>2019-05-25T09:18:13.000Z</time>
      </trkpt>
      <trkpt lat="45.6113" lon="4.81004">
        <ele>184.9</ele>
        <time>2019-05-25T09:18:18.000Z</time>
      </trkpt>
      <trkpt lat="45.61118" lon="4.81001">
        <ele>185.91</ele>
        <time>2019-05-25T09:18:23.000Z</time>
      </trkpt>
      <trkpt lat="45.61104" lon="4.80992">
        <ele>184.17</ele>
        <time>2019-05-25T09:18:28.000Z</time>
      </trkpt>
      <trkpt lat="45.61089" lon="4.80977">
        <ele>180.05</ele>
        <time>2019-05-25T09:18:33.000Z</time>
      </trkpt>
      <trkpt lat="45.61074" lon="4.80956">
        <ele>181.9</ele>
        <time>2019-05-25T09:18:38.000Z</time>
      </trkpt>
      <trkpt lat="45.61059" lon="4.80925">
        <ele>180.92</ele>
        <time>2019-05-25T09:18:43.000Z</time>
      </trkpt>
      <trkpt lat="45.61042" lon="4.80892">
        <ele>179.92</ele>
        <time>2019-05-25T09:18:48.000Z</time>
      </trkpt>
      <trkpt lat="45.61027" lon="4.80866">
        <ele>181.85</ele>
        <time>2019-05-25T09:18:53.000Z</time>
      </trkpt>
      <trkpt lat="45.61013" lon="4.80844">
        <ele>180</ele>
        <time>2019-05-25T09:18:58.000Z</time>
      </trkpt>
      <trkpt lat="45.61001" lon="4.80822">
        <ele>179.91</ele>
        <time>2019-05-25T09:19:03.000Z</time>
      </trkpt>
      <trkpt lat="45.60989" lon="4.80801">
        <ele>183.63</ele>
        <time>2019-05-25T09:19:08.000Z</time>
      </trkpt>
      <trkpt lat="45.60975" lon="4.80781">
        <ele>181.93</ele>
        <time>2019-05-25T09:19:13.000Z</time>
      </trkpt>
      <trkpt lat="45.60961" lon="4.8076">
        <ele>182.66</ele>
        <time>2019-05-25T09:19:18.000Z</time>
      </trkpt>
      <trkpt lat="45.60946" lon="4.8074">
        <ele>181.97</ele>
        <time>2019-05-25T09:19:23.000Z</time>
      </trkpt>
      <trkpt lat="45.60933" lon="4.80718">
        <ele>181.72</ele>
        <time>2019-05-25T09:19:28.000Z</time>
      </trkpt>
      <trkpt lat="45.60923" lon="4.80695">
        <ele>183.84</ele>
        <time>2019-05-25T09:19:33.000Z</time>
      </trkpt>
      <trkpt lat="45.6091" lon="4.80671">
        <ele>183.91</ele>
        <time>2019-05-25T09:19:38.000Z</time>
      </trkpt>
      <trkpt lat="45.60899" lon="4.80653">
        <ele>183.91</ele>
        <time>2019-05-25T09:19:43.000Z</time>
      </trkpt>
      <trkpt lat="45.60896" lon="4.80638">
        <ele>184.89</ele>
        <time>2019-05-25T09:19:48.000Z</time>
      </trkpt>
      <trkpt lat="45.60889" lon="4.8063">
        <ele>187.9</ele>
        <time>2019-05-25T09:19:56.000Z</time>
      </trkpt>
      <trkpt lat="45.60889" lon="4.80617">
        <ele>194.62</ele>
        <time>2019-05-25T09:20:39.000Z</time>
      </trkpt>
      <trkpt lat="45.60881" lon="4.80608">
        <ele>192.35</ele>
        <time>2019-05-25T09:20:46.000Z</time>
      </trkpt>
      <trkpt lat="45.60865" lon="4.80605">
        <ele>186.23</ele>
        <time>2019-05-25T09:20:51.000Z</time>
      </trkpt>
      <trkpt lat="45.60856" lon="4.80604">
        <ele>180.41</ele>
        <time>2019-05-25T09:21:09.000Z</time>
      </trkpt>
      <trkpt lat="45.60854" lon="4.8059">
        <ele>186.92</ele>
        <time>2019-05-25T09:25:56.000Z</time>
      </trkpt>
      <trkpt lat="45.60847" lon="4.80572">
        <ele>186.96</ele>
        <time>2019-05-25T09:26:01.000Z</time>
      </trkpt>
      <trkpt lat="45.6084" lon="4.80556">
        <ele>186.89</ele>
        <time>2019-05-25T09:26:06.000Z</time>
      </trkpt>
      <trkpt lat="45.60833" lon="4.80537">
        <ele>187.65</ele>
        <time>2019-05-25T09:26:11.000Z</time>
      </trkpt>
      <trkpt lat="45.60827" lon="4.80519">
        <ele>188.64</ele>
        <time>2019-05-25T09:26:16.000Z</time>
      </trkpt>
      <trkpt lat="45.60816" lon="4.80504">
        <ele>186.91</ele>
        <time>2019-05-25T09:26:21.000Z</time>
      </trkpt>
      <trkpt lat="45.60803" lon="4.80487">
        <ele>186.15</ele>
        <time>2019-05-25T09:26:26.000Z</time>
      </trkpt>
      <trkpt lat="45.60792" lon="4.80464">
        <ele>186.84</ele>
        <time>2019-05-25T09:26:31.000Z</time>
      </trkpt>
      <trkpt lat="45.60781" lon="4.80441">
        <ele>188.63</ele>
        <time>2019-05-25T09:26:36.000Z</time>
      </trkpt>
      <trkpt lat="45.60769" lon="4.8042">
        <ele>188.89</ele>
        <time>2019-05-25T09:26:41.000Z</time>
      </trkpt>
      <trkpt lat="45.60758" lon="4.80407">
        <ele>188.84</ele>
        <time>2019-05-25T09:26:46.000Z</time>
      </trkpt>
      <trkpt lat="45.60745" lon="4.80393">
        <ele>189.88</ele>
        <time>2019-05-25T09:26:51.000Z</time>
      </trkpt>
      <trkpt lat="45.60732" lon="4.80376">
        <ele>188.96</ele>
        <time>2019-05-25T09:26:56.000Z</time>
      </trkpt>
      <trkpt lat="45.60722" lon="4.80354">
        <ele>186.96</ele>
        <time>2019-05-25T09:27:01.000Z</time>
      </trkpt>
      <trkpt lat="45.60704" lon="4.80334">
        <ele>183.98</ele>
        <time>2019-05-25T09:27:06.000Z</time>
      </trkpt>
      <trkpt lat="45.60689" lon="4.8032">
        <ele>184.88</ele>
        <time>2019-05-25T09:27:11.000Z</time>
      </trkpt>
      <trkpt lat="45.60676" lon="4.80307">
        <ele>184.91</ele>
        <time>2019-05-25T09:27:16.000Z</time>
      </trkpt>
      <trkpt lat="45.60663" lon="4.80296">
        <ele>185.7</ele>
        <time>2019-05-25T09:27:21.000Z</time>
      </trkpt>
      <trkpt lat="45.60652" lon="4.80283">
        <ele>187.88</ele>
        <time>2019-05-25T09:27:26.000Z</time>
      </trkpt>
      <trkpt lat="45.60641" lon="4.80272">
        <ele>186.9</ele>
        <time>2019-05-25T09:27:31.000Z</time>
      </trkpt>
      <trkpt lat="45.60629" lon="4.80259">
        <ele>187.88</ele>
        <time>2019-05-25T09:27:36.000Z</time>
      </trkpt>
      <trkpt lat="45.60619" lon="4.80244">
        <ele>190.87</ele>
        <time>2019-05-25T09:27:41.000Z</time>
      </trkpt>
      <trkpt lat="45.60605" lon="4.80227">
        <ele>190.91</ele>
        <time>2019-05-25T09:27:46.000Z</time>
      </trkpt>
      <trkpt lat="45.60588" lon="4.80211">
        <ele>191.88</ele>
        <time>2019-05-25T09:27:51.000Z</time>
      </trkpt>
      <trkpt lat="45.60573" lon="4.80195">
        <ele>192.13</ele>
        <time>2019-05-25T09:27:56.000Z</time>
      </trkpt>
      <trkpt lat="45.60564" lon="4.80181">
        <ele>191.9</ele>
        <time>2019-05-25T09:28:01.000Z</time>
      </trkpt>
      <trkpt lat="45.60554" lon="4.80172">
        <ele>191.66</ele>
        <time>2019-05-25T09:28:06.000Z</time>
      </trkpt>
      <trkpt lat="45.60545" lon="4.80162">
        <ele>192.84</ele>
        <time>2019-05-25T09:28:11.000Z</time>
      </trkpt>
      <trkpt lat="45.60536" lon="4.80149">
        <ele>194.7</ele>
        <time>2019-05-25T09:28:16.000Z</time>
      </trkpt>
      <trkpt lat="45.6053" lon="4.80139">
        <ele>196.64</ele>
        <time>2019-05-25T09:28:21.000Z</time>
      </trkpt>
      <trkpt lat="45.60523" lon="4.80128">
        <ele>198.64</ele>
        <time>2019-05-25T09:28:48.000Z</time>
      </trkpt>
      <trkpt lat="45.60512" lon="4.8011">
        <ele>195.16</ele>
        <time>2019-05-25T09:28:53.000Z</time>
      </trkpt>
      <trkpt lat="45.605" lon="4.80093">
        <ele>193.89</ele>
        <time>2019-05-25T09:28:58.000Z</time>
      </trkpt>
      <trkpt lat="45.60492" lon="4.80076">
        <ele>192.14</ele>
        <time>2019-05-25T09:29:03.000Z</time>
      </trkpt>
      <trkpt lat="45.60479" lon="4.80058">
        <ele>191.89</ele>
        <time>2019-05-25T09:29:08.000Z</time>
      </trkpt>
      <trkpt lat="45.60468" lon="4.8004">
        <ele>190.14</ele>
        <time>2019-05-25T09:29:13.000Z</time>
      </trkpt>
      <trkpt lat="45.60458" lon="4.8002">
        <ele>189.9</ele>
        <time>2019-05-25T09:29:18.000Z</time>
      </trkpt>
      <trkpt lat="45.60454" lon="4.80009">
        <ele>189.26</ele>
        <time>2019-05-25T09:29:37.000Z</time>
      </trkpt>
      <trkpt lat="45.60448" lon="4.79997">
        <ele>186.9</ele>
        <time>2019-05-25T09:29:45.000Z</time>
      </trkpt>
      <trkpt lat="45.60448" lon="4.79983">
        <ele>187.48</ele>
        <time>2019-05-25T09:29:51.000Z</time>
      </trkpt>
      <trkpt lat="45.60439" lon="4.79974">
        <ele>181.89</ele>
        <time>2019-05-25T09:29:57.000Z</time>
      </trkpt>
      <trkpt lat="45.60422" lon="4.79957">
        <ele>183.33</ele>
        <time>2019-05-25T09:30:02.000Z</time>
      </trkpt>
      <trkpt lat="45.60408" lon="4.79942">
        <ele>180.7</ele>
        <time>2019-05-25T09:30:07.000Z</time>
      </trkpt>
      <trkpt lat="45.60391" lon="4.79924">
        <ele>180.88</ele>
        <time>2019-05-25T09:30:12.000Z</time>
      </trkpt>
      <trkpt lat="45.60374" lon="4.7991">
        <ele>182.87</ele>
        <time>2019-05-25T09:30:17.000Z</time>
      </trkpt>
      <trkpt lat="45.60356" lon="4.79898">
        <ele>181.88</ele>
        <time>2019-05-25T09:30:22.000Z</time>
      </trkpt>
      <trkpt lat="45.60339" lon="4.79887">
        <ele>180.85</ele>
        <time>2019-05-25T09:30:27.000Z</time>
      </trkpt>
      <trkpt lat="45.60318" lon="4.7987">
        <ele>178.94</ele>
        <time>2019-05-25T09:30:32.000Z</time>
      </trkpt>
      <trkpt lat="45.60305" lon="4.79864">
        <ele>179.82</ele>
        <time>2019-05-25T09:30:37.000Z</time>
      </trkpt>
      <trkpt lat="45.60297" lon="4.79871">
        <ele>181.63</ele>
        <time>2019-05-25T09:30:45.000Z</time>
      </trkpt>
      <trkpt lat="45.6029" lon="4.79863">
        <ele>177.9</ele>
        <time>2019-05-25T09:36:40.000Z</time>
      </trkpt>
      <trkpt lat="45.6028" lon="4.79869">
        <ele>182.69</ele>
        <time>2019-05-25T09:42:55.000Z</time>
      </trkpt>
      <trkpt lat="45.60272" lon="4.79875">
        <ele>183</ele>
        <time>2019-05-25T09:43:02.000Z</time>
      </trkpt>
      <trkpt lat="45.60263" lon="4.79877">
        <ele>187.61</ele>
        <time>2019-05-25T09:43:33.000Z</time>
      </trkpt>
      <trkpt lat="45.60254" lon="4.79878">
        <ele>186.94</ele>
        <time>2019-05-25T09:43:38.000Z</time>
      </trkpt>
      <trkpt lat="45.60237" lon="4.79872">
        <ele>188.83</ele>
        <time>2019-05-25T09:43:43.000Z</time>
      </trkpt>
      <trkpt lat="45.60222" lon="4.79859">
        <ele>188.13</ele>
        <time>2019-05-25T09:43:48.000Z</time>
      </trkpt>
      <trkpt lat="45.60211" lon="4.79834">
        <ele>186.13</ele>
        <time>2019-05-25T09:43:53.000Z</time>
      </trkpt>
      <trkpt lat="45.60194" lon="4.79813">
        <ele>185.88</ele>
        <time>2019-05-25T09:43:58.000Z</time>
      </trkpt>
      <trkpt lat="45.60169" lon="4.79794">
        <ele>185.13</ele>
        <time>2019-05-25T09:44:03.000Z</time>
      </trkpt>
      <trkpt lat="45.60139" lon="4.79773">
        <ele>182.83</ele>
        <time>2019-05-25T09:44:08.000Z</time>
      </trkpt>
      <trkpt lat="45.60116" lon="4.7976">
        <ele>183.58</ele>
        <time>2019-05-25T09:44:13.000Z</time>
      </trkpt>
      <trkpt lat="45.60103" lon="4.79752">
        <ele>184.92</ele>
        <time>2019-05-25T09:44:18.000Z</time>
      </trkpt>
      <trkpt lat="45.60092" lon="4.79747">
        <ele>183.94</ele>
        <time>2019-05-25T09:44:23.000Z</time>
      </trkpt>
      <trkpt lat="45.60079" lon="4.79722">
        <ele>180.89</ele>
        <time>2019-05-25T09:44:28.000Z</time>
      </trkpt>
      <trkpt lat="45.60061" lon="4.797">
        <ele>179.89</ele>
        <time>2019-05-25T09:44:33.000Z</time>
      </trkpt>
      <trkpt lat="45.60037" lon="4.79681">
        <ele>178.18</ele>
        <time>2019-05-25T09:44:38.000Z</time>
      </trkpt>
      <trkpt lat="45.60005" lon="4.79653">
        <ele>175.94</ele>
        <time>2019-05-25T09:44:43.000Z</time>
      </trkpt>
      <trkpt lat="45.5997" lon="4.79622">
        <ele>173.87</ele>
        <time>2019-05-25T09:44:48.000Z</time>
      </trkpt>
      <trkpt lat="45.59933" lon="4.79592">
        <ele>174.81</ele>
        <time>2019-05-25T09:44:53.000Z</time>
      </trkpt>
      <trkpt lat="45.59907" lon="4.79566">
        <ele>175.63</ele>
        <time>2019-05-25T09:44:58.000Z</time>
      </trkpt>
      <trkpt lat="45.59883" lon="4.79549">
        <ele>175.93</ele>
        <time>2019-05-25T09:45:03.000Z</time>
      </trkpt>
      <trkpt lat="45.5986" lon="4.79531">
        <ele>175.87</ele>
        <time>2019-05-25T09:45:08.000Z</time>
      </trkpt>
      <trkpt lat="45.59839" lon="4.79514">
        <ele>176.62</ele>
        <time>2019-05-25T09:45:13.000Z</time>
      </trkpt>
      <trkpt lat="45.59821" lon="4.79498">
        <ele>176.86</ele>
        <time>2019-05-25T09:45:18.000Z</time>
      </trkpt>
      <trkpt lat="45.59805" lon="4.79484">
        <ele>176.88</ele>
        <time>2019-05-25T09:45:23.000Z</time>
      </trkpt>
      <trkpt lat="45.59806" lon="4.79471">
        <ele>175.86</ele>
        <time>2019-05-25T09:45:35.000Z</time>
      </trkpt>
      <trkpt lat="45.59818" lon="4.79444">
        <ele>175.1</ele>
        <time>2019-05-25T09:45:40.000Z</time>
      </trkpt>
      <trkpt lat="45.59829" lon="4.79416">
        <ele>173.87</ele>
        <time>2019-05-25T09:45:45.000Z</time>
      </trkpt>
      <trkpt lat="45.59837" lon="4.79408">
        <ele>171.93</ele>
        <time>2019-05-25T09:45:51.000Z</time>
      </trkpt>
      <trkpt lat="45.59822" lon="4.79388">
        <ele>170.12</ele>
        <time>2019-05-25T09:45:56.000Z</time>
      </trkpt>
      <trkpt lat="45.59801" lon="4.7936">
        <ele>169.86</ele>
        <time>2019-05-25T09:46:01.000Z</time>
      </trkpt>
      <trkpt lat="45.59781" lon="4.79326">
        <ele>170.09</ele>
        <time>2019-05-25T09:46:06.000Z</time>
      </trkpt>
      <trkpt lat="45.59756" lon="4.79307">
        <ele>170.8</ele>
        <time>2019-05-25T09:46:11.000Z</time>
      </trkpt>
      <trkpt lat="45.59728" lon="4.79294">
        <ele>170.91</ele>
        <time>2019-05-25T09:46:16.000Z</time>
      </trkpt>
      <trkpt lat="45.59701" lon="4.79289">
        <ele>170.62</ele>
        <time>2019-05-25T09:46:21.000Z</time>
      </trkpt>
      <trkpt lat="45.59674" lon="4.79279">
        <ele>171.04</ele>
        <time>2019-05-25T09:46:26.000Z</time>
      </trkpt>
      <trkpt lat="45.5965" lon="4.79276">
        <ele>173.54</ele>
        <time>2019-05-25T09:46:31.000Z</time>
      </trkpt>
      <trkpt lat="45.59627" lon="4.79269">
        <ele>174.86</ele>
        <time>2019-05-25T09:46:36.000Z</time>
      </trkpt>
      <trkpt lat="45.59606" lon="4.79265">
        <ele>175.85</ele>
        <time>2019-05-25T09:46:41.000Z</time>
      </trkpt>
      <trkpt lat="45.59589" lon="4.79262">
        <ele>176.09</ele>
        <time>2019-05-25T09:46:46.000Z</time>
      </trkpt>
      <trkpt lat="45.59568" lon="4.79252">
        <ele>174.87</ele>
        <time>2019-05-25T09:46:51.000Z</time>
      </trkpt>
      <trkpt lat="45.5954" lon="4.79242">
        <ele>173.12</ele>
        <time>2019-05-25T09:46:56.000Z</time>
      </trkpt>
      <trkpt lat="45.59505" lon="4.79232">
        <ele>172.85</ele>
        <time>2019-05-25T09:47:01.000Z</time>
      </trkpt>
      <trkpt lat="45.59468" lon="4.7921">
        <ele>168.23</ele>
        <time>2019-05-25T09:47:06.000Z</time>
      </trkpt>
      <trkpt lat="45.59435" lon="4.79169">
        <ele>166.4</ele>
        <time>2019-05-25T09:47:11.000Z</time>
      </trkpt>
      <trkpt lat="45.5941" lon="4.79119">
        <ele>162.17</ele>
        <time>2019-05-25T09:47:16.000Z</time>
      </trkpt>
      <trkpt lat="45.59405" lon="4.79064">
        <ele>159.1</ele>
        <time>2019-05-25T09:47:21.000Z</time>
      </trkpt>
      <trkpt lat="45.59406" lon="4.79046">
        <ele>158.1</ele>
        <time>2019-05-25T09:47:26.000Z</time>
      </trkpt>
      <trkpt lat="45.59407" lon="4.79031">
        <ele>156.84</ele>
        <time>2019-05-25T09:47:45.000Z</time>
      </trkpt>
      <trkpt lat="45.59406" lon="4.78999">
        <ele>156.99</ele>
        <time>2019-05-25T09:47:50.000Z</time>
      </trkpt>
      <trkpt lat="45.59409" lon="4.78966">
        <ele>155.91</ele>
        <time>2019-05-25T09:47:55.000Z</time>
      </trkpt>
      <trkpt lat="45.59411" lon="4.78931">
        <ele>155.85</ele>
        <time>2019-05-25T09:48:00.000Z</time>
      </trkpt>
      <trkpt lat="45.59415" lon="4.78905">
        <ele>156.78</ele>
        <time>2019-05-25T09:48:05.000Z</time>
      </trkpt>
      <trkpt lat="45.5941" lon="4.7889">
        <ele>159.64</ele>
        <time>2019-05-25T09:48:11.000Z</time>
      </trkpt>
      <trkpt lat="45.59398" lon="4.78878">
        <ele>159.08</ele>
        <time>2019-05-25T09:48:16.000Z</time>
      </trkpt>
      <trkpt lat="45.59386" lon="4.78859">
        <ele>158.84</ele>
        <time>2019-05-25T09:48:21.000Z</time>
      </trkpt>
      <trkpt lat="45.59372" lon="4.78833">
        <ele>159.59</ele>
        <time>2019-05-25T09:48:26.000Z</time>
      </trkpt>
      <trkpt lat="45.59359" lon="4.78803">
        <ele>159.09</ele>
        <time>2019-05-25T09:48:31.000Z</time>
      </trkpt>
      <trkpt lat="45.59344" lon="4.78775">
        <ele>159.59</ele>
        <time>2019-05-25T09:48:36.000Z</time>
      </trkpt>
      <trkpt lat="45.5933" lon="4.78748">
        <ele>160.82</ele>
        <time>2019-05-25T09:48:41.000Z</time>
      </trkpt>
      <trkpt lat="45.59317" lon="4.7872">
        <ele>160.04</ele>
        <time>2019-05-25T09:48:46.000Z</time>
      </trkpt>
      <trkpt lat="45.59304" lon="4.78693">
        <ele>159.84</ele>
        <time>2019-05-25T09:48:51.000Z</time>
      </trkpt>
      <trkpt lat="45.59291" lon="4.78667">
        <ele>159.84</ele>
        <time>2019-05-25T09:48:56.000Z</time>
      </trkpt>
      <trkpt lat="45.59276" lon="4.7864">
        <ele>159.84</ele>
        <time>2019-05-25T09:49:01.000Z</time>
      </trkpt>
      <trkpt lat="45.59262" lon="4.7861">
        <ele>159.85</ele>
        <time>2019-05-25T09:49:06.000Z</time>
      </trkpt>
      <trkpt lat="45.59248" lon="4.78584">
        <ele>160.58</ele>
        <time>2019-05-25T09:49:11.000Z</time>
      </trkpt>
      <trkpt lat="45.59234" lon="4.78556">
        <ele>162.06</ele>
        <time>2019-05-25T09:49:16.000Z</time>
      </trkpt>
      <trkpt lat="45.59221" lon="4.78528">
        <ele>160.14</ele>
        <time>2019-05-25T09:49:21.000Z</time>
      </trkpt>
      <trkpt lat="45.59212" lon="4.78495">
        <ele>159.83</ele>
        <time>2019-05-25T09:49:26.000Z</time>
      </trkpt>
      <trkpt lat="45.59201" lon="4.78466">
        <ele>158.84</ele>
        <time>2019-05-25T09:49:31.000Z</time>
      </trkpt>
      <trkpt lat="45.59188" lon="4.78435">
        <ele>159.83</ele>
        <time>2019-05-25T09:49:36.000Z</time>
      </trkpt>
      <trkpt lat="45.59177" lon="4.78404">
        <ele>159.83</ele>
        <time>2019-05-25T09:49:41.000Z</time>
      </trkpt>
      <trkpt lat="45.59164" lon="4.78372">
        <ele>159.83</ele>
        <time>2019-05-25T09:49:46.000Z</time>
      </trkpt>
      <trkpt lat="45.59152" lon="4.78339">
        <ele>159.81</ele>
        <time>2019-05-25T09:49:51.000Z</time>
      </trkpt>
      <trkpt lat="45.5914" lon="4.78309">
        <ele>159.83</ele>
        <time>2019-05-25T09:49:56.000Z</time>
      </trkpt>
      <trkpt lat="45.59129" lon="4.78281">
        <ele>159.03</ele>
        <time>2019-05-25T09:50:01.000Z</time>
      </trkpt>
      <trkpt lat="45.59118" lon="4.78248">
        <ele>156.89</ele>
        <time>2019-05-25T09:50:06.000Z</time>
      </trkpt>
      <trkpt lat="45.59105" lon="4.78214">
        <ele>157.62</ele>
        <time>2019-05-25T09:50:11.000Z</time>
      </trkpt>
      <trkpt lat="45.59091" lon="4.78182">
        <ele>156.64</ele>
        <time>2019-05-25T09:50:16.000Z</time>
      </trkpt>
      <trkpt lat="45.59076" lon="4.78153">
        <ele>157.57</ele>
        <time>2019-05-25T09:50:21.000Z</time>
      </trkpt>
      <trkpt lat="45.59059" lon="4.78125">
        <ele>158.57</ele>
        <time>2019-05-25T09:50:26.000Z</time>
      </trkpt>
      <trkpt lat="45.59041" lon="4.78098">
        <ele>158.63</ele>
        <time>2019-05-25T09:50:31.000Z</time>
      </trkpt>
      <trkpt lat="45.59022" lon="4.78068">
        <ele>158.83</ele>
        <time>2019-05-25T09:50:36.000Z</time>
      </trkpt>
      <trkpt lat="45.59005" lon="4.78038">
        <ele>158.82</ele>
        <time>2019-05-25T09:50:41.000Z</time>
      </trkpt>
      <trkpt lat="45.5899" lon="4.78008">
        <ele>158.82</ele>
        <time>2019-05-25T09:50:46.000Z</time>
      </trkpt>
      <trkpt lat="45.58973" lon="4.7798">
        <ele>158.82</ele>
        <time>2019-05-25T09:50:51.000Z</time>
      </trkpt>
      <trkpt lat="45.58954" lon="4.77953">
        <ele>159.86</ele>
        <time>2019-05-25T09:50:56.000Z</time>
      </trkpt>
      <trkpt lat="45.58936" lon="4.77924">
        <ele>157.08</ele>
        <time>2019-05-25T09:51:01.000Z</time>
      </trkpt>
      <trkpt lat="45.58914" lon="4.77904">
        <ele>155.07</ele>
        <time>2019-05-25T09:51:06.000Z</time>
      </trkpt>
      <trkpt lat="45.58886" lon="4.77889">
        <ele>156.05</ele>
        <time>2019-05-25T09:51:11.000Z</time>
      </trkpt>
      <trkpt lat="45.58863" lon="4.77876">
        <ele>155.7</ele>
        <time>2019-05-25T09:51:16.000Z</time>
      </trkpt>
      <trkpt lat="45.58845" lon="4.77873">
        <ele>156.8</ele>
        <time>2019-05-25T09:51:21.000Z</time>
      </trkpt>
      <trkpt lat="45.5882" lon="4.7787">
        <ele>156.56</ele>
        <time>2019-05-25T09:51:26.000Z</time>
      </trkpt>
      <trkpt lat="45.58797" lon="4.77866">
        <ele>155.08</ele>
        <time>2019-05-25T09:51:31.000Z</time>
      </trkpt>
      <trkpt lat="45.58771" lon="4.77863">
        <ele>155.76</ele>
        <time>2019-05-25T09:51:36.000Z</time>
      </trkpt>
      <trkpt lat="45.58746" lon="4.77859">
        <ele>154.08</ele>
        <time>2019-05-25T09:51:41.000Z</time>
      </trkpt>
      <trkpt lat="45.58723" lon="4.77856">
        <ele>155.5</ele>
        <time>2019-05-25T09:51:46.000Z</time>
      </trkpt>
      <trkpt lat="45.58699" lon="4.77853">
        <ele>155.74</ele>
        <time>2019-05-25T09:51:51.000Z</time>
      </trkpt>
      <trkpt lat="45.58674" lon="4.77851">
        <ele>154.81</ele>
        <time>2019-05-25T09:51:56.000Z</time>
      </trkpt>
      <trkpt lat="45.58645" lon="4.77852">
        <ele>154.81</ele>
        <time>2019-05-25T09:52:01.000Z</time>
      </trkpt>
      <trkpt lat="45.5862" lon="4.77853">
        <ele>156.54</ele>
        <time>2019-05-25T09:52:06.000Z</time>
      </trkpt>
      <trkpt lat="45.58594" lon="4.77856">
        <ele>156.82</ele>
        <time>2019-05-25T09:52:11.000Z</time>
      </trkpt>
      <trkpt lat="45.58568" lon="4.7786">
        <ele>156.81</ele>
        <time>2019-05-25T09:52:16.000Z</time>
      </trkpt>
      <trkpt lat="45.58543" lon="4.77867">
        <ele>156.81</ele>
        <time>2019-05-25T09:52:21.000Z</time>
      </trkpt>
      <trkpt lat="45.58514" lon="4.77876">
        <ele>156.06</ele>
        <time>2019-05-25T09:52:26.000Z</time>
      </trkpt>
      <trkpt lat="45.58485" lon="4.77888">
        <ele>154.57</ele>
        <time>2019-05-25T09:52:31.000Z</time>
      </trkpt>
      <trkpt lat="45.58459" lon="4.77902">
        <ele>157.53</ele>
        <time>2019-05-25T09:52:36.000Z</time>
      </trkpt>
      <trkpt lat="45.58431" lon="4.77915">
        <ele>156.62</ele>
        <time>2019-05-25T09:52:41.000Z</time>
      </trkpt>
      <trkpt lat="45.58406" lon="4.7793">
        <ele>155.12</ele>
        <time>2019-05-25T09:52:46.000Z</time>
      </trkpt>
      <trkpt lat="45.58375" lon="4.77952">
        <ele>154.81</ele>
        <time>2019-05-25T09:52:51.000Z</time>
      </trkpt>
      <trkpt lat="45.58351" lon="4.7797">
        <ele>156.03</ele>
        <time>2019-05-25T09:52:56.000Z</time>
      </trkpt>
      <trkpt lat="45.58325" lon="4.7799">
        <ele>155.81</ele>
        <time>2019-05-25T09:53:01.000Z</time>
      </trkpt>
      <trkpt lat="45.583" lon="4.78013">
        <ele>155.98</ele>
        <time>2019-05-25T09:53:06.000Z</time>
      </trkpt>
      <trkpt lat="45.58276" lon="4.78036">
        <ele>157.6</ele>
        <time>2019-05-25T09:53:11.000Z</time>
      </trkpt>
      <trkpt lat="45.58253" lon="4.7806">
        <ele>156.81</ele>
        <time>2019-05-25T09:53:16.000Z</time>
      </trkpt>
      <trkpt lat="45.58235" lon="4.78073">
        <ele>156.81</ele>
        <time>2019-05-25T09:53:21.000Z</time>
      </trkpt>
      <trkpt lat="45.58221" lon="4.78082">
        <ele>155.07</ele>
        <time>2019-05-25T09:53:26.000Z</time>
      </trkpt>
      <trkpt lat="45.58213" lon="4.78103">
        <ele>157.5</ele>
        <time>2019-05-25T09:53:31.000Z</time>
      </trkpt>
      <trkpt lat="45.58214" lon="4.78123">
        <ele>155.12</ele>
        <time>2019-05-25T09:53:36.000Z</time>
      </trkpt>
      <trkpt lat="45.58229" lon="4.7814">
        <ele>153.8</ele>
        <time>2019-05-25T09:53:41.000Z</time>
      </trkpt>
      <trkpt lat="45.58247" lon="4.78152">
        <ele>153.81</ele>
        <time>2019-05-25T09:53:46.000Z</time>
      </trkpt>
      <trkpt lat="45.58266" lon="4.78163">
        <ele>155.5</ele>
        <time>2019-05-25T09:53:51.000Z</time>
      </trkpt>
      <trkpt lat="45.58277" lon="4.78174">
        <ele>156.69</ele>
        <time>2019-05-25T09:53:56.000Z</time>
      </trkpt>
      <trkpt lat="45.58285" lon="4.78167">
        <ele>158.62</ele>
        <time>2019-05-25T09:54:04.000Z</time>
      </trkpt>
      <trkpt lat="45.58276" lon="4.78155">
        <ele>159.75</ele>
        <time>2019-05-25T09:54:09.000Z</time>
      </trkpt>
      <trkpt lat="45.58267" lon="4.78147">
        <ele>160.81</ele>
        <time>2019-05-25T09:54:30.000Z</time>
      </trkpt>
      <trkpt lat="45.58261" lon="4.78138">
        <ele>160.81</ele>
        <time>2019-05-25T09:54:35.000Z</time>
      </trkpt>
      <trkpt lat="45.58248" lon="4.7812">
        <ele>160.81</ele>
        <time>2019-05-25T09:54:40.000Z</time>
      </trkpt>
      <trkpt lat="45.58233" lon="4.781">
        <ele>160.07</ele>
        <time>2019-05-25T09:54:45.000Z</time>
      </trkpt>
      <trkpt lat="45.58218" lon="4.78077">
        <ele>160.75</ele>
        <time>2019-05-25T09:54:50.000Z</time>
      </trkpt>
      <trkpt lat="45.58202" lon="4.78056">
        <ele>160.63</ele>
        <time>2019-05-25T09:54:55.000Z</time>
      </trkpt>
      <trkpt lat="45.58189" lon="4.78036">
        <ele>162.54</ele>
        <time>2019-05-25T09:55:00.000Z</time>
      </trkpt>
      <trkpt lat="45.58175" lon="4.78017">
        <ele>163.74</ele>
        <time>2019-05-25T09:55:05.000Z</time>
      </trkpt>
      <trkpt lat="45.5816" lon="4.77997">
        <ele>163.99</ele>
        <time>2019-05-25T09:55:10.000Z</time>
      </trkpt>
      <trkpt lat="45.58145" lon="4.77974">
        <ele>164.8</ele>
        <time>2019-05-25T09:55:15.000Z</time>
      </trkpt>
      <trkpt lat="45.58126" lon="4.77948">
        <ele>163.81</ele>
        <time>2019-05-25T09:55:20.000Z</time>
      </trkpt>
      <trkpt lat="45.58104" lon="4.77917">
        <ele>163.8</ele>
        <time>2019-05-25T09:55:25.000Z</time>
      </trkpt>
      <trkpt lat="45.58087" lon="4.77892">
        <ele>162.82</ele>
        <time>2019-05-25T09:55:30.000Z</time>
      </trkpt>
      <trkpt lat="45.58081" lon="4.77883">
        <ele>161.82</ele>
        <time>2019-05-25T09:55:36.000Z</time>
      </trkpt>
      <trkpt lat="45.58074" lon="4.77871">
        <ele>158.82</ele>
        <time>2019-05-25T09:55:56.000Z</time>
      </trkpt>
      <trkpt lat="45.58056" lon="4.77885">
        <ele>158.8</ele>
        <time>2019-05-25T09:56:01.000Z</time>
      </trkpt>
      <trkpt lat="45.58039" lon="4.77913">
        <ele>157.12</ele>
        <time>2019-05-25T09:56:06.000Z</time>
      </trkpt>
      <trkpt lat="45.58021" lon="4.77949">
        <ele>156.82</ele>
        <time>2019-05-25T09:56:11.000Z</time>
      </trkpt>
      <trkpt lat="45.58008" lon="4.77988">
        <ele>156.82</ele>
        <time>2019-05-25T09:56:16.000Z</time>
      </trkpt>
      <trkpt lat="45.57994" lon="4.78029">
        <ele>157.57</ele>
        <time>2019-05-25T09:56:21.000Z</time>
      </trkpt>
      <trkpt lat="45.5798" lon="4.7807">
        <ele>157.81</ele>
        <time>2019-05-25T09:56:26.000Z</time>
      </trkpt>
      <trkpt lat="45.57966" lon="4.78112">
        <ele>158.74</ele>
        <time>2019-05-25T09:56:31.000Z</time>
      </trkpt>
      <trkpt lat="45.57952" lon="4.78153">
        <ele>158.06</ele>
        <time>2019-05-25T09:56:36.000Z</time>
      </trkpt>
      <trkpt lat="45.57939" lon="4.78194">
        <ele>157.81</ele>
        <time>2019-05-25T09:56:41.000Z</time>
      </trkpt>
      <trkpt lat="45.57926" lon="4.78234">
        <ele>156.86</ele>
        <time>2019-05-25T09:56:46.000Z</time>
      </trkpt>
      <trkpt lat="45.57912" lon="4.78276">
        <ele>158.55</ele>
        <time>2019-05-25T09:56:51.000Z</time>
      </trkpt>
      <trkpt lat="45.57897" lon="4.78319">
        <ele>158.82</ele>
        <time>2019-05-25T09:56:56.000Z</time>
      </trkpt>
      <trkpt lat="45.57881" lon="4.78361">
        <ele>159.75</ele>
        <time>2019-05-25T09:57:01.000Z</time>
      </trkpt>
      <trkpt lat="45.57867" lon="4.78401">
        <ele>160.56</ele>
        <time>2019-05-25T09:57:06.000Z</time>
      </trkpt>
      <trkpt lat="45.57856" lon="4.78441">
        <ele>161.75</ele>
        <time>2019-05-25T09:57:11.000Z</time>
      </trkpt>
      <trkpt lat="45.57843" lon="4.78484">
        <ele>161.8</ele>
        <time>2019-05-25T09:57:16.000Z</time>
      </trkpt>
      <trkpt lat="45.5783" lon="4.78529">
        <ele>162.56</ele>
        <time>2019-05-25T09:57:21.000Z</time>
      </trkpt>
      <trkpt lat="45.57817" lon="4.78576">
        <ele>162.83</ele>
        <time>2019-05-25T09:57:26.000Z</time>
      </trkpt>
      <trkpt lat="45.57803" lon="4.78619">
        <ele>161.83</ele>
        <time>2019-05-25T09:57:31.000Z</time>
      </trkpt>
      <trkpt lat="45.57787" lon="4.78663">
        <ele>160.88</ele>
        <time>2019-05-25T09:57:36.000Z</time>
      </trkpt>
      <trkpt lat="45.5777" lon="4.78705">
        <ele>159.63</ele>
        <time>2019-05-25T09:57:41.000Z</time>
      </trkpt>
      <trkpt lat="45.57749" lon="4.78744">
        <ele>160.81</ele>
        <time>2019-05-25T09:57:46.000Z</time>
      </trkpt>
      <trkpt lat="45.57726" lon="4.78782">
        <ele>157.84</ele>
        <time>2019-05-25T09:57:51.000Z</time>
      </trkpt>
      <trkpt lat="45.57703" lon="4.78818">
        <ele>157.82</ele>
        <time>2019-05-25T09:57:56.000Z</time>
      </trkpt>
      <trkpt lat="45.57678" lon="4.78852">
        <ele>157.63</ele>
        <time>2019-05-25T09:58:01.000Z</time>
      </trkpt>
      <trkpt lat="45.57655" lon="4.78886">
        <ele>156.65</ele>
        <time>2019-05-25T09:58:06.000Z</time>
      </trkpt>
      <trkpt lat="45.57632" lon="4.7892">
        <ele>158.05</ele>
        <time>2019-05-25T09:58:11.000Z</time>
      </trkpt>
      <trkpt lat="45.57609" lon="4.78952">
        <ele>159.76</ele>
        <time>2019-05-25T09:58:16.000Z</time>
      </trkpt>
      <trkpt lat="45.57586" lon="4.7898">
        <ele>160.59</ele>
        <time>2019-05-25T09:58:21.000Z</time>
      </trkpt>
      <trkpt lat="45.57566" lon="4.79006">
        <ele>160.82</ele>
        <time>2019-05-25T09:58:26.000Z</time>
      </trkpt>
      <trkpt lat="45.57554" lon="4.79022">
        <ele>160.83</ele>
        <time>2019-05-25T09:58:31.000Z</time>
      </trkpt>
      <trkpt lat="45.57546" lon="4.79033">
        <ele>160.84</ele>
        <time>2019-05-25T09:58:45.000Z</time>
      </trkpt>
      <trkpt lat="45.57531" lon="4.79051">
        <ele>161.01</ele>
        <time>2019-05-25T09:58:50.000Z</time>
      </trkpt>
      <trkpt lat="45.57514" lon="4.79072">
        <ele>158.84</ele>
        <time>2019-05-25T09:58:55.000Z</time>
      </trkpt>
      <trkpt lat="45.57495" lon="4.79094">
        <ele>158.82</ele>
        <time>2019-05-25T09:59:00.000Z</time>
      </trkpt>
      <trkpt lat="45.57476" lon="4.79117">
        <ele>158.82</ele>
        <time>2019-05-25T09:59:05.000Z</time>
      </trkpt>
      <trkpt lat="45.57456" lon="4.79141">
        <ele>160</ele>
        <time>2019-05-25T09:59:10.000Z</time>
      </trkpt>
      <trkpt lat="45.57436" lon="4.79167">
        <ele>161.07</ele>
        <time>2019-05-25T09:59:15.000Z</time>
      </trkpt>
      <trkpt lat="45.57416" lon="4.79191">
        <ele>162.76</ele>
        <time>2019-05-25T09:59:20.000Z</time>
      </trkpt>
      <trkpt lat="45.57396" lon="4.79217">
        <ele>162.83</ele>
        <time>2019-05-25T09:59:25.000Z</time>
      </trkpt>
      <trkpt lat="45.57376" lon="4.79241">
        <ele>162.87</ele>
        <time>2019-05-25T09:59:30.000Z</time>
      </trkpt>
      <trkpt lat="45.57355" lon="4.79263">
        <ele>163.81</ele>
        <time>2019-05-25T09:59:35.000Z</time>
      </trkpt>
      <trkpt lat="45.57335" lon="4.7929">
        <ele>165.76</ele>
        <time>2019-05-25T09:59:40.000Z</time>
      </trkpt>
      <trkpt lat="45.57314" lon="4.79314">
        <ele>165.84</ele>
        <time>2019-05-25T09:59:45.000Z</time>
      </trkpt>
      <trkpt lat="45.57296" lon="4.79337">
        <ele>166.76</ele>
        <time>2019-05-25T09:59:50.000Z</time>
      </trkpt>
      <trkpt lat="45.5728" lon="4.79354">
        <ele>167.53</ele>
        <time>2019-05-25T09:59:55.000Z</time>
      </trkpt>
      <trkpt lat="45.57264" lon="4.79373">
        <ele>166.84</ele>
        <time>2019-05-25T10:00:00.000Z</time>
      </trkpt>
      <trkpt lat="45.57248" lon="4.7939">
        <ele>166.83</ele>
        <time>2019-05-25T10:00:05.000Z</time>
      </trkpt>
      <trkpt lat="45.57234" lon="4.79409">
        <ele>166.89</ele>
        <time>2019-05-25T10:00:10.000Z</time>
      </trkpt>
      <trkpt lat="45.57219" lon="4.79426">
        <ele>167.64</ele>
        <time>2019-05-25T10:00:15.000Z</time>
      </trkpt>
      <trkpt lat="45.57203" lon="4.7941">
        <ele>168.81</ele>
        <time>2019-05-25T10:00:20.000Z</time>
      </trkpt>
      <trkpt lat="45.57197" lon="4.79386">
        <ele>169.58</ele>
        <time>2019-05-25T10:00:25.000Z</time>
      </trkpt>
      <trkpt lat="45.57194" lon="4.79368">
        <ele>171.56</ele>
        <time>2019-05-25T10:00:30.000Z</time>
      </trkpt>
      <trkpt lat="45.57189" lon="4.79353">
        <ele>171.83</ele>
        <time>2019-05-25T10:00:35.000Z</time>
      </trkpt>
      <trkpt lat="45.57177" lon="4.79344">
        <ele>170.83</ele>
        <time>2019-05-25T10:00:40.000Z</time>
      </trkpt>
      <trkpt lat="45.57156" lon="4.79339">
        <ele>170.63</ele>
        <time>2019-05-25T10:00:45.000Z</time>
      </trkpt>
      <trkpt lat="45.5713" lon="4.79348">
        <ele>170.77</ele>
        <time>2019-05-25T10:00:50.000Z</time>
      </trkpt>
      <trkpt lat="45.57104" lon="4.79365">
        <ele>169.83</ele>
        <time>2019-05-25T10:00:55.000Z</time>
      </trkpt>
      <trkpt lat="45.57081" lon="4.79392">
        <ele>168.87</ele>
        <time>2019-05-25T10:01:00.000Z</time>
      </trkpt>
      <trkpt lat="45.57057" lon="4.79422">
        <ele>168.59</ele>
        <time>2019-05-25T10:01:05.000Z</time>
      </trkpt>
      <trkpt lat="45.57034" lon="4.7945">
        <ele>168.83</ele>
        <time>2019-05-25T10:01:10.000Z</time>
      </trkpt>
      <trkpt lat="45.57008" lon="4.79476">
        <ele>170.51</ele>
        <time>2019-05-25T10:01:15.000Z</time>
      </trkpt>
      <trkpt lat="45.56981" lon="4.79499">
        <ele>170.83</ele>
        <time>2019-05-25T10:01:20.000Z</time>
      </trkpt>
      <trkpt lat="45.56954" lon="4.79519">
        <ele>169.64</ele>
        <time>2019-05-25T10:01:25.000Z</time>
      </trkpt>
      <trkpt lat="45.56926" lon="4.79536">
        <ele>169.84</ele>
        <time>2019-05-25T10:01:30.000Z</time>
      </trkpt>
      <trkpt lat="45.56899" lon="4.79552">
        <ele>169.87</ele>
        <time>2019-05-25T10:01:35.000Z</time>
      </trkpt>
      <trkpt lat="45.56871" lon="4.79568">
        <ele>171.56</ele>
        <time>2019-05-25T10:01:40.000Z</time>
      </trkpt>
      <trkpt lat="45.56847" lon="4.79584">
        <ele>172.76</ele>
        <time>2019-05-25T10:01:45.000Z</time>
      </trkpt>
      <trkpt lat="45.56824" lon="4.79602">
        <ele>171.13</ele>
        <time>2019-05-25T10:01:50.000Z</time>
      </trkpt>
      <trkpt lat="45.56799" lon="4.7962">
        <ele>171.59</ele>
        <time>2019-05-25T10:01:55.000Z</time>
      </trkpt>
      <trkpt lat="45.56771" lon="4.79639">
        <ele>173.57</ele>
        <time>2019-05-25T10:02:00.000Z</time>
      </trkpt>
      <trkpt lat="45.56742" lon="4.79655">
        <ele>172.89</ele>
        <time>2019-05-25T10:02:05.000Z</time>
      </trkpt>
      <trkpt lat="45.56713" lon="4.79669">
        <ele>172.69</ele>
        <time>2019-05-25T10:02:10.000Z</time>
      </trkpt>
      <trkpt lat="45.56686" lon="4.7969">
        <ele>171.89</ele>
        <time>2019-05-25T10:02:15.000Z</time>
      </trkpt>
      <trkpt lat="45.56659" lon="4.79712">
        <ele>172.59</ele>
        <time>2019-05-25T10:02:20.000Z</time>
      </trkpt>
      <trkpt lat="45.56633" lon="4.79732">
        <ele>171.89</ele>
        <time>2019-05-25T10:02:25.000Z</time>
      </trkpt>
      <trkpt lat="45.56608" lon="4.79754">
        <ele>173.47</ele>
        <time>2019-05-25T10:02:30.000Z</time>
      </trkpt>
      <trkpt lat="45.566" lon="4.79794">
        <ele>171.14</ele>
        <time>2019-05-25T10:02:35.000Z</time>
      </trkpt>
      <trkpt lat="45.56591" lon="4.79839">
        <ele>170.84</ele>
        <time>2019-05-25T10:02:40.000Z</time>
      </trkpt>
      <trkpt lat="45.56584" lon="4.79887">
        <ele>169.83</ele>
        <time>2019-05-25T10:02:45.000Z</time>
      </trkpt>
      <trkpt lat="45.5658" lon="4.79932">
        <ele>168.85</ele>
        <time>2019-05-25T10:02:50.000Z</time>
      </trkpt>
      <trkpt lat="45.56579" lon="4.79945">
        <ele>167.6</ele>
        <time>2019-05-25T10:03:14.000Z</time>
      </trkpt>
      <trkpt lat="45.5657" lon="4.79962">
        <ele>167.85</ele>
        <time>2019-05-25T10:03:19.000Z</time>
      </trkpt>
      <trkpt lat="45.56553" lon="4.79986">
        <ele>166.1</ele>
        <time>2019-05-25T10:03:24.000Z</time>
      </trkpt>
      <trkpt lat="45.56532" lon="4.80018">
        <ele>164.1</ele>
        <time>2019-05-25T10:03:29.000Z</time>
      </trkpt>
      <trkpt lat="45.56505" lon="4.8005">
        <ele>162.84</ele>
        <time>2019-05-25T10:03:34.000Z</time>
      </trkpt>
      <trkpt lat="45.56478" lon="4.8008">
        <ele>164.33</ele>
        <time>2019-05-25T10:03:39.000Z</time>
      </trkpt>
      <trkpt lat="45.56451" lon="4.80111">
        <ele>163.04</ele>
        <time>2019-05-25T10:03:44.000Z</time>
      </trkpt>
      <trkpt lat="45.56424" lon="4.8014">
        <ele>163.82</ele>
        <time>2019-05-25T10:03:49.000Z</time>
      </trkpt>
      <trkpt lat="45.56399" lon="4.80168">
        <ele>162.85</ele>
        <time>2019-05-25T10:03:54.000Z</time>
      </trkpt>
      <trkpt lat="45.56375" lon="4.80192">
        <ele>163.59</ele>
        <time>2019-05-25T10:03:59.000Z</time>
      </trkpt>
      <trkpt lat="45.56351" lon="4.8022">
        <ele>162.85</ele>
        <time>2019-05-25T10:04:04.000Z</time>
      </trkpt>
      <trkpt lat="45.56327" lon="4.80239">
        <ele>163.6</ele>
        <time>2019-05-25T10:04:09.000Z</time>
      </trkpt>
      <trkpt lat="45.56316" lon="4.80246">
        <ele>163.09</ele>
        <time>2019-05-25T10:04:18.000Z</time>
      </trkpt>
      <trkpt lat="45.56302" lon="4.80261">
        <ele>161.65</ele>
        <time>2019-05-25T10:04:23.000Z</time>
      </trkpt>
      <trkpt lat="45.56286" lon="4.80282">
        <ele>163.51</ele>
        <time>2019-05-25T10:04:28.000Z</time>
      </trkpt>
      <trkpt lat="45.56277" lon="4.80312">
        <ele>164.59</ele>
        <time>2019-05-25T10:04:33.000Z</time>
      </trkpt>
      <trkpt lat="45.56273" lon="4.80343">
        <ele>161.86</ele>
        <time>2019-05-25T10:04:38.000Z</time>
      </trkpt>
      <trkpt lat="45.56267" lon="4.80377">
        <ele>161.79</ele>
        <time>2019-05-25T10:04:43.000Z</time>
      </trkpt>
      <trkpt lat="45.56253" lon="4.80407">
        <ele>162.6</ele>
        <time>2019-05-25T10:04:48.000Z</time>
      </trkpt>
      <trkpt lat="45.56241" lon="4.80429">
        <ele>161.85</ele>
        <time>2019-05-25T10:04:53.000Z</time>
      </trkpt>
      <trkpt lat="45.56219" lon="4.80434">
        <ele>160.9</ele>
        <time>2019-05-25T10:04:58.000Z</time>
      </trkpt>
      <trkpt lat="45.56197" lon="4.8043">
        <ele>160.89</ele>
        <time>2019-05-25T10:05:03.000Z</time>
      </trkpt>
      <trkpt lat="45.56174" lon="4.80441">
        <ele>162.02</ele>
        <time>2019-05-25T10:05:08.000Z</time>
      </trkpt>
      <trkpt lat="45.56152" lon="4.80461">
        <ele>160.9</ele>
        <time>2019-05-25T10:05:13.000Z</time>
      </trkpt>
      <trkpt lat="45.56131" lon="4.8048">
        <ele>162.53</ele>
        <time>2019-05-25T10:05:18.000Z</time>
      </trkpt>
      <trkpt lat="45.56109" lon="4.80496">
        <ele>162.84</ele>
        <time>2019-05-25T10:05:23.000Z</time>
      </trkpt>
      <trkpt lat="45.56086" lon="4.80513">
        <ele>161.84</ele>
        <time>2019-05-25T10:05:28.000Z</time>
      </trkpt>
      <trkpt lat="45.56063" lon="4.80529">
        <ele>162.84</ele>
        <time>2019-05-25T10:05:33.000Z</time>
      </trkpt>
      <trkpt lat="45.56042" lon="4.80542">
        <ele>164.82</ele>
        <time>2019-05-25T10:05:38.000Z</time>
      </trkpt>
      <trkpt lat="45.56023" lon="4.80548">
        <ele>164.84</ele>
        <time>2019-05-25T10:05:43.000Z</time>
      </trkpt>
      <trkpt lat="45.56007" lon="4.80551">
        <ele>165.82</ele>
        <time>2019-05-25T10:05:48.000Z</time>
      </trkpt>
      <trkpt lat="45.55992" lon="4.8055">
        <ele>165.84</ele>
        <time>2019-05-25T10:05:53.000Z</time>
      </trkpt>
      <trkpt lat="45.5598" lon="4.80548">
        <ele>167.82</ele>
        <time>2019-05-25T10:05:58.000Z</time>
      </trkpt>
      <trkpt lat="45.55967" lon="4.80551">
        <ele>168.78</ele>
        <time>2019-05-25T10:06:03.000Z</time>
      </trkpt>
      <trkpt lat="45.55953" lon="4.80544">
        <ele>168.83</ele>
        <time>2019-05-25T10:06:08.000Z</time>
      </trkpt>
      <trkpt lat="45.55942" lon="4.80532">
        <ele>168.59</ele>
        <time>2019-05-25T10:06:13.000Z</time>
      </trkpt>
      <trkpt lat="45.55931" lon="4.80521">
        <ele>170.57</ele>
        <time>2019-05-25T10:06:18.000Z</time>
      </trkpt>
      <trkpt lat="45.55925" lon="4.80509">
        <ele>171.84</ele>
        <time>2019-05-25T10:06:23.000Z</time>
      </trkpt>
      <trkpt lat="45.55919" lon="4.80497">
        <ele>173.58</ele>
        <time>2019-05-25T10:06:29.000Z</time>
      </trkpt>
      <trkpt lat="45.55927" lon="4.80516">
        <ele>175.9</ele>
        <time>2019-05-25T10:07:08.000Z</time>
      </trkpt>
      <trkpt lat="45.55945" lon="4.80543">
        <ele>171.17</ele>
        <time>2019-05-25T10:07:13.000Z</time>
      </trkpt>
      <trkpt lat="45.55967" lon="4.80563">
        <ele>170.04</ele>
        <time>2019-05-25T10:07:18.000Z</time>
      </trkpt>
      <trkpt lat="45.55984" lon="4.80585">
        <ele>169.84</ele>
        <time>2019-05-25T10:07:23.000Z</time>
      </trkpt>
      <trkpt lat="45.55997" lon="4.80617">
        <ele>169.89</ele>
        <time>2019-05-25T10:07:28.000Z</time>
      </trkpt>
      <trkpt lat="45.56004" lon="4.80651">
        <ele>167.11</ele>
        <time>2019-05-25T10:07:33.000Z</time>
      </trkpt>
      <trkpt lat="45.56003" lon="4.8067">
        <ele>167.83</ele>
        <time>2019-05-25T10:07:38.000Z</time>
      </trkpt>
      <trkpt lat="45.56002" lon="4.80684">
        <ele>166.9</ele>
        <time>2019-05-25T10:07:43.000Z</time>
      </trkpt>
      <trkpt lat="45.5601" lon="4.80706">
        <ele>166.09</ele>
        <time>2019-05-25T10:07:48.000Z</time>
      </trkpt>
      <trkpt lat="45.56017" lon="4.80739">
        <ele>163.16</ele>
        <time>2019-05-25T10:07:53.000Z</time>
      </trkpt>
      <trkpt lat="45.56029" lon="4.80779">
        <ele>160.86</ele>
        <time>2019-05-25T10:07:58.000Z</time>
      </trkpt>
      <trkpt lat="45.5604" lon="4.80811">
        <ele>162.16</ele>
        <time>2019-05-25T10:08:03.000Z</time>
      </trkpt>
      <trkpt lat="45.56044" lon="4.80831">
        <ele>159.86</ele>
        <time>2019-05-25T10:08:08.000Z</time>
      </trkpt>
      <trkpt lat="45.56051" lon="4.80841">
        <ele>160.78</ele>
        <time>2019-05-25T10:08:25.000Z</time>
      </trkpt>
      <trkpt lat="45.56057" lon="4.80861">
        <ele>160.85</ele>
        <time>2019-05-25T10:08:30.000Z</time>
      </trkpt>
      <trkpt lat="45.56067" lon="4.80886">
        <ele>160.66</ele>
        <time>2019-05-25T10:08:35.000Z</time>
      </trkpt>
      <trkpt lat="45.56086" lon="4.8091">
        <ele>159.09</ele>
        <time>2019-05-25T10:08:40.000Z</time>
      </trkpt>
      <trkpt lat="45.56104" lon="4.80936">
        <ele>159.61</ele>
        <time>2019-05-25T10:08:45.000Z</time>
      </trkpt>
      <trkpt lat="45.56105" lon="4.80963">
        <ele>158.85</ele>
        <time>2019-05-25T10:08:50.000Z</time>
      </trkpt>
      <trkpt lat="45.56107" lon="4.80992">
        <ele>158.85</ele>
        <time>2019-05-25T10:08:55.000Z</time>
      </trkpt>
      <trkpt lat="45.56103" lon="4.81022">
        <ele>157.91</ele>
        <time>2019-05-25T10:09:00.000Z</time>
      </trkpt>
      <trkpt lat="45.56102" lon="4.8105">
        <ele>158.6</ele>
        <time>2019-05-25T10:09:05.000Z</time>
      </trkpt>
      <trkpt lat="45.56107" lon="4.81063">
        <ele>157.86</ele>
        <time>2019-05-25T10:09:10.000Z</time>
      </trkpt>
      <trkpt lat="45.56112" lon="4.8108">
        <ele>157.1</ele>
        <time>2019-05-25T10:09:15.000Z</time>
      </trkpt>
      <trkpt lat="45.56119" lon="4.81103">
        <ele>157.79</ele>
        <time>2019-05-25T10:09:20.000Z</time>
      </trkpt>
      <trkpt lat="45.56124" lon="4.8113">
        <ele>157.86</ele>
        <time>2019-05-25T10:09:25.000Z</time>
      </trkpt>
      <trkpt lat="45.56133" lon="4.81158">
        <ele>157.79</ele>
        <time>2019-05-25T10:09:30.000Z</time>
      </trkpt>
      <trkpt lat="45.5614" lon="4.81178">
        <ele>156.92</ele>
        <time>2019-05-25T10:09:35.000Z</time>
      </trkpt>
      <trkpt lat="45.56139" lon="4.81201">
        <ele>155.92</ele>
        <time>2019-05-25T10:09:40.000Z</time>
      </trkpt>
      <trkpt lat="45.56127" lon="4.81216">
        <ele>155.86</ele>
        <time>2019-05-25T10:09:45.000Z</time>
      </trkpt>
      <trkpt lat="45.56113" lon="4.81224">
        <ele>155.09</ele>
        <time>2019-05-25T10:09:50.000Z</time>
      </trkpt>
      <trkpt lat="45.561" lon="4.81235">
        <ele>155.61</ele>
        <time>2019-05-25T10:09:55.000Z</time>
      </trkpt>
      <trkpt lat="45.56081" lon="4.81251">
        <ele>156.04</ele>
        <time>2019-05-25T10:10:00.000Z</time>
      </trkpt>
      <trkpt lat="45.5606" lon="4.81268">
        <ele>156.86</ele>
        <time>2019-05-25T10:10:05.000Z</time>
      </trkpt>
      <trkpt lat="45.56033" lon="4.81286">
        <ele>158.29</ele>
        <time>2019-05-25T10:10:10.000Z</time>
      </trkpt>
      <trkpt lat="45.56007" lon="4.81302">
        <ele>156.17</ele>
        <time>2019-05-25T10:10:15.000Z</time>
      </trkpt>
      <trkpt lat="45.5598" lon="4.81322">
        <ele>157.84</ele>
        <time>2019-05-25T10:10:20.000Z</time>
      </trkpt>
      <trkpt lat="45.55953" lon="4.81339">
        <ele>157.86</ele>
        <time>2019-05-25T10:10:25.000Z</time>
      </trkpt>
      <trkpt lat="45.55928" lon="4.81356">
        <ele>157.86</ele>
        <time>2019-05-25T10:10:30.000Z</time>
      </trkpt>
      <trkpt lat="45.55901" lon="4.81373">
        <ele>156.92</ele>
        <time>2019-05-25T10:10:35.000Z</time>
      </trkpt>
      <trkpt lat="45.55874" lon="4.8139">
        <ele>156.86</ele>
        <time>2019-05-25T10:10:40.000Z</time>
      </trkpt>
      <trkpt lat="45.55848" lon="4.81404">
        <ele>154.64</ele>
        <time>2019-05-25T10:10:45.000Z</time>
      </trkpt>
      <trkpt lat="45.55823" lon="4.8142">
        <ele>156.54</ele>
        <time>2019-05-25T10:10:50.000Z</time>
      </trkpt>
      <trkpt lat="45.55799" lon="4.81439">
        <ele>156.92</ele>
        <time>2019-05-25T10:10:55.000Z</time>
      </trkpt>
      <trkpt lat="45.55773" lon="4.81454">
        <ele>156.86</ele>
        <time>2019-05-25T10:11:00.000Z</time>
      </trkpt>
      <trkpt lat="45.55747" lon="4.81471">
        <ele>155.87</ele>
        <time>2019-05-25T10:11:05.000Z</time>
      </trkpt>
      <trkpt lat="45.55721" lon="4.81489">
        <ele>154.92</ele>
        <time>2019-05-25T10:11:10.000Z</time>
      </trkpt>
      <trkpt lat="45.55693" lon="4.81506">
        <ele>151.87</ele>
        <time>2019-05-25T10:11:15.000Z</time>
      </trkpt>
      <trkpt lat="45.55667" lon="4.81525">
        <ele>153.6</ele>
        <time>2019-05-25T10:11:20.000Z</time>
      </trkpt>
      <trkpt lat="45.55639" lon="4.81546">
        <ele>155.54</ele>
        <time>2019-05-25T10:11:25.000Z</time>
      </trkpt>
      <trkpt lat="45.5561" lon="4.81566">
        <ele>156.9</ele>
        <time>2019-05-25T10:11:30.000Z</time>
      </trkpt>
      <trkpt lat="45.55583" lon="4.81588">
        <ele>156.86</ele>
        <time>2019-05-25T10:11:35.000Z</time>
      </trkpt>
      <trkpt lat="45.55556" lon="4.81614">
        <ele>157.85</ele>
        <time>2019-05-25T10:11:40.000Z</time>
      </trkpt>
      <trkpt lat="45.5553" lon="4.81642">
        <ele>157.62</ele>
        <time>2019-05-25T10:11:45.000Z</time>
      </trkpt>
      <trkpt lat="45.55504" lon="4.81675">
        <ele>160.52</ele>
        <time>2019-05-25T10:11:50.000Z</time>
      </trkpt>
      <trkpt lat="45.55482" lon="4.81707">
        <ele>160.67</ele>
        <time>2019-05-25T10:11:55.000Z</time>
      </trkpt>
      <trkpt lat="45.5546" lon="4.81742">
        <ele>159.11</ele>
        <time>2019-05-25T10:12:00.000Z</time>
      </trkpt>
      <trkpt lat="45.55441" lon="4.81777">
        <ele>156.93</ele>
        <time>2019-05-25T10:12:05.000Z</time>
      </trkpt>
      <trkpt lat="45.55422" lon="4.81814">
        <ele>155.88</ele>
        <time>2019-05-25T10:12:10.000Z</time>
      </trkpt>
      <trkpt lat="45.55405" lon="4.81851">
        <ele>154.86</ele>
        <time>2019-05-25T10:12:15.000Z</time>
      </trkpt>
      <trkpt lat="45.55385" lon="4.81889">
        <ele>154</ele>
        <time>2019-05-25T10:12:20.000Z</time>
      </trkpt>
      <trkpt lat="45.55367" lon="4.81925">
        <ele>153.91</ele>
        <time>2019-05-25T10:12:25.000Z</time>
      </trkpt>
      <trkpt lat="45.55345" lon="4.81958">
        <ele>153.91</ele>
        <time>2019-05-25T10:12:30.000Z</time>
      </trkpt>
      <trkpt lat="45.55318" lon="4.81987">
        <ele>153.82</ele>
        <time>2019-05-25T10:12:35.000Z</time>
      </trkpt>
      <trkpt lat="45.55294" lon="4.82013">
        <ele>155.91</ele>
        <time>2019-05-25T10:12:40.000Z</time>
      </trkpt>
      <trkpt lat="45.55269" lon="4.82035">
        <ele>155.85</ele>
        <time>2019-05-25T10:12:45.000Z</time>
      </trkpt>
      <trkpt lat="45.55245" lon="4.8206">
        <ele>154.88</ele>
        <time>2019-05-25T10:12:50.000Z</time>
      </trkpt>
      <trkpt lat="45.55221" lon="4.82083">
        <ele>152.94</ele>
        <time>2019-05-25T10:12:55.000Z</time>
      </trkpt>
      <trkpt lat="45.55199" lon="4.82115">
        <ele>154.88</ele>
        <time>2019-05-25T10:13:00.000Z</time>
      </trkpt>
      <trkpt lat="45.55187" lon="4.82138">
        <ele>156.8</ele>
        <time>2019-05-25T10:13:05.000Z</time>
      </trkpt>
      <trkpt lat="45.55188" lon="4.82157">
        <ele>156.87</ele>
        <time>2019-05-25T10:13:10.000Z</time>
      </trkpt>
      <trkpt lat="45.55174" lon="4.8218">
        <ele>156.87</ele>
        <time>2019-05-25T10:13:15.000Z</time>
      </trkpt>
      <trkpt lat="45.55158" lon="4.8221">
        <ele>154.87</ele>
        <time>2019-05-25T10:13:20.000Z</time>
      </trkpt>
      <trkpt lat="45.55142" lon="4.82242">
        <ele>154.62</ele>
        <time>2019-05-25T10:13:25.000Z</time>
      </trkpt>
      <trkpt lat="45.55125" lon="4.82272">
        <ele>155.81</ele>
        <time>2019-05-25T10:13:30.000Z</time>
      </trkpt>
      <trkpt lat="45.55107" lon="4.823">
        <ele>156.81</ele>
        <time>2019-05-25T10:13:35.000Z</time>
      </trkpt>
      <trkpt lat="45.55088" lon="4.82329">
        <ele>157.81</ele>
        <time>2019-05-25T10:13:40.000Z</time>
      </trkpt>
      <trkpt lat="45.55067" lon="4.82357">
        <ele>156.12</ele>
        <time>2019-05-25T10:13:45.000Z</time>
      </trkpt>
      <trkpt lat="45.55043" lon="4.82383">
        <ele>156.12</ele>
        <time>2019-05-25T10:13:50.000Z</time>
      </trkpt>
      <trkpt lat="45.55016" lon="4.82409">
        <ele>156.62</ele>
        <time>2019-05-25T10:13:55.000Z</time>
      </trkpt>
      <trkpt lat="45.5499" lon="4.82432">
        <ele>156.87</ele>
        <time>2019-05-25T10:14:00.000Z</time>
      </trkpt>
      <trkpt lat="45.54966" lon="4.82454">
        <ele>157.81</ele>
        <time>2019-05-25T10:14:05.000Z</time>
      </trkpt>
      <trkpt lat="45.54941" lon="4.82475">
        <ele>157.12</ele>
        <time>2019-05-25T10:14:10.000Z</time>
      </trkpt>
      <trkpt lat="45.54914" lon="4.82498">
        <ele>156.92</ele>
        <time>2019-05-25T10:14:15.000Z</time>
      </trkpt>
      <trkpt lat="45.54888" lon="4.82522">
        <ele>158.1</ele>
        <time>2019-05-25T10:14:20.000Z</time>
      </trkpt>
      <trkpt lat="45.54861" lon="4.82546">
        <ele>158.63</ele>
        <time>2019-05-25T10:14:25.000Z</time>
      </trkpt>
      <trkpt lat="45.54834" lon="4.82569">
        <ele>160.11</ele>
        <time>2019-05-25T10:14:30.000Z</time>
      </trkpt>
      <trkpt lat="45.54807" lon="4.82591">
        <ele>159.83</ele>
        <time>2019-05-25T10:14:35.000Z</time>
      </trkpt>
      <trkpt lat="45.54782" lon="4.82616">
        <ele>158.89</ele>
        <time>2019-05-25T10:14:40.000Z</time>
      </trkpt>
      <trkpt lat="45.54754" lon="4.8264">
        <ele>157.89</ele>
        <time>2019-05-25T10:14:45.000Z</time>
      </trkpt>
      <trkpt lat="45.54727" lon="4.82664">
        <ele>158.86</ele>
        <time>2019-05-25T10:14:50.000Z</time>
      </trkpt>
      <trkpt lat="45.54705" lon="4.82693">
        <ele>158.87</ele>
        <time>2019-05-25T10:14:55.000Z</time>
      </trkpt>
      <trkpt lat="45.54688" lon="4.82723">
        <ele>159.81</ele>
        <time>2019-05-25T10:15:00.000Z</time>
      </trkpt>
      <trkpt lat="45.54679" lon="4.82764">
        <ele>158.11</ele>
        <time>2019-05-25T10:15:05.000Z</time>
      </trkpt>
      <trkpt lat="45.54676" lon="4.82806">
        <ele>158.62</ele>
        <time>2019-05-25T10:15:10.000Z</time>
      </trkpt>
      <trkpt lat="45.54674" lon="4.82851">
        <ele>157.64</ele>
        <time>2019-05-25T10:15:15.000Z</time>
      </trkpt>
      <trkpt lat="45.54672" lon="4.82896">
        <ele>157.82</ele>
        <time>2019-05-25T10:15:20.000Z</time>
      </trkpt>
      <trkpt lat="45.54659" lon="4.82935">
        <ele>158.88</ele>
        <time>2019-05-25T10:15:25.000Z</time>
      </trkpt>
      <trkpt lat="45.54636" lon="4.82965">
        <ele>156.88</ele>
        <time>2019-05-25T10:15:30.000Z</time>
      </trkpt>
      <trkpt lat="45.54612" lon="4.82998">
        <ele>155.94</ele>
        <time>2019-05-25T10:15:35.000Z</time>
      </trkpt>
      <trkpt lat="45.5459" lon="4.83028">
        <ele>155.88</ele>
        <time>2019-05-25T10:15:40.000Z</time>
      </trkpt>
      <trkpt lat="45.54567" lon="4.83061">
        <ele>155.93</ele>
        <time>2019-05-25T10:15:45.000Z</time>
      </trkpt>
      <trkpt lat="45.54545" lon="4.83095">
        <ele>155.88</ele>
        <time>2019-05-25T10:15:50.000Z</time>
      </trkpt>
      <trkpt lat="45.54522" lon="4.83128">
        <ele>155.88</ele>
        <time>2019-05-25T10:15:55.000Z</time>
      </trkpt>
      <trkpt lat="45.54502" lon="4.83163">
        <ele>157.05</ele>
        <time>2019-05-25T10:16:00.000Z</time>
      </trkpt>
      <trkpt lat="45.5448" lon="4.83196">
        <ele>156.9</ele>
        <time>2019-05-25T10:16:05.000Z</time>
      </trkpt>
      <trkpt lat="45.54458" lon="4.83229">
        <ele>155.95</ele>
        <time>2019-05-25T10:16:10.000Z</time>
      </trkpt>
      <trkpt lat="45.54437" lon="4.83264">
        <ele>155.88</ele>
        <time>2019-05-25T10:16:15.000Z</time>
      </trkpt>
      <trkpt lat="45.54415" lon="4.83299">
        <ele>154.84</ele>
        <time>2019-05-25T10:16:20.000Z</time>
      </trkpt>
      <trkpt lat="45.54395" lon="4.83336">
        <ele>153.2</ele>
        <time>2019-05-25T10:16:25.000Z</time>
      </trkpt>
      <trkpt lat="45.54375" lon="4.83372">
        <ele>154.63</ele>
        <time>2019-05-25T10:16:30.000Z</time>
      </trkpt>
      <trkpt lat="45.54356" lon="4.83408">
        <ele>154.93</ele>
        <time>2019-05-25T10:16:35.000Z</time>
      </trkpt>
      <trkpt lat="45.54338" lon="4.83446">
        <ele>155.82</ele>
        <time>2019-05-25T10:16:40.000Z</time>
      </trkpt>
      <trkpt lat="45.5432" lon="4.83483">
        <ele>153.89</ele>
        <time>2019-05-25T10:16:45.000Z</time>
      </trkpt>
      <trkpt lat="45.54302" lon="4.83519">
        <ele>155.82</ele>
        <time>2019-05-25T10:16:50.000Z</time>
      </trkpt>
      <trkpt lat="45.54285" lon="4.83557">
        <ele>155.14</ele>
        <time>2019-05-25T10:16:55.000Z</time>
      </trkpt>
      <trkpt lat="45.54268" lon="4.83597">
        <ele>155.87</ele>
        <time>2019-05-25T10:17:00.000Z</time>
      </trkpt>
      <trkpt lat="45.54253" lon="4.83638">
        <ele>155.89</ele>
        <time>2019-05-25T10:17:05.000Z</time>
      </trkpt>
      <trkpt lat="45.54238" lon="4.83678">
        <ele>155.64</ele>
        <time>2019-05-25T10:17:10.000Z</time>
      </trkpt>
      <trkpt lat="45.54223" lon="4.83719">
        <ele>155.84</ele>
        <time>2019-05-25T10:17:15.000Z</time>
      </trkpt>
      <trkpt lat="45.54208" lon="4.83762">
        <ele>155.83</ele>
        <time>2019-05-25T10:17:20.000Z</time>
      </trkpt>
      <trkpt lat="45.54193" lon="4.83803">
        <ele>156.89</ele>
        <time>2019-05-25T10:17:25.000Z</time>
      </trkpt>
      <trkpt lat="45.5418" lon="4.83846">
        <ele>156.89</ele>
        <time>2019-05-25T10:17:30.000Z</time>
      </trkpt>
      <trkpt lat="45.54168" lon="4.83888">
        <ele>155.9</ele>
        <time>2019-05-25T10:17:35.000Z</time>
      </trkpt>
      <trkpt lat="45.54156" lon="4.83931">
        <ele>156.83</ele>
        <time>2019-05-25T10:17:40.000Z</time>
      </trkpt>
      <trkpt lat="45.54145" lon="4.83971">
        <ele>155.91</ele>
        <time>2019-05-25T10:17:45.000Z</time>
      </trkpt>
      <trkpt lat="45.54136" lon="4.84012">
        <ele>155.9</ele>
        <time>2019-05-25T10:17:50.000Z</time>
      </trkpt>
      <trkpt lat="45.54129" lon="4.84053">
        <ele>154.9</ele>
        <time>2019-05-25T10:17:55.000Z</time>
      </trkpt>
      <trkpt lat="45.54119" lon="4.84095">
        <ele>155.9</ele>
        <time>2019-05-25T10:18:00.000Z</time>
      </trkpt>
      <trkpt lat="45.54108" lon="4.84137">
        <ele>156.65</ele>
        <time>2019-05-25T10:18:05.000Z</time>
      </trkpt>
      <trkpt lat="45.541" lon="4.84181">
        <ele>156.9</ele>
        <time>2019-05-25T10:18:10.000Z</time>
      </trkpt>
      <trkpt lat="45.54092" lon="4.84227">
        <ele>156.9</ele>
        <time>2019-05-25T10:18:15.000Z</time>
      </trkpt>
      <trkpt lat="45.54082" lon="4.84269">
        <ele>156.15</ele>
        <time>2019-05-25T10:18:20.000Z</time>
      </trkpt>
      <trkpt lat="45.54073" lon="4.84314">
        <ele>156.41</ele>
        <time>2019-05-25T10:18:25.000Z</time>
      </trkpt>
      <trkpt lat="45.54063" lon="4.84357">
        <ele>158.64</ele>
        <time>2019-05-25T10:18:30.000Z</time>
      </trkpt>
      <trkpt lat="45.54054" lon="4.84403">
        <ele>157.22</ele>
        <time>2019-05-25T10:18:35.000Z</time>
      </trkpt>
      <trkpt lat="45.54048" lon="4.84444">
        <ele>157.14</ele>
        <time>2019-05-25T10:18:40.000Z</time>
      </trkpt>
      <trkpt lat="45.5404" lon="4.84489">
        <ele>155.98</ele>
        <time>2019-05-25T10:18:45.000Z</time>
      </trkpt>
      <trkpt lat="45.54035" lon="4.84533">
        <ele>155.92</ele>
        <time>2019-05-25T10:18:50.000Z</time>
      </trkpt>
      <trkpt lat="45.54029" lon="4.84574">
        <ele>157.83</ele>
        <time>2019-05-25T10:18:55.000Z</time>
      </trkpt>
      <trkpt lat="45.54024" lon="4.84616">
        <ele>159.05</ele>
        <time>2019-05-25T10:19:00.000Z</time>
      </trkpt>
      <trkpt lat="45.5402" lon="4.8466">
        <ele>158.1</ele>
        <time>2019-05-25T10:19:05.000Z</time>
      </trkpt>
      <trkpt lat="45.54015" lon="4.84702">
        <ele>157.91</ele>
        <time>2019-05-25T10:19:10.000Z</time>
      </trkpt>
      <trkpt lat="45.54009" lon="4.84746">
        <ele>156.16</ele>
        <time>2019-05-25T10:19:15.000Z</time>
      </trkpt>
      <trkpt lat="45.54004" lon="4.84787">
        <ele>153.98</ele>
        <time>2019-05-25T10:19:20.000Z</time>
      </trkpt>
      <trkpt lat="45.53999" lon="4.84831">
        <ele>154.92</ele>
        <time>2019-05-25T10:19:25.000Z</time>
      </trkpt>
      <trkpt lat="45.53994" lon="4.84873">
        <ele>155.9</ele>
        <time>2019-05-25T10:19:30.000Z</time>
      </trkpt>
      <trkpt lat="45.53991" lon="4.84919">
        <ele>155.67</ele>
        <time>2019-05-25T10:19:35.000Z</time>
      </trkpt>
      <trkpt lat="45.53986" lon="4.84964">
        <ele>156.67</ele>
        <time>2019-05-25T10:19:40.000Z</time>
      </trkpt>
      <trkpt lat="45.53981" lon="4.85008">
        <ele>156.17</ele>
        <time>2019-05-25T10:19:45.000Z</time>
      </trkpt>
      <trkpt lat="45.53976" lon="4.85052">
        <ele>156.91</ele>
        <time>2019-05-25T10:19:50.000Z</time>
      </trkpt>
      <trkpt lat="45.53971" lon="4.85095">
        <ele>158.67</ele>
        <time>2019-05-25T10:19:55.000Z</time>
      </trkpt>
      <trkpt lat="45.53967" lon="4.85137">
        <ele>158.92</ele>
        <time>2019-05-25T10:20:00.000Z</time>
      </trkpt>
      <trkpt lat="45.53962" lon="4.85179">
        <ele>156.13</ele>
        <time>2019-05-25T10:20:05.000Z</time>
      </trkpt>
      <trkpt lat="45.53958" lon="4.8522">
        <ele>155.93</ele>
        <time>2019-05-25T10:20:10.000Z</time>
      </trkpt>
      <trkpt lat="45.53955" lon="4.85259">
        <ele>155.93</ele>
        <time>2019-05-25T10:20:15.000Z</time>
      </trkpt>
      <trkpt lat="45.53949" lon="4.85301">
        <ele>156.68</ele>
        <time>2019-05-25T10:20:20.000Z</time>
      </trkpt>
      <trkpt lat="45.53943" lon="4.85341">
        <ele>155.94</ele>
        <time>2019-05-25T10:20:25.000Z</time>
      </trkpt>
      <trkpt lat="45.53936" lon="4.85365">
        <ele>155.93</ele>
        <time>2019-05-25T10:20:30.000Z</time>
      </trkpt>
      <trkpt lat="45.53941" lon="4.85379">
        <ele>155.93</ele>
        <time>2019-05-25T10:23:28.000Z</time>
      </trkpt>
      <trkpt lat="45.53938" lon="4.85403">
        <ele>155.01</ele>
        <time>2019-05-25T10:23:33.000Z</time>
      </trkpt>
      <trkpt lat="45.53932" lon="4.85418">
        <ele>155.93</ele>
        <time>2019-05-25T10:23:38.000Z</time>
      </trkpt>
      <trkpt lat="45.53937" lon="4.85406">
        <ele>156.72</ele>
        <time>2019-05-25T10:23:46.000Z</time>
      </trkpt>
      <trkpt lat="45.53936" lon="4.85389">
        <ele>155.19</ele>
        <time>2019-05-25T10:23:51.000Z</time>
      </trkpt>
      <trkpt lat="45.53926" lon="4.85385">
        <ele>155.68</ele>
        <time>2019-05-25T10:23:57.000Z</time>
      </trkpt>
      <trkpt lat="45.53917" lon="4.85385">
        <ele>152.93</ele>
        <time>2019-05-25T10:24:43.000Z</time>
      </trkpt>
      <trkpt lat="45.53926" lon="4.85384">
        <ele>158.92</ele>
        <time>2019-05-25T10:28:45.000Z</time>
      </trkpt>
      <trkpt lat="45.53917" lon="4.85383">
        <ele>154.12</ele>
        <time>2019-05-25T10:29:14.000Z</time>
      </trkpt>
      <trkpt lat="45.53914" lon="4.85381">
        <ele>144.24</ele>
        <time>2019-05-25T10:35:38.000Z</time>
      </trkpt>
      <trkpt lat="45.53711" lon="4.86177">
        <ele>152.87</ele>
        <time>2019-05-25T12:03:29.000Z</time>
      </trkpt>
      <trkpt lat="45.53701" lon="4.86202">
        <ele>151.96</ele>
        <time>2019-05-25T12:03:34.000Z</time>
      </trkpt>
      <trkpt lat="45.5369" lon="4.86227">
        <ele>152.94</ele>
        <time>2019-05-25T12:03:39.000Z</time>
      </trkpt>
      <trkpt lat="45.53681" lon="4.86254">
        <ele>152.76</ele>
        <time>2019-05-25T12:03:44.000Z</time>
      </trkpt>
      <trkpt lat="45.5367" lon="4.86283">
        <ele>153.01</ele>
        <time>2019-05-25T12:03:49.000Z</time>
      </trkpt>
      <trkpt lat="45.53658" lon="4.86314">
        <ele>152.01</ele>
        <time>2019-05-25T12:03:54.000Z</time>
      </trkpt>
      <trkpt lat="45.53646" lon="4.86344">
        <ele>151.89</ele>
        <time>2019-05-25T12:03:59.000Z</time>
      </trkpt>
      <trkpt lat="45.53636" lon="4.86378">
        <ele>151.95</ele>
        <time>2019-05-25T12:04:04.000Z</time>
      </trkpt>
      <trkpt lat="45.53627" lon="4.86415">
        <ele>151.76</ele>
        <time>2019-05-25T12:04:09.000Z</time>
      </trkpt>
      <trkpt lat="45.53617" lon="4.8645">
        <ele>152.01</ele>
        <time>2019-05-25T12:04:14.000Z</time>
      </trkpt>
      <trkpt lat="45.53606" lon="4.86486">
        <ele>153.2</ele>
        <time>2019-05-25T12:04:19.000Z</time>
      </trkpt>
      <trkpt lat="45.53597" lon="4.86522">
        <ele>151.07</ele>
        <time>2019-05-25T12:04:24.000Z</time>
      </trkpt>
      <trkpt lat="45.53584" lon="4.86557">
        <ele>150.2</ele>
        <time>2019-05-25T12:04:29.000Z</time>
      </trkpt>
      <trkpt lat="45.53569" lon="4.8659">
        <ele>149.7</ele>
        <time>2019-05-25T12:04:34.000Z</time>
      </trkpt>
      <trkpt lat="45.53554" lon="4.86622">
        <ele>150.7</ele>
        <time>2019-05-25T12:04:39.000Z</time>
      </trkpt>
      <trkpt lat="45.53537" lon="4.86654">
        <ele>150.69</ele>
        <time>2019-05-25T12:04:44.000Z</time>
      </trkpt>
      <trkpt lat="45.53524" lon="4.86687">
        <ele>149.02</ele>
        <time>2019-05-25T12:04:49.000Z</time>
      </trkpt>
      <trkpt lat="45.53509" lon="4.8672">
        <ele>148.94</ele>
        <time>2019-05-25T12:04:54.000Z</time>
      </trkpt>
      <trkpt lat="45.53494" lon="4.86754">
        <ele>149.96</ele>
        <time>2019-05-25T12:04:59.000Z</time>
      </trkpt>
      <trkpt lat="45.53478" lon="4.86784">
        <ele>150.95</ele>
        <time>2019-05-25T12:05:04.000Z</time>
      </trkpt>
      <trkpt lat="45.53461" lon="4.86813">
        <ele>152.88</ele>
        <time>2019-05-25T12:05:09.000Z</time>
      </trkpt>
      <trkpt lat="45.53442" lon="4.86841">
        <ele>152.96</ele>
        <time>2019-05-25T12:05:14.000Z</time>
      </trkpt>
      <trkpt lat="45.53424" lon="4.86868">
        <ele>153.72</ele>
        <time>2019-05-25T12:05:19.000Z</time>
      </trkpt>
      <trkpt lat="45.53403" lon="4.86896">
        <ele>152.97</ele>
        <time>2019-05-25T12:05:24.000Z</time>
      </trkpt>
      <trkpt lat="45.53382" lon="4.86926">
        <ele>150.99</ele>
        <time>2019-05-25T12:05:29.000Z</time>
      </trkpt>
      <trkpt lat="45.53363" lon="4.86956">
        <ele>151.9</ele>
        <time>2019-05-25T12:05:34.000Z</time>
      </trkpt>
      <trkpt lat="45.53343" lon="4.86983">
        <ele>152.71</ele>
        <time>2019-05-25T12:05:39.000Z</time>
      </trkpt>
      <trkpt lat="45.5332" lon="4.8701">
        <ele>152.96</ele>
        <time>2019-05-25T12:05:44.000Z</time>
      </trkpt>
      <trkpt lat="45.53297" lon="4.87027">
        <ele>152.9</ele>
        <time>2019-05-25T12:05:49.000Z</time>
      </trkpt>
      <trkpt lat="45.53275" lon="4.87048">
        <ele>152.95</ele>
        <time>2019-05-25T12:05:54.000Z</time>
      </trkpt>
      <trkpt lat="45.53253" lon="4.87068">
        <ele>153.7</ele>
        <time>2019-05-25T12:05:59.000Z</time>
      </trkpt>
      <trkpt lat="45.53229" lon="4.87087">
        <ele>152.96</ele>
        <time>2019-05-25T12:06:04.000Z</time>
      </trkpt>
      <trkpt lat="45.53205" lon="4.87108">
        <ele>153.71</ele>
        <time>2019-05-25T12:06:09.000Z</time>
      </trkpt>
      <trkpt lat="45.53182" lon="4.87127">
        <ele>153.96</ele>
        <time>2019-05-25T12:06:14.000Z</time>
      </trkpt>
      <trkpt lat="45.53159" lon="4.87146">
        <ele>153.02</ele>
        <time>2019-05-25T12:06:19.000Z</time>
      </trkpt>
      <trkpt lat="45.53132" lon="4.8716">
        <ele>153.96</ele>
        <time>2019-05-25T12:06:24.000Z</time>
      </trkpt>
      <trkpt lat="45.53107" lon="4.87168">
        <ele>152.79</ele>
        <time>2019-05-25T12:06:29.000Z</time>
      </trkpt>
      <trkpt lat="45.53083" lon="4.87167">
        <ele>151.96</ele>
        <time>2019-05-25T12:06:34.000Z</time>
      </trkpt>
      <trkpt lat="45.53059" lon="4.87168">
        <ele>152.71</ele>
        <time>2019-05-25T12:06:39.000Z</time>
      </trkpt>
      <trkpt lat="45.5303" lon="4.87165">
        <ele>152.78</ele>
        <time>2019-05-25T12:06:44.000Z</time>
      </trkpt>
      <trkpt lat="45.53003" lon="4.8716">
        <ele>151.08</ele>
        <time>2019-05-25T12:06:49.000Z</time>
      </trkpt>
      <trkpt lat="45.52974" lon="4.87151">
        <ele>151.96</ele>
        <time>2019-05-25T12:06:54.000Z</time>
      </trkpt>
      <trkpt lat="45.52948" lon="4.87145">
        <ele>153.94</ele>
        <time>2019-05-25T12:06:59.000Z</time>
      </trkpt>
      <trkpt lat="45.52922" lon="4.87139">
        <ele>155.71</ele>
        <time>2019-05-25T12:07:04.000Z</time>
      </trkpt>
      <trkpt lat="45.52897" lon="4.87134">
        <ele>156.89</ele>
        <time>2019-05-25T12:07:09.000Z</time>
      </trkpt>
      <trkpt lat="45.52873" lon="4.87126">
        <ele>157</ele>
        <time>2019-05-25T12:07:14.000Z</time>
      </trkpt>
      <trkpt lat="45.52851" lon="4.87112">
        <ele>152.25</ele>
        <time>2019-05-25T12:07:19.000Z</time>
      </trkpt>
      <trkpt lat="45.52825" lon="4.871">
        <ele>152.38</ele>
        <time>2019-05-25T12:07:24.000Z</time>
      </trkpt>
      <trkpt lat="45.52804" lon="4.8709">
        <ele>154.89</ele>
        <time>2019-05-25T12:07:29.000Z</time>
      </trkpt>
      <trkpt lat="45.52793" lon="4.87084">
        <ele>153.97</ele>
        <time>2019-05-25T12:07:34.000Z</time>
      </trkpt>
      <trkpt lat="45.52785" lon="4.87078">
        <ele>151.97</ele>
        <time>2019-05-25T12:08:26.000Z</time>
      </trkpt>
      <trkpt lat="45.52774" lon="4.87067">
        <ele>151.01</ele>
        <time>2019-05-25T12:08:31.000Z</time>
      </trkpt>
      <trkpt lat="45.52758" lon="4.87056">
        <ele>151.95</ele>
        <time>2019-05-25T12:08:36.000Z</time>
      </trkpt>
      <trkpt lat="45.52741" lon="4.87047">
        <ele>153.89</ele>
        <time>2019-05-25T12:08:41.000Z</time>
      </trkpt>
      <trkpt lat="45.52728" lon="4.87043">
        <ele>154.72</ele>
        <time>2019-05-25T12:08:46.000Z</time>
      </trkpt>
      <trkpt lat="45.52719" lon="4.87036">
        <ele>153.77</ele>
        <time>2019-05-25T12:08:52.000Z</time>
      </trkpt>
      <trkpt lat="45.52709" lon="4.87025">
        <ele>152</ele>
        <time>2019-05-25T12:08:57.000Z</time>
      </trkpt>
      <trkpt lat="45.52691" lon="4.87019">
        <ele>152.47</ele>
        <time>2019-05-25T12:09:02.000Z</time>
      </trkpt>
      <trkpt lat="45.52681" lon="4.87011">
        <ele>152.96</ele>
        <time>2019-05-25T12:10:27.000Z</time>
      </trkpt>
      <trkpt lat="45.52665" lon="4.86999">
        <ele>153</ele>
        <time>2019-05-25T12:10:32.000Z</time>
      </trkpt>
      <trkpt lat="45.52648" lon="4.86983">
        <ele>151.96</ele>
        <time>2019-05-25T12:10:37.000Z</time>
      </trkpt>
      <trkpt lat="45.52639" lon="4.86972">
        <ele>151.94</ele>
        <time>2019-05-25T12:10:42.000Z</time>
      </trkpt>
      <trkpt lat="45.52628" lon="4.8697">
        <ele>152.75</ele>
        <time>2019-05-25T12:11:19.000Z</time>
      </trkpt>
      <trkpt lat="45.52614" lon="4.86958">
        <ele>152.94</ele>
        <time>2019-05-25T12:11:24.000Z</time>
      </trkpt>
      <trkpt lat="45.52599" lon="4.86945">
        <ele>153.93</ele>
        <time>2019-05-25T12:11:29.000Z</time>
      </trkpt>
      <trkpt lat="45.52583" lon="4.86934">
        <ele>154.95</ele>
        <time>2019-05-25T12:11:34.000Z</time>
      </trkpt>
      <trkpt lat="45.52567" lon="4.86923">
        <ele>153.96</ele>
        <time>2019-05-25T12:11:39.000Z</time>
      </trkpt>
      <trkpt lat="45.52549" lon="4.86911">
        <ele>154.65</ele>
        <time>2019-05-25T12:11:44.000Z</time>
      </trkpt>
      <trkpt lat="45.52527" lon="4.86895">
        <ele>155.93</ele>
        <time>2019-05-25T12:11:49.000Z</time>
      </trkpt>
      <trkpt lat="45.5251" lon="4.86879">
        <ele>155.95</ele>
        <time>2019-05-25T12:11:54.000Z</time>
      </trkpt>
      <trkpt lat="45.52491" lon="4.86862">
        <ele>153.97</ele>
        <time>2019-05-25T12:11:59.000Z</time>
      </trkpt>
      <trkpt lat="45.52471" lon="4.86845">
        <ele>152.95</ele>
        <time>2019-05-25T12:12:04.000Z</time>
      </trkpt>
      <trkpt lat="45.5245" lon="4.86831">
        <ele>151.95</ele>
        <time>2019-05-25T12:12:09.000Z</time>
      </trkpt>
      <trkpt lat="45.5243" lon="4.86816">
        <ele>152.74</ele>
        <time>2019-05-25T12:12:14.000Z</time>
      </trkpt>
      <trkpt lat="45.5241" lon="4.868">
        <ele>153.94</ele>
        <time>2019-05-25T12:12:19.000Z</time>
      </trkpt>
      <trkpt lat="45.52391" lon="4.86776">
        <ele>153.94</ele>
        <time>2019-05-25T12:12:24.000Z</time>
      </trkpt>
      <trkpt lat="45.52374" lon="4.86751">
        <ele>153.13</ele>
        <time>2019-05-25T12:12:29.000Z</time>
      </trkpt>
      <trkpt lat="45.52359" lon="4.86732">
        <ele>152</ele>
        <time>2019-05-25T12:12:34.000Z</time>
      </trkpt>
      <trkpt lat="45.52347" lon="4.86718">
        <ele>151.94</ele>
        <time>2019-05-25T12:12:39.000Z</time>
      </trkpt>
      <trkpt lat="45.52336" lon="4.86705">
        <ele>150.94</ele>
        <time>2019-05-25T12:12:44.000Z</time>
      </trkpt>
      <trkpt lat="45.52324" lon="4.86689">
        <ele>150</ele>
        <time>2019-05-25T12:12:49.000Z</time>
      </trkpt>
      <trkpt lat="45.52312" lon="4.86673">
        <ele>149.94</ele>
        <time>2019-05-25T12:12:54.000Z</time>
      </trkpt>
      <trkpt lat="45.52298" lon="4.8665">
        <ele>148.77</ele>
        <time>2019-05-25T12:12:59.000Z</time>
      </trkpt>
      <trkpt lat="45.52284" lon="4.86625">
        <ele>149.88</ele>
        <time>2019-05-25T12:13:04.000Z</time>
      </trkpt>
      <trkpt lat="45.52267" lon="4.86605">
        <ele>149.69</ele>
        <time>2019-05-25T12:13:09.000Z</time>
      </trkpt>
      <trkpt lat="45.52257" lon="4.86592">
        <ele>148.7</ele>
        <time>2019-05-25T12:13:14.000Z</time>
      </trkpt>
      <trkpt lat="45.52243" lon="4.86579">
        <ele>149.93</ele>
        <time>2019-05-25T12:13:19.000Z</time>
      </trkpt>
      <trkpt lat="45.52225" lon="4.86557">
        <ele>148.94</ele>
        <time>2019-05-25T12:13:24.000Z</time>
      </trkpt>
      <trkpt lat="45.52205" lon="4.86534">
        <ele>148.93</ele>
        <time>2019-05-25T12:13:29.000Z</time>
      </trkpt>
      <trkpt lat="45.52183" lon="4.8651">
        <ele>149.73</ele>
        <time>2019-05-25T12:13:34.000Z</time>
      </trkpt>
      <trkpt lat="45.52161" lon="4.86485">
        <ele>149.14</ele>
        <time>2019-05-25T12:13:39.000Z</time>
      </trkpt>
      <trkpt lat="45.52141" lon="4.86461">
        <ele>149.74</ele>
        <time>2019-05-25T12:13:44.000Z</time>
      </trkpt>
      <trkpt lat="45.52119" lon="4.86437">
        <ele>149.93</ele>
        <time>2019-05-25T12:13:49.000Z</time>
      </trkpt>
      <trkpt lat="45.52097" lon="4.86411">
        <ele>148.93</ele>
        <time>2019-05-25T12:13:54.000Z</time>
      </trkpt>
      <trkpt lat="45.52073" lon="4.86386">
        <ele>149.01</ele>
        <time>2019-05-25T12:13:59.000Z</time>
      </trkpt>
      <trkpt lat="45.52051" lon="4.86361">
        <ele>149.62</ele>
        <time>2019-05-25T12:14:04.000Z</time>
      </trkpt>
      <trkpt lat="45.52027" lon="4.86336">
        <ele>148.01</ele>
        <time>2019-05-25T12:14:09.000Z</time>
      </trkpt>
      <trkpt lat="45.52005" lon="4.86309">
        <ele>148.11</ele>
        <time>2019-05-25T12:14:14.000Z</time>
      </trkpt>
      <trkpt lat="45.51982" lon="4.86284">
        <ele>146.93</ele>
        <time>2019-05-25T12:14:19.000Z</time>
      </trkpt>
      <trkpt lat="45.5196" lon="4.86258">
        <ele>147.86</ele>
        <time>2019-05-25T12:14:24.000Z</time>
      </trkpt>
      <trkpt lat="45.51938" lon="4.86231">
        <ele>146.99</ele>
        <time>2019-05-25T12:14:29.000Z</time>
      </trkpt>
      <trkpt lat="45.51915" lon="4.86205">
        <ele>146.93</ele>
        <time>2019-05-25T12:14:34.000Z</time>
      </trkpt>
      <trkpt lat="45.51892" lon="4.86179">
        <ele>147.92</ele>
        <time>2019-05-25T12:14:39.000Z</time>
      </trkpt>
      <trkpt lat="45.51869" lon="4.86155">
        <ele>147.92</ele>
        <time>2019-05-25T12:14:44.000Z</time>
      </trkpt>
      <trkpt lat="45.51844" lon="4.86131">
        <ele>148.91</ele>
        <time>2019-05-25T12:14:49.000Z</time>
      </trkpt>
      <trkpt lat="45.51818" lon="4.86106">
        <ele>149.86</ele>
        <time>2019-05-25T12:14:54.000Z</time>
      </trkpt>
      <trkpt lat="45.51794" lon="4.8608">
        <ele>149.92</ele>
        <time>2019-05-25T12:14:59.000Z</time>
      </trkpt>
      <trkpt lat="45.5177" lon="4.86056">
        <ele>150.9</ele>
        <time>2019-05-25T12:15:04.000Z</time>
      </trkpt>
      <trkpt lat="45.51749" lon="4.8603">
        <ele>150.92</ele>
        <time>2019-05-25T12:15:09.000Z</time>
      </trkpt>
      <trkpt lat="45.51727" lon="4.86004">
        <ele>151.91</ele>
        <time>2019-05-25T12:15:14.000Z</time>
      </trkpt>
      <trkpt lat="45.51702" lon="4.85974">
        <ele>150.99</ele>
        <time>2019-05-25T12:15:19.000Z</time>
      </trkpt>
      <trkpt lat="45.5168" lon="4.85946">
        <ele>150.12</ele>
        <time>2019-05-25T12:15:24.000Z</time>
      </trkpt>
      <trkpt lat="45.51659" lon="4.85917">
        <ele>149.92</ele>
        <time>2019-05-25T12:15:29.000Z</time>
      </trkpt>
      <trkpt lat="45.51635" lon="4.85889">
        <ele>148.9</ele>
        <time>2019-05-25T12:15:34.000Z</time>
      </trkpt>
      <trkpt lat="45.51613" lon="4.8586">
        <ele>148.16</ele>
        <time>2019-05-25T12:15:39.000Z</time>
      </trkpt>
      <trkpt lat="45.5159" lon="4.8583">
        <ele>148.85</ele>
        <time>2019-05-25T12:15:44.000Z</time>
      </trkpt>
      <trkpt lat="45.51566" lon="4.85803">
        <ele>149.89</ele>
        <time>2019-05-25T12:15:49.000Z</time>
      </trkpt>
      <trkpt lat="45.51544" lon="4.85774">
        <ele>148.91</ele>
        <time>2019-05-25T12:15:54.000Z</time>
      </trkpt>
      <trkpt lat="45.51521" lon="4.85745">
        <ele>148.91</ele>
        <time>2019-05-25T12:15:59.000Z</time>
      </trkpt>
      <trkpt lat="45.51499" lon="4.85718">
        <ele>148.91</ele>
        <time>2019-05-25T12:16:04.000Z</time>
      </trkpt>
      <trkpt lat="45.51477" lon="4.8569">
        <ele>148.15</ele>
        <time>2019-05-25T12:16:09.000Z</time>
      </trkpt>
      <trkpt lat="45.51456" lon="4.85661">
        <ele>148.9</ele>
        <time>2019-05-25T12:16:14.000Z</time>
      </trkpt>
      <trkpt lat="45.51436" lon="4.8563">
        <ele>149.09</ele>
        <time>2019-05-25T12:16:19.000Z</time>
      </trkpt>
      <trkpt lat="45.51417" lon="4.85597">
        <ele>149.71</ele>
        <time>2019-05-25T12:16:24.000Z</time>
      </trkpt>
      <trkpt lat="45.514" lon="4.85563">
        <ele>150.85</ele>
        <time>2019-05-25T12:16:29.000Z</time>
      </trkpt>
      <trkpt lat="45.51386" lon="4.8553">
        <ele>152.89</ele>
        <time>2019-05-25T12:16:34.000Z</time>
      </trkpt>
      <trkpt lat="45.5137" lon="4.85495">
        <ele>152.15</ele>
        <time>2019-05-25T12:16:39.000Z</time>
      </trkpt>
      <trkpt lat="45.51357" lon="4.8546">
        <ele>153.83</ele>
        <time>2019-05-25T12:16:44.000Z</time>
      </trkpt>
      <trkpt lat="45.51348" lon="4.85433">
        <ele>154.83</ele>
        <time>2019-05-25T12:16:49.000Z</time>
      </trkpt>
      <trkpt lat="45.51334" lon="4.85403">
        <ele>153.91</ele>
        <time>2019-05-25T12:16:54.000Z</time>
      </trkpt>
      <trkpt lat="45.51317" lon="4.85371">
        <ele>154.89</ele>
        <time>2019-05-25T12:16:59.000Z</time>
      </trkpt>
      <trkpt lat="45.51301" lon="4.8534">
        <ele>156.88</ele>
        <time>2019-05-25T12:17:04.000Z</time>
      </trkpt>
      <trkpt lat="45.51277" lon="4.85322">
        <ele>155.9</ele>
        <time>2019-05-25T12:17:09.000Z</time>
      </trkpt>
      <trkpt lat="45.51256" lon="4.85335">
        <ele>155.83</ele>
        <time>2019-05-25T12:17:14.000Z</time>
      </trkpt>
      <trkpt lat="45.51238" lon="4.85342">
        <ele>153.1</ele>
        <time>2019-05-25T12:17:19.000Z</time>
      </trkpt>
      <trkpt lat="45.51226" lon="4.85325">
        <ele>151.39</ele>
        <time>2019-05-25T12:17:24.000Z</time>
      </trkpt>
      <trkpt lat="45.5121" lon="4.85308">
        <ele>151.09</ele>
        <time>2019-05-25T12:17:29.000Z</time>
      </trkpt>
      <trkpt lat="45.51192" lon="4.85284">
        <ele>152.87</ele>
        <time>2019-05-25T12:17:34.000Z</time>
      </trkpt>
      <trkpt lat="45.51171" lon="4.85261">
        <ele>154.64</ele>
        <time>2019-05-25T12:17:39.000Z</time>
      </trkpt>
      <trkpt lat="45.51151" lon="4.85234">
        <ele>153.9</ele>
        <time>2019-05-25T12:17:44.000Z</time>
      </trkpt>
      <trkpt lat="45.51129" lon="4.85205">
        <ele>154.87</ele>
        <time>2019-05-25T12:17:49.000Z</time>
      </trkpt>
      <trkpt lat="45.51108" lon="4.85179">
        <ele>154.88</ele>
        <time>2019-05-25T12:17:54.000Z</time>
      </trkpt>
      <trkpt lat="45.51087" lon="4.85151">
        <ele>154.87</ele>
        <time>2019-05-25T12:17:59.000Z</time>
      </trkpt>
      <trkpt lat="45.51066" lon="4.85123">
        <ele>153.89</ele>
        <time>2019-05-25T12:18:04.000Z</time>
      </trkpt>
      <trkpt lat="45.51045" lon="4.85095">
        <ele>154.82</ele>
        <time>2019-05-25T12:18:09.000Z</time>
      </trkpt>
      <trkpt lat="45.51024" lon="4.85067">
        <ele>153.95</ele>
        <time>2019-05-25T12:18:14.000Z</time>
      </trkpt>
      <trkpt lat="45.51" lon="4.85038">
        <ele>154.87</ele>
        <time>2019-05-25T12:18:19.000Z</time>
      </trkpt>
      <trkpt lat="45.50978" lon="4.85008">
        <ele>154.88</ele>
        <time>2019-05-25T12:18:24.000Z</time>
      </trkpt>
      <trkpt lat="45.50957" lon="4.84979">
        <ele>154.88</ele>
        <time>2019-05-25T12:18:29.000Z</time>
      </trkpt>
      <trkpt lat="45.50934" lon="4.84951">
        <ele>154.87</ele>
        <time>2019-05-25T12:18:34.000Z</time>
      </trkpt>
      <trkpt lat="45.50913" lon="4.84922">
        <ele>153.88</ele>
        <time>2019-05-25T12:18:39.000Z</time>
      </trkpt>
      <trkpt lat="45.5089" lon="4.84892">
        <ele>152.89</ele>
        <time>2019-05-25T12:18:44.000Z</time>
      </trkpt>
      <trkpt lat="45.50867" lon="4.84861">
        <ele>153.86</ele>
        <time>2019-05-25T12:18:49.000Z</time>
      </trkpt>
      <trkpt lat="45.50846" lon="4.84831">
        <ele>153.87</ele>
        <time>2019-05-25T12:18:54.000Z</time>
      </trkpt>
      <trkpt lat="45.50824" lon="4.848">
        <ele>154.62</ele>
        <time>2019-05-25T12:18:59.000Z</time>
      </trkpt>
      <trkpt lat="45.50802" lon="4.8477">
        <ele>154.87</ele>
        <time>2019-05-25T12:19:04.000Z</time>
      </trkpt>
      <trkpt lat="45.50781" lon="4.84741">
        <ele>154.87</ele>
        <time>2019-05-25T12:19:09.000Z</time>
      </trkpt>
      <trkpt lat="45.50759" lon="4.84711">
        <ele>153.87</ele>
        <time>2019-05-25T12:19:14.000Z</time>
      </trkpt>
      <trkpt lat="45.50738" lon="4.84681">
        <ele>153.93</ele>
        <time>2019-05-25T12:19:19.000Z</time>
      </trkpt>
      <trkpt lat="45.50718" lon="4.84654">
        <ele>153.88</ele>
        <time>2019-05-25T12:19:24.000Z</time>
      </trkpt>
      <trkpt lat="45.50697" lon="4.84625">
        <ele>152.88</ele>
        <time>2019-05-25T12:19:29.000Z</time>
      </trkpt>
      <trkpt lat="45.50679" lon="4.84596">
        <ele>152.87</ele>
        <time>2019-05-25T12:19:34.000Z</time>
      </trkpt>
      <trkpt lat="45.50657" lon="4.84567">
        <ele>152.87</ele>
        <time>2019-05-25T12:19:39.000Z</time>
      </trkpt>
      <trkpt lat="45.50635" lon="4.84539">
        <ele>153.61</ele>
        <time>2019-05-25T12:19:44.000Z</time>
      </trkpt>
      <trkpt lat="45.50614" lon="4.84512">
        <ele>153.86</ele>
        <time>2019-05-25T12:19:49.000Z</time>
      </trkpt>
      <trkpt lat="45.50592" lon="4.84485">
        <ele>152.93</ele>
        <time>2019-05-25T12:19:54.000Z</time>
      </trkpt>
      <trkpt lat="45.50569" lon="4.84457">
        <ele>153.86</ele>
        <time>2019-05-25T12:19:59.000Z</time>
      </trkpt>
      <trkpt lat="45.5055" lon="4.84429">
        <ele>153.86</ele>
        <time>2019-05-25T12:20:04.000Z</time>
      </trkpt>
      <trkpt lat="45.50528" lon="4.84402">
        <ele>154.86</ele>
        <time>2019-05-25T12:20:09.000Z</time>
      </trkpt>
      <trkpt lat="45.50505" lon="4.84373">
        <ele>155.61</ele>
        <time>2019-05-25T12:20:14.000Z</time>
      </trkpt>
      <trkpt lat="45.50484" lon="4.84342">
        <ele>155.86</ele>
        <time>2019-05-25T12:20:19.000Z</time>
      </trkpt>
      <trkpt lat="45.50461" lon="4.84315">
        <ele>155.81</ele>
        <time>2019-05-25T12:20:24.000Z</time>
      </trkpt>
      <trkpt lat="45.50437" lon="4.84289">
        <ele>154.86</ele>
        <time>2019-05-25T12:20:29.000Z</time>
      </trkpt>
      <trkpt lat="45.50413" lon="4.84261">
        <ele>153.06</ele>
        <time>2019-05-25T12:20:34.000Z</time>
      </trkpt>
      <trkpt lat="45.50389" lon="4.84234">
        <ele>152.06</ele>
        <time>2019-05-25T12:20:39.000Z</time>
      </trkpt>
      <trkpt lat="45.50365" lon="4.84205">
        <ele>152.84</ele>
        <time>2019-05-25T12:20:44.000Z</time>
      </trkpt>
      <trkpt lat="45.5034" lon="4.84176">
        <ele>153.8</ele>
        <time>2019-05-25T12:20:49.000Z</time>
      </trkpt>
      <trkpt lat="45.50316" lon="4.84147">
        <ele>153.85</ele>
        <time>2019-05-25T12:20:54.000Z</time>
      </trkpt>
      <trkpt lat="45.50293" lon="4.84119">
        <ele>154.08</ele>
        <time>2019-05-25T12:20:59.000Z</time>
      </trkpt>
      <trkpt lat="45.50271" lon="4.84093">
        <ele>152.85</ele>
        <time>2019-05-25T12:21:04.000Z</time>
      </trkpt>
      <trkpt lat="45.50249" lon="4.84063">
        <ele>153.8</ele>
        <time>2019-05-25T12:21:09.000Z</time>
      </trkpt>
      <trkpt lat="45.50228" lon="4.8403">
        <ele>154.78</ele>
        <time>2019-05-25T12:21:14.000Z</time>
      </trkpt>
      <trkpt lat="45.50206" lon="4.83995">
        <ele>153.85</ele>
        <time>2019-05-25T12:21:19.000Z</time>
      </trkpt>
      <trkpt lat="45.50183" lon="4.83956">
        <ele>153.84</ele>
        <time>2019-05-25T12:21:24.000Z</time>
      </trkpt>
      <trkpt lat="45.50162" lon="4.83916">
        <ele>153.84</ele>
        <time>2019-05-25T12:21:29.000Z</time>
      </trkpt>
      <trkpt lat="45.50151" lon="4.83886">
        <ele>153.15</ele>
        <time>2019-05-25T12:21:34.000Z</time>
      </trkpt>
      <trkpt lat="45.50157" lon="4.83864">
        <ele>154.03</ele>
        <time>2019-05-25T12:21:39.000Z</time>
      </trkpt>
      <trkpt lat="45.50166" lon="4.83861">
        <ele>149.85</ele>
        <time>2019-05-25T12:21:59.000Z</time>
      </trkpt>
      <trkpt lat="45.50184" lon="4.83851">
        <ele>152.31</ele>
        <time>2019-05-25T12:22:04.000Z</time>
      </trkpt>
      <trkpt lat="45.50193" lon="4.83827">
        <ele>154.54</ele>
        <time>2019-05-25T12:22:09.000Z</time>
      </trkpt>
      <trkpt lat="45.50182" lon="4.83795">
        <ele>153.65</ele>
        <time>2019-05-25T12:22:14.000Z</time>
      </trkpt>
      <trkpt lat="45.50166" lon="4.83765">
        <ele>152.84</ele>
        <time>2019-05-25T12:22:19.000Z</time>
      </trkpt>
      <trkpt lat="45.5015" lon="4.83724">
        <ele>149.04</ele>
        <time>2019-05-25T12:22:24.000Z</time>
      </trkpt>
      <trkpt lat="45.50137" lon="4.8368">
        <ele>149.09</ele>
        <time>2019-05-25T12:22:29.000Z</time>
      </trkpt>
      <trkpt lat="45.50125" lon="4.83637">
        <ele>148.84</ele>
        <time>2019-05-25T12:22:34.000Z</time>
      </trkpt>
      <trkpt lat="45.50114" lon="4.83593">
        <ele>150.81</ele>
        <time>2019-05-25T12:22:39.000Z</time>
      </trkpt>
      <trkpt lat="45.50102" lon="4.83549">
        <ele>150.08</ele>
        <time>2019-05-25T12:22:44.000Z</time>
      </trkpt>
      <trkpt lat="45.5009" lon="4.83509">
        <ele>148.84</ele>
        <time>2019-05-25T12:22:49.000Z</time>
      </trkpt>
      <trkpt lat="45.50079" lon="4.83465">
        <ele>147.89</ele>
        <time>2019-05-25T12:22:54.000Z</time>
      </trkpt>
      <trkpt lat="45.50079" lon="4.83435">
        <ele>148.72</ele>
        <time>2019-05-25T12:22:59.000Z</time>
      </trkpt>
      <trkpt lat="45.50077" lon="4.8342">
        <ele>146.9</ele>
        <time>2019-05-25T12:23:04.000Z</time>
      </trkpt>
      <trkpt lat="45.50068" lon="4.834">
        <ele>147.53</ele>
        <time>2019-05-25T12:23:09.000Z</time>
      </trkpt>
      <trkpt lat="45.50059" lon="4.83368">
        <ele>149.81</ele>
        <time>2019-05-25T12:23:14.000Z</time>
      </trkpt>
      <trkpt lat="45.50048" lon="4.83331">
        <ele>148.89</ele>
        <time>2019-05-25T12:23:19.000Z</time>
      </trkpt>
      <trkpt lat="45.50038" lon="4.83292">
        <ele>149</ele>
        <time>2019-05-25T12:23:24.000Z</time>
      </trkpt>
      <trkpt lat="45.50029" lon="4.83253">
        <ele>149.06</ele>
        <time>2019-05-25T12:23:29.000Z</time>
      </trkpt>
      <trkpt lat="45.50016" lon="4.83215">
        <ele>150.75</ele>
        <time>2019-05-25T12:23:34.000Z</time>
      </trkpt>
      <trkpt lat="45.50002" lon="4.83177">
        <ele>148.88</ele>
        <time>2019-05-25T12:23:39.000Z</time>
      </trkpt>
      <trkpt lat="45.49986" lon="4.83137">
        <ele>149.01</ele>
        <time>2019-05-25T12:23:44.000Z</time>
      </trkpt>
      <trkpt lat="45.4997" lon="4.83098">
        <ele>148.81</ele>
        <time>2019-05-25T12:23:49.000Z</time>
      </trkpt>
      <trkpt lat="45.49951" lon="4.83061">
        <ele>150.55</ele>
        <time>2019-05-25T12:23:54.000Z</time>
      </trkpt>
      <trkpt lat="45.49932" lon="4.83029">
        <ele>150.82</ele>
        <time>2019-05-25T12:23:59.000Z</time>
      </trkpt>
      <trkpt lat="45.49912" lon="4.82996">
        <ele>148.83</ele>
        <time>2019-05-25T12:24:04.000Z</time>
      </trkpt>
      <trkpt lat="45.49892" lon="4.82962">
        <ele>148.82</ele>
        <time>2019-05-25T12:24:09.000Z</time>
      </trkpt>
      <trkpt lat="45.49872" lon="4.82928">
        <ele>149.56</ele>
        <time>2019-05-25T12:24:14.000Z</time>
      </trkpt>
      <trkpt lat="45.49851" lon="4.82893">
        <ele>148.81</ele>
        <time>2019-05-25T12:24:19.000Z</time>
      </trkpt>
      <trkpt lat="45.4983" lon="4.82858">
        <ele>149.81</ele>
        <time>2019-05-25T12:24:24.000Z</time>
      </trkpt>
      <trkpt lat="45.4981" lon="4.82827">
        <ele>149.81</ele>
        <time>2019-05-25T12:24:29.000Z</time>
      </trkpt>
      <trkpt lat="45.49791" lon="4.82795">
        <ele>148.77</ele>
        <time>2019-05-25T12:24:34.000Z</time>
      </trkpt>
      <trkpt lat="45.49773" lon="4.82764">
        <ele>148.81</ele>
        <time>2019-05-25T12:24:39.000Z</time>
      </trkpt>
      <trkpt lat="45.49754" lon="4.82733">
        <ele>147.81</ele>
        <time>2019-05-25T12:24:44.000Z</time>
      </trkpt>
      <trkpt lat="45.49735" lon="4.82702">
        <ele>147.81</ele>
        <time>2019-05-25T12:24:49.000Z</time>
      </trkpt>
      <trkpt lat="45.49716" lon="4.82669">
        <ele>147.81</ele>
        <time>2019-05-25T12:24:54.000Z</time>
      </trkpt>
      <trkpt lat="45.49697" lon="4.82637">
        <ele>148.37</ele>
        <time>2019-05-25T12:24:59.000Z</time>
      </trkpt>
      <trkpt lat="45.49678" lon="4.82607">
        <ele>148.61</ele>
        <time>2019-05-25T12:25:04.000Z</time>
      </trkpt>
      <trkpt lat="45.4967" lon="4.82585">
        <ele>148.8</ele>
        <time>2019-05-25T12:25:09.000Z</time>
      </trkpt>
      <trkpt lat="45.49685" lon="4.82569">
        <ele>149.6</ele>
        <time>2019-05-25T12:25:14.000Z</time>
      </trkpt>
      <trkpt lat="45.497" lon="4.82549">
        <ele>151.72</ele>
        <time>2019-05-25T12:25:19.000Z</time>
      </trkpt>
      <trkpt lat="45.49718" lon="4.82531">
        <ele>151.8</ele>
        <time>2019-05-25T12:25:24.000Z</time>
      </trkpt>
      <trkpt lat="45.49737" lon="4.82509">
        <ele>154.54</ele>
        <time>2019-05-25T12:25:29.000Z</time>
      </trkpt>
      <trkpt lat="45.49754" lon="4.82487">
        <ele>155.84</ele>
        <time>2019-05-25T12:25:34.000Z</time>
      </trkpt>
      <trkpt lat="45.49766" lon="4.82475">
        <ele>157.06</ele>
        <time>2019-05-25T12:25:39.000Z</time>
      </trkpt>
      <trkpt lat="45.49763" lon="4.82455">
        <ele>154.74</ele>
        <time>2019-05-25T12:25:44.000Z</time>
      </trkpt>
      <trkpt lat="45.49749" lon="4.82432">
        <ele>153.8</ele>
        <time>2019-05-25T12:25:49.000Z</time>
      </trkpt>
      <trkpt lat="45.49734" lon="4.82405">
        <ele>151.07</ele>
        <time>2019-05-25T12:25:54.000Z</time>
      </trkpt>
      <trkpt lat="45.49718" lon="4.82375">
        <ele>150.86</ele>
        <time>2019-05-25T12:25:59.000Z</time>
      </trkpt>
      <trkpt lat="45.49703" lon="4.82344">
        <ele>150.8</ele>
        <time>2019-05-25T12:26:04.000Z</time>
      </trkpt>
      <trkpt lat="45.49686" lon="4.82315">
        <ele>151.8</ele>
        <time>2019-05-25T12:26:09.000Z</time>
      </trkpt>
      <trkpt lat="45.49663" lon="4.82283">
        <ele>150.86</ele>
        <time>2019-05-25T12:26:14.000Z</time>
      </trkpt>
      <trkpt lat="45.49641" lon="4.82249">
        <ele>149.55</ele>
        <time>2019-05-25T12:26:19.000Z</time>
      </trkpt>
      <trkpt lat="45.49622" lon="4.8222">
        <ele>148.56</ele>
        <time>2019-05-25T12:26:24.000Z</time>
      </trkpt>
      <trkpt lat="45.496" lon="4.82188">
        <ele>149.73</ele>
        <time>2019-05-25T12:26:29.000Z</time>
      </trkpt>
      <trkpt lat="45.49577" lon="4.82158">
        <ele>148.04</ele>
        <time>2019-05-25T12:26:34.000Z</time>
      </trkpt>
      <trkpt lat="45.49552" lon="4.82129">
        <ele>146.81</ele>
        <time>2019-05-25T12:26:39.000Z</time>
      </trkpt>
      <trkpt lat="45.49529" lon="4.82103">
        <ele>148.54</ele>
        <time>2019-05-25T12:26:44.000Z</time>
      </trkpt>
      <trkpt lat="45.49505" lon="4.82076">
        <ele>148.6</ele>
        <time>2019-05-25T12:26:49.000Z</time>
      </trkpt>
      <trkpt lat="45.49479" lon="4.82051">
        <ele>147.79</ele>
        <time>2019-05-25T12:26:54.000Z</time>
      </trkpt>
      <trkpt lat="45.49453" lon="4.82022">
        <ele>148.02</ele>
        <time>2019-05-25T12:26:59.000Z</time>
      </trkpt>
      <trkpt lat="45.49429" lon="4.81992">
        <ele>147.02</ele>
        <time>2019-05-25T12:27:04.000Z</time>
      </trkpt>
      <trkpt lat="45.49401" lon="4.81963">
        <ele>144.1</ele>
        <time>2019-05-25T12:27:09.000Z</time>
      </trkpt>
      <trkpt lat="45.49374" lon="4.8194">
        <ele>145.72</ele>
        <time>2019-05-25T12:27:14.000Z</time>
      </trkpt>
      <trkpt lat="45.49346" lon="4.81915">
        <ele>147.52</ele>
        <time>2019-05-25T12:27:19.000Z</time>
      </trkpt>
      <trkpt lat="45.49329" lon="4.819">
        <ele>146.79</ele>
        <time>2019-05-25T12:27:24.000Z</time>
      </trkpt>
      <trkpt lat="45.49314" lon="4.81919">
        <ele>147.84</ele>
        <time>2019-05-25T12:27:29.000Z</time>
      </trkpt>
      <trkpt lat="45.49299" lon="4.8194">
        <ele>146.84</ele>
        <time>2019-05-25T12:27:34.000Z</time>
      </trkpt>
      <trkpt lat="45.49281" lon="4.81947">
        <ele>145.24</ele>
        <time>2019-05-25T12:27:39.000Z</time>
      </trkpt>
      <trkpt lat="45.49262" lon="4.81925">
        <ele>146.53</ele>
        <time>2019-05-25T12:27:44.000Z</time>
      </trkpt>
      <trkpt lat="45.49243" lon="4.81908">
        <ele>145.09</ele>
        <time>2019-05-25T12:27:49.000Z</time>
      </trkpt>
      <trkpt lat="45.49222" lon="4.81888">
        <ele>145.92</ele>
        <time>2019-05-25T12:27:54.000Z</time>
      </trkpt>
      <trkpt lat="45.49201" lon="4.81867">
        <ele>146.76</ele>
        <time>2019-05-25T12:27:59.000Z</time>
      </trkpt>
      <trkpt lat="45.49178" lon="4.81849">
        <ele>145.77</ele>
        <time>2019-05-25T12:28:04.000Z</time>
      </trkpt>
      <trkpt lat="45.49153" lon="4.81837">
        <ele>145.57</ele>
        <time>2019-05-25T12:28:09.000Z</time>
      </trkpt>
      <trkpt lat="45.49128" lon="4.81826">
        <ele>146.51</ele>
        <time>2019-05-25T12:28:14.000Z</time>
      </trkpt>
      <trkpt lat="45.49103" lon="4.81812">
        <ele>146.78</ele>
        <time>2019-05-25T12:28:19.000Z</time>
      </trkpt>
      <trkpt lat="45.49076" lon="4.81795">
        <ele>146.53</ele>
        <time>2019-05-25T12:28:24.000Z</time>
      </trkpt>
      <trkpt lat="45.49051" lon="4.81774">
        <ele>147.94</ele>
        <time>2019-05-25T12:28:29.000Z</time>
      </trkpt>
      <trkpt lat="45.49028" lon="4.81751">
        <ele>147.53</ele>
        <time>2019-05-25T12:28:34.000Z</time>
      </trkpt>
      <trkpt lat="45.49006" lon="4.81732">
        <ele>148.52</ele>
        <time>2019-05-25T12:28:39.000Z</time>
      </trkpt>
      <trkpt lat="45.48985" lon="4.81716">
        <ele>148.71</ele>
        <time>2019-05-25T12:28:44.000Z</time>
      </trkpt>
      <trkpt lat="45.48967" lon="4.81698">
        <ele>147.02</ele>
        <time>2019-05-25T12:28:49.000Z</time>
      </trkpt>
      <trkpt lat="45.48948" lon="4.81681">
        <ele>147.82</ele>
        <time>2019-05-25T12:28:54.000Z</time>
      </trkpt>
      <trkpt lat="45.48927" lon="4.81659">
        <ele>146.6</ele>
        <time>2019-05-25T12:28:59.000Z</time>
      </trkpt>
      <trkpt lat="45.48912" lon="4.81645">
        <ele>146.71</ele>
        <time>2019-05-25T12:29:04.000Z</time>
      </trkpt>
      <trkpt lat="45.48904" lon="4.81637">
        <ele>149.06</ele>
        <time>2019-05-25T12:29:25.000Z</time>
      </trkpt>
      <trkpt lat="45.4889" lon="4.81626">
        <ele>146.79</ele>
        <time>2019-05-25T12:29:30.000Z</time>
      </trkpt>
      <trkpt lat="45.48873" lon="4.8161">
        <ele>146.39</ele>
        <time>2019-05-25T12:29:35.000Z</time>
      </trkpt>
      <trkpt lat="45.48854" lon="4.81592">
        <ele>146.58</ele>
        <time>2019-05-25T12:29:40.000Z</time>
      </trkpt>
      <trkpt lat="45.48832" lon="4.81569">
        <ele>146.01</ele>
        <time>2019-05-25T12:29:45.000Z</time>
      </trkpt>
      <trkpt lat="45.4881" lon="4.81549">
        <ele>145.76</ele>
        <time>2019-05-25T12:29:50.000Z</time>
      </trkpt>
      <trkpt lat="45.48788" lon="4.81529">
        <ele>146.01</ele>
        <time>2019-05-25T12:29:55.000Z</time>
      </trkpt>
      <trkpt lat="45.48767" lon="4.81511">
        <ele>146.76</ele>
        <time>2019-05-25T12:30:00.000Z</time>
      </trkpt>
      <trkpt lat="45.4874" lon="4.81499">
        <ele>147.01</ele>
        <time>2019-05-25T12:30:05.000Z</time>
      </trkpt>
      <trkpt lat="45.48713" lon="4.81479">
        <ele>145.03</ele>
        <time>2019-05-25T12:30:10.000Z</time>
      </trkpt>
      <trkpt lat="45.48692" lon="4.81445">
        <ele>143.76</ele>
        <time>2019-05-25T12:30:15.000Z</time>
      </trkpt>
      <trkpt lat="45.48674" lon="4.81412">
        <ele>144.01</ele>
        <time>2019-05-25T12:30:20.000Z</time>
      </trkpt>
      <trkpt lat="45.48657" lon="4.81381">
        <ele>145.74</ele>
        <time>2019-05-25T12:30:25.000Z</time>
      </trkpt>
      <trkpt lat="45.4864" lon="4.81348">
        <ele>147.49</ele>
        <time>2019-05-25T12:30:30.000Z</time>
      </trkpt>
      <trkpt lat="45.48624" lon="4.81311">
        <ele>147.8</ele>
        <time>2019-05-25T12:30:35.000Z</time>
      </trkpt>
      <trkpt lat="45.48608" lon="4.81278">
        <ele>148.7</ele>
        <time>2019-05-25T12:30:40.000Z</time>
      </trkpt>
      <trkpt lat="45.48595" lon="4.81254">
        <ele>151.46</ele>
        <time>2019-05-25T12:30:45.000Z</time>
      </trkpt>
      <trkpt lat="45.48585" lon="4.81249">
        <ele>148.94</ele>
        <time>2019-05-25T12:31:16.000Z</time>
      </trkpt>
      <trkpt lat="45.48594" lon="4.81238">
        <ele>148.75</ele>
        <time>2019-05-25T12:31:22.000Z</time>
      </trkpt>
      <trkpt lat="45.48615" lon="4.81222">
        <ele>148.74</ele>
        <time>2019-05-25T12:31:27.000Z</time>
      </trkpt>
      <trkpt lat="45.48636" lon="4.81202">
        <ele>150.5</ele>
        <time>2019-05-25T12:31:32.000Z</time>
      </trkpt>
      <trkpt lat="45.48657" lon="4.81183">
        <ele>151.5</ele>
        <time>2019-05-25T12:31:37.000Z</time>
      </trkpt>
      <trkpt lat="45.48679" lon="4.81162">
        <ele>150.77</ele>
        <time>2019-05-25T12:31:42.000Z</time>
      </trkpt>
      <trkpt lat="45.48691" lon="4.81151">
        <ele>150.83</ele>
        <time>2019-05-25T12:31:47.000Z</time>
      </trkpt>
      <trkpt lat="45.48686" lon="4.81138">
        <ele>148.07</ele>
        <time>2019-05-25T12:31:54.000Z</time>
      </trkpt>
      <trkpt lat="45.48673" lon="4.81112">
        <ele>149.69</ele>
        <time>2019-05-25T12:31:59.000Z</time>
      </trkpt>
      <trkpt lat="45.48657" lon="4.81081">
        <ele>148.81</ele>
        <time>2019-05-25T12:32:04.000Z</time>
      </trkpt>
      <trkpt lat="45.48641" lon="4.81048">
        <ele>147.81</ele>
        <time>2019-05-25T12:32:09.000Z</time>
      </trkpt>
      <trkpt lat="45.48635" lon="4.81012">
        <ele>146.01</ele>
        <time>2019-05-25T12:32:14.000Z</time>
      </trkpt>
      <trkpt lat="45.48636" lon="4.80978">
        <ele>148.68</ele>
        <time>2019-05-25T12:32:19.000Z</time>
      </trkpt>
      <trkpt lat="45.48639" lon="4.80945">
        <ele>150.67</ele>
        <time>2019-05-25T12:32:24.000Z</time>
      </trkpt>
      <trkpt lat="45.48643" lon="4.80912">
        <ele>151.41</ele>
        <time>2019-05-25T12:32:29.000Z</time>
      </trkpt>
      <trkpt lat="45.48646" lon="4.80877">
        <ele>151.68</ele>
        <time>2019-05-25T12:32:34.000Z</time>
      </trkpt>
      <trkpt lat="45.48649" lon="4.80844">
        <ele>151.69</ele>
        <time>2019-05-25T12:32:39.000Z</time>
      </trkpt>
      <trkpt lat="45.48653" lon="4.80808">
        <ele>151.56</ele>
        <time>2019-05-25T12:32:44.000Z</time>
      </trkpt>
      <trkpt lat="45.48657" lon="4.8077">
        <ele>154.74</ele>
        <time>2019-05-25T12:32:49.000Z</time>
      </trkpt>
      <trkpt lat="45.48656" lon="4.80731">
        <ele>153.8</ele>
        <time>2019-05-25T12:32:54.000Z</time>
      </trkpt>
      <trkpt lat="45.48648" lon="4.80696">
        <ele>150.8</ele>
        <time>2019-05-25T12:32:59.000Z</time>
      </trkpt>
      <trkpt lat="45.48641" lon="4.80658">
        <ele>150.73</ele>
        <time>2019-05-25T12:33:04.000Z</time>
      </trkpt>
      <trkpt lat="45.48631" lon="4.8062">
        <ele>149.73</ele>
        <time>2019-05-25T12:33:09.000Z</time>
      </trkpt>
      <trkpt lat="45.48618" lon="4.80582">
        <ele>150.53</ele>
        <time>2019-05-25T12:33:14.000Z</time>
      </trkpt>
      <trkpt lat="45.48604" lon="4.80541">
        <ele>150.68</ele>
        <time>2019-05-25T12:33:19.000Z</time>
      </trkpt>
      <trkpt lat="45.4859" lon="4.80502">
        <ele>148.99</ele>
        <time>2019-05-25T12:33:24.000Z</time>
      </trkpt>
      <trkpt lat="45.48576" lon="4.80463">
        <ele>148.74</ele>
        <time>2019-05-25T12:33:29.000Z</time>
      </trkpt>
      <trkpt lat="45.48561" lon="4.80426">
        <ele>147.8</ele>
        <time>2019-05-25T12:33:34.000Z</time>
      </trkpt>
      <trkpt lat="45.48547" lon="4.80391">
        <ele>148.48</ele>
        <time>2019-05-25T12:33:39.000Z</time>
      </trkpt>
      <trkpt lat="45.48533" lon="4.80357">
        <ele>147.73</ele>
        <time>2019-05-25T12:33:44.000Z</time>
      </trkpt>
      <trkpt lat="45.48521" lon="4.80326">
        <ele>147.72</ele>
        <time>2019-05-25T12:33:49.000Z</time>
      </trkpt>
      <trkpt lat="45.48511" lon="4.80292">
        <ele>148.48</ele>
        <time>2019-05-25T12:33:54.000Z</time>
      </trkpt>
      <trkpt lat="45.485" lon="4.80258">
        <ele>149.66</ele>
        <time>2019-05-25T12:33:59.000Z</time>
      </trkpt>
      <trkpt lat="45.48491" lon="4.80224">
        <ele>148.93</ele>
        <time>2019-05-25T12:34:04.000Z</time>
      </trkpt>
      <trkpt lat="45.4848" lon="4.80188">
        <ele>149.02</ele>
        <time>2019-05-25T12:34:09.000Z</time>
      </trkpt>
      <trkpt lat="45.48468" lon="4.80153">
        <ele>148.97</ele>
        <time>2019-05-25T12:34:14.000Z</time>
      </trkpt>
      <trkpt lat="45.48458" lon="4.80117">
        <ele>149.72</ele>
        <time>2019-05-25T12:34:19.000Z</time>
      </trkpt>
      <trkpt lat="45.48445" lon="4.80083">
        <ele>149.97</ele>
        <time>2019-05-25T12:34:24.000Z</time>
      </trkpt>
      <trkpt lat="45.4843" lon="4.80049">
        <ele>147.74</ele>
        <time>2019-05-25T12:34:29.000Z</time>
      </trkpt>
      <trkpt lat="45.48415" lon="4.80017">
        <ele>147.74</ele>
        <time>2019-05-25T12:34:34.000Z</time>
      </trkpt>
      <trkpt lat="45.484" lon="4.79988">
        <ele>147.72</ele>
        <time>2019-05-25T12:34:39.000Z</time>
      </trkpt>
      <trkpt lat="45.48383" lon="4.79957">
        <ele>147.72</ele>
        <time>2019-05-25T12:34:44.000Z</time>
      </trkpt>
      <trkpt lat="45.48366" lon="4.79926">
        <ele>146.72</ele>
        <time>2019-05-25T12:34:49.000Z</time>
      </trkpt>
      <trkpt lat="45.48349" lon="4.79896">
        <ele>147.72</ele>
        <time>2019-05-25T12:34:54.000Z</time>
      </trkpt>
      <trkpt lat="45.48334" lon="4.79863">
        <ele>147.47</ele>
        <time>2019-05-25T12:34:59.000Z</time>
      </trkpt>
      <trkpt lat="45.48329" lon="4.79822">
        <ele>147.47</ele>
        <time>2019-05-25T12:35:04.000Z</time>
      </trkpt>
      <trkpt lat="45.48335" lon="4.79781">
        <ele>147.95</ele>
        <time>2019-05-25T12:35:09.000Z</time>
      </trkpt>
      <trkpt lat="45.48338" lon="4.79741">
        <ele>148.53</ele>
        <time>2019-05-25T12:35:14.000Z</time>
      </trkpt>
      <trkpt lat="45.48342" lon="4.79703">
        <ele>147.73</ele>
        <time>2019-05-25T12:35:19.000Z</time>
      </trkpt>
      <trkpt lat="45.48346" lon="4.79666">
        <ele>147.46</ele>
        <time>2019-05-25T12:35:24.000Z</time>
      </trkpt>
      <trkpt lat="45.48349" lon="4.7963">
        <ele>147.71</ele>
        <time>2019-05-25T12:35:29.000Z</time>
      </trkpt>
      <trkpt lat="45.48354" lon="4.79596">
        <ele>147.72</ele>
        <time>2019-05-25T12:35:34.000Z</time>
      </trkpt>
      <trkpt lat="45.48362" lon="4.79565">
        <ele>148.46</ele>
        <time>2019-05-25T12:35:39.000Z</time>
      </trkpt>
      <trkpt lat="45.48369" lon="4.79533">
        <ele>147.91</ele>
        <time>2019-05-25T12:35:44.000Z</time>
      </trkpt>
      <trkpt lat="45.48377" lon="4.79503">
        <ele>146.96</ele>
        <time>2019-05-25T12:35:49.000Z</time>
      </trkpt>
      <trkpt lat="45.48381" lon="4.79473">
        <ele>148.69</ele>
        <time>2019-05-25T12:35:54.000Z</time>
      </trkpt>
      <trkpt lat="45.48376" lon="4.79442">
        <ele>149.71</ele>
        <time>2019-05-25T12:35:59.000Z</time>
      </trkpt>
      <trkpt lat="45.48369" lon="4.79411">
        <ele>149.71</ele>
        <time>2019-05-25T12:36:04.000Z</time>
      </trkpt>
      <trkpt lat="45.48361" lon="4.7938">
        <ele>150.5</ele>
        <time>2019-05-25T12:36:09.000Z</time>
      </trkpt>
      <trkpt lat="45.48354" lon="4.79348">
        <ele>152.44</ele>
        <time>2019-05-25T12:36:14.000Z</time>
      </trkpt>
      <trkpt lat="45.48347" lon="4.79317">
        <ele>151.71</ele>
        <time>2019-05-25T12:36:19.000Z</time>
      </trkpt>
      <trkpt lat="45.48342" lon="4.79288">
        <ele>150.95</ele>
        <time>2019-05-25T12:36:24.000Z</time>
      </trkpt>
      <trkpt lat="45.48337" lon="4.79257">
        <ele>151.45</ele>
        <time>2019-05-25T12:36:29.000Z</time>
      </trkpt>
      <trkpt lat="45.4833" lon="4.79226">
        <ele>151.7</ele>
        <time>2019-05-25T12:36:34.000Z</time>
      </trkpt>
      <trkpt lat="45.48327" lon="4.79192">
        <ele>151.89</ele>
        <time>2019-05-25T12:36:39.000Z</time>
      </trkpt>
      <trkpt lat="45.48324" lon="4.79154">
        <ele>151.71</ele>
        <time>2019-05-25T12:36:44.000Z</time>
      </trkpt>
      <trkpt lat="45.4832" lon="4.79116">
        <ele>151.71</ele>
        <time>2019-05-25T12:36:49.000Z</time>
      </trkpt>
      <trkpt lat="45.48316" lon="4.79077">
        <ele>152.45</ele>
        <time>2019-05-25T12:36:54.000Z</time>
      </trkpt>
      <trkpt lat="45.4831" lon="4.79039">
        <ele>153.69</ele>
        <time>2019-05-25T12:36:59.000Z</time>
      </trkpt>
      <trkpt lat="45.48306" lon="4.79002">
        <ele>151.96</ele>
        <time>2019-05-25T12:37:04.000Z</time>
      </trkpt>
      <trkpt lat="45.48303" lon="4.78965">
        <ele>151.9</ele>
        <time>2019-05-25T12:37:09.000Z</time>
      </trkpt>
      <trkpt lat="45.48299" lon="4.7893">
        <ele>151.69</ele>
        <time>2019-05-25T12:37:14.000Z</time>
      </trkpt>
      <trkpt lat="45.48289" lon="4.78898">
        <ele>151.69</ele>
        <time>2019-05-25T12:37:19.000Z</time>
      </trkpt>
      <trkpt lat="45.48283" lon="4.78873">
        <ele>151.69</ele>
        <time>2019-05-25T12:37:24.000Z</time>
      </trkpt>
      <trkpt lat="45.48265" lon="4.78866">
        <ele>151.44</ele>
        <time>2019-05-25T12:37:29.000Z</time>
      </trkpt>
      <trkpt lat="45.48244" lon="4.78864">
        <ele>152.69</ele>
        <time>2019-05-25T12:37:34.000Z</time>
      </trkpt>
      <trkpt lat="45.48217" lon="4.78859">
        <ele>151.75</ele>
        <time>2019-05-25T12:37:39.000Z</time>
      </trkpt>
      <trkpt lat="45.48179" lon="4.78857">
        <ele>148.77</ele>
        <time>2019-05-25T12:37:44.000Z</time>
      </trkpt>
      <trkpt lat="45.48146" lon="4.78853">
        <ele>146.77</ele>
        <time>2019-05-25T12:37:49.000Z</time>
      </trkpt>
      <trkpt lat="45.4813" lon="4.7885">
        <ele>146.69</ele>
        <time>2019-05-25T12:37:54.000Z</time>
      </trkpt>
      <trkpt lat="45.48105" lon="4.78842">
        <ele>147.44</ele>
        <time>2019-05-25T12:37:59.000Z</time>
      </trkpt>
      <trkpt lat="45.48076" lon="4.78832">
        <ele>147.44</ele>
        <time>2019-05-25T12:38:04.000Z</time>
      </trkpt>
      <trkpt lat="45.48061" lon="4.7882">
        <ele>147.69</ele>
        <time>2019-05-25T12:38:09.000Z</time>
      </trkpt>
      <trkpt lat="45.48068" lon="4.78789">
        <ele>147.94</ele>
        <time>2019-05-25T12:38:14.000Z</time>
      </trkpt>
      <trkpt lat="45.48076" lon="4.78755">
        <ele>148.62</ele>
        <time>2019-05-25T12:38:19.000Z</time>
      </trkpt>
      <trkpt lat="45.4808" lon="4.78718">
        <ele>148.68</ele>
        <time>2019-05-25T12:38:24.000Z</time>
      </trkpt>
      <trkpt lat="45.48076" lon="4.78677">
        <ele>147.45</ele>
        <time>2019-05-25T12:38:29.000Z</time>
      </trkpt>
      <trkpt lat="45.48067" lon="4.78632">
        <ele>145.7</ele>
        <time>2019-05-25T12:38:34.000Z</time>
      </trkpt>
      <trkpt lat="45.48054" lon="4.78591">
        <ele>144.24</ele>
        <time>2019-05-25T12:38:39.000Z</time>
      </trkpt>
      <trkpt lat="45.4804" lon="4.78557">
        <ele>139.87</ele>
        <time>2019-05-25T12:38:44.000Z</time>
      </trkpt>
      <trkpt lat="45.48018" lon="4.78527">
        <ele>142.41</ele>
        <time>2019-05-25T12:38:49.000Z</time>
      </trkpt>
      <trkpt lat="45.47999" lon="4.78494">
        <ele>143.66</ele>
        <time>2019-05-25T12:38:54.000Z</time>
      </trkpt>
      <trkpt lat="45.47979" lon="4.78462">
        <ele>145.43</ele>
        <time>2019-05-25T12:38:59.000Z</time>
      </trkpt>
      <trkpt lat="45.47959" lon="4.78438">
        <ele>145.49</ele>
        <time>2019-05-25T12:39:04.000Z</time>
      </trkpt>
      <trkpt lat="45.47945" lon="4.78429">
        <ele>145.74</ele>
        <time>2019-05-25T12:39:09.000Z</time>
      </trkpt>
      <trkpt lat="45.47951" lon="4.78415">
        <ele>146.91</ele>
        <time>2019-05-25T12:39:14.000Z</time>
      </trkpt>
      <trkpt lat="45.47959" lon="4.78402">
        <ele>148.66</ele>
        <time>2019-05-25T12:39:19.000Z</time>
      </trkpt>
      <trkpt lat="45.47956" lon="4.7839">
        <ele>151.49</ele>
        <time>2019-05-25T12:42:27.000Z</time>
      </trkpt>
      <trkpt lat="45.47963" lon="4.78379">
        <ele>149.92</ele>
        <time>2019-05-25T12:44:12.000Z</time>
      </trkpt>
      <trkpt lat="45.47958" lon="4.7835">
        <ele>149.38</ele>
        <time>2019-05-25T12:44:17.000Z</time>
      </trkpt>
      <trkpt lat="45.47941" lon="4.7832">
        <ele>150.61</ele>
        <time>2019-05-25T12:44:22.000Z</time>
      </trkpt>
      <trkpt lat="45.47923" lon="4.78293">
        <ele>150.67</ele>
        <time>2019-05-25T12:44:27.000Z</time>
      </trkpt>
      <trkpt lat="45.47899" lon="4.78283">
        <ele>148.11</ele>
        <time>2019-05-25T12:44:32.000Z</time>
      </trkpt>
      <trkpt lat="45.47882" lon="4.78268">
        <ele>146.64</ele>
        <time>2019-05-25T12:44:37.000Z</time>
      </trkpt>
      <trkpt lat="45.47861" lon="4.78245">
        <ele>148.45</ele>
        <time>2019-05-25T12:44:42.000Z</time>
      </trkpt>
      <trkpt lat="45.47837" lon="4.78229">
        <ele>147.47</ele>
        <time>2019-05-25T12:44:47.000Z</time>
      </trkpt>
      <trkpt lat="45.4781" lon="4.78224">
        <ele>146.67</ele>
        <time>2019-05-25T12:44:52.000Z</time>
      </trkpt>
      <trkpt lat="45.4778" lon="4.78215">
        <ele>146.42</ele>
        <time>2019-05-25T12:44:57.000Z</time>
      </trkpt>
      <trkpt lat="45.47752" lon="4.78208">
        <ele>147.84</ele>
        <time>2019-05-25T12:45:02.000Z</time>
      </trkpt>
      <trkpt lat="45.47727" lon="4.78196">
        <ele>142.59</ele>
        <time>2019-05-25T12:45:07.000Z</time>
      </trkpt>
      <trkpt lat="45.47699" lon="4.78191">
        <ele>140.67</ele>
        <time>2019-05-25T12:45:12.000Z</time>
      </trkpt>
      <trkpt lat="45.47672" lon="4.78181">
        <ele>144.4</ele>
        <time>2019-05-25T12:45:17.000Z</time>
      </trkpt>
      <trkpt lat="45.47663" lon="4.78156">
        <ele>145.42</ele>
        <time>2019-05-25T12:45:22.000Z</time>
      </trkpt>
      <trkpt lat="45.47672" lon="4.78125">
        <ele>147.54</ele>
        <time>2019-05-25T12:45:27.000Z</time>
      </trkpt>
      <trkpt lat="45.47664" lon="4.78094">
        <ele>151.14</ele>
        <time>2019-05-25T12:45:32.000Z</time>
      </trkpt>
      <trkpt lat="45.47643" lon="4.78075">
        <ele>147.49</ele>
        <time>2019-05-25T12:45:37.000Z</time>
      </trkpt>
      <trkpt lat="45.4762" lon="4.78061">
        <ele>145.6</ele>
        <time>2019-05-25T12:45:42.000Z</time>
      </trkpt>
      <trkpt lat="45.47596" lon="4.78041">
        <ele>145.66</ele>
        <time>2019-05-25T12:45:47.000Z</time>
      </trkpt>
      <trkpt lat="45.47576" lon="4.78029">
        <ele>146.65</ele>
        <time>2019-05-25T12:45:52.000Z</time>
      </trkpt>
      <trkpt lat="45.47563" lon="4.78023">
        <ele>147.37</ele>
        <time>2019-05-25T12:45:57.000Z</time>
      </trkpt>
      <trkpt lat="45.47552" lon="4.78025">
        <ele>151.85</ele>
        <time>2019-05-25T12:46:12.000Z</time>
      </trkpt>
      <trkpt lat="45.47536" lon="4.7801">
        <ele>154.16</ele>
        <time>2019-05-25T12:46:17.000Z</time>
      </trkpt>
      <trkpt lat="45.47519" lon="4.77989">
        <ele>152.73</ele>
        <time>2019-05-25T12:46:22.000Z</time>
      </trkpt>
      <trkpt lat="45.47498" lon="4.7798">
        <ele>150.23</ele>
        <time>2019-05-25T12:46:27.000Z</time>
      </trkpt>
      <trkpt lat="45.47478" lon="4.7796">
        <ele>149.41</ele>
        <time>2019-05-25T12:46:32.000Z</time>
      </trkpt>
      <trkpt lat="45.47458" lon="4.77945">
        <ele>148.79</ele>
        <time>2019-05-25T12:46:37.000Z</time>
      </trkpt>
      <trkpt lat="45.47444" lon="4.77933">
        <ele>150.14</ele>
        <time>2019-05-25T12:46:42.000Z</time>
      </trkpt>
      <trkpt lat="45.47435" lon="4.77926">
        <ele>147.48</ele>
        <time>2019-05-25T12:46:49.000Z</time>
      </trkpt>
      <trkpt lat="45.47414" lon="4.77916">
        <ele>146.53</ele>
        <time>2019-05-25T12:46:54.000Z</time>
      </trkpt>
      <trkpt lat="45.47392" lon="4.77905">
        <ele>145.67</ele>
        <time>2019-05-25T12:46:59.000Z</time>
      </trkpt>
      <trkpt lat="45.47371" lon="4.77893">
        <ele>145.36</ele>
        <time>2019-05-25T12:47:04.000Z</time>
      </trkpt>
      <trkpt lat="45.47356" lon="4.77887">
        <ele>145.65</ele>
        <time>2019-05-25T12:47:09.000Z</time>
      </trkpt>
      <trkpt lat="45.47347" lon="4.77885">
        <ele>145.71</ele>
        <time>2019-05-25T12:47:15.000Z</time>
      </trkpt>
      <trkpt lat="45.47333" lon="4.77877">
        <ele>146.66</ele>
        <time>2019-05-25T12:47:20.000Z</time>
      </trkpt>
      <trkpt lat="45.47318" lon="4.77866">
        <ele>147.79</ele>
        <time>2019-05-25T12:47:25.000Z</time>
      </trkpt>
      <trkpt lat="45.47301" lon="4.77857">
        <ele>147.65</ele>
        <time>2019-05-25T12:47:30.000Z</time>
      </trkpt>
      <trkpt lat="45.47282" lon="4.77848">
        <ele>146.73</ele>
        <time>2019-05-25T12:47:35.000Z</time>
      </trkpt>
      <trkpt lat="45.47266" lon="4.7784">
        <ele>146.66</ele>
        <time>2019-05-25T12:47:40.000Z</time>
      </trkpt>
      <trkpt lat="45.47256" lon="4.77839">
        <ele>147.07</ele>
        <time>2019-05-25T12:47:46.000Z</time>
      </trkpt>
      <trkpt lat="45.4724" lon="4.77826">
        <ele>147.65</ele>
        <time>2019-05-25T12:47:51.000Z</time>
      </trkpt>
      <trkpt lat="45.47225" lon="4.77813">
        <ele>147.67</ele>
        <time>2019-05-25T12:47:56.000Z</time>
      </trkpt>
      <trkpt lat="45.47211" lon="4.77801">
        <ele>149.59</ele>
        <time>2019-05-25T12:48:01.000Z</time>
      </trkpt>
      <trkpt lat="45.472" lon="4.77793">
        <ele>148.85</ele>
        <time>2019-05-25T12:48:06.000Z</time>
      </trkpt>
      <trkpt lat="45.47194" lon="4.77783">
        <ele>150.65</ele>
        <time>2019-05-25T12:48:13.000Z</time>
      </trkpt>
      <trkpt lat="45.47187" lon="4.77796">
        <ele>146.63</ele>
        <time>2019-05-25T12:50:17.000Z</time>
      </trkpt>
      <trkpt lat="45.47185" lon="4.77808">
        <ele>147.9</ele>
        <time>2019-05-25T12:50:24.000Z</time>
      </trkpt>
      <trkpt lat="45.47189" lon="4.77821">
        <ele>149.76</ele>
        <time>2019-05-25T12:50:45.000Z</time>
      </trkpt>
      <trkpt lat="45.47189" lon="4.77806">
        <ele>145.63</ele>
        <time>2019-05-25T12:52:38.000Z</time>
      </trkpt>
      <trkpt lat="45.47193" lon="4.77794">
        <ele>146.63</ele>
        <time>2019-05-25T12:52:45.000Z</time>
      </trkpt>
      <trkpt lat="45.47196" lon="4.7778">
        <ele>145.89</ele>
        <time>2019-05-25T12:52:56.000Z</time>
      </trkpt>
      <trkpt lat="45.47188" lon="4.77788">
        <ele>147.44</ele>
        <time>2019-05-25T12:55:16.000Z</time>
      </trkpt>
      <trkpt lat="45.47178" lon="4.77779">
        <ele>147.58</ele>
        <time>2019-05-25T12:55:21.000Z</time>
      </trkpt>
      <trkpt lat="45.47168" lon="4.77772">
        <ele>150.38</ele>
        <time>2019-05-25T12:55:27.000Z</time>
      </trkpt>
      <trkpt lat="45.47152" lon="4.7776">
        <ele>152.51</ele>
        <time>2019-05-25T12:55:32.000Z</time>
      </trkpt>
      <trkpt lat="45.4714" lon="4.77754">
        <ele>152.69</ele>
        <time>2019-05-25T12:55:37.000Z</time>
      </trkpt>
      <trkpt lat="45.47131" lon="4.77756">
        <ele>150.4</ele>
        <time>2019-05-25T12:55:46.000Z</time>
      </trkpt>
      <trkpt lat="45.47128" lon="4.77769">
        <ele>151.93</ele>
        <time>2019-05-25T12:55:56.000Z</time>
      </trkpt>
      <trkpt lat="45.47129" lon="4.77782">
        <ele>154.64</ele>
        <time>2019-05-25T12:56:35.000Z</time>
      </trkpt>
      <trkpt lat="45.47131" lon="4.77769">
        <ele>159.18</ele>
        <time>2019-05-25T13:01:53.000Z</time>
      </trkpt>
      <trkpt lat="45.47122" lon="4.77761">
        <ele>156.41</ele>
        <time>2019-05-25T13:02:03.000Z</time>
      </trkpt>
      <trkpt lat="45.47108" lon="4.77771">
        <ele>156.63</ele>
        <time>2019-05-25T13:02:08.000Z</time>
      </trkpt>
      <trkpt lat="45.47094" lon="4.77779">
        <ele>155.15</ele>
        <time>2019-05-25T13:02:13.000Z</time>
      </trkpt>
      <trkpt lat="45.47085" lon="4.77778">
        <ele>154.65</ele>
        <time>2019-05-25T13:02:18.000Z</time>
      </trkpt>
      <trkpt lat="45.47078" lon="4.77764">
        <ele>153.85</ele>
        <time>2019-05-25T13:02:23.000Z</time>
      </trkpt>
      <trkpt lat="45.47072" lon="4.77751">
        <ele>149.98</ele>
        <time>2019-05-25T13:02:28.000Z</time>
      </trkpt>
      <trkpt lat="45.47061" lon="4.77754">
        <ele>153.19</ele>
        <time>2019-05-25T13:02:38.000Z</time>
      </trkpt>
      <trkpt lat="45.47046" lon="4.77771">
        <ele>152.88</ele>
        <time>2019-05-25T13:02:43.000Z</time>
      </trkpt>
      <trkpt lat="45.47029" lon="4.77789">
        <ele>152.66</ele>
        <time>2019-05-25T13:02:48.000Z</time>
      </trkpt>
      <trkpt lat="45.47017" lon="4.77806">
        <ele>151.65</ele>
        <time>2019-05-25T13:02:53.000Z</time>
      </trkpt>
      <trkpt lat="45.47004" lon="4.77821">
        <ele>151.85</ele>
        <time>2019-05-25T13:02:58.000Z</time>
      </trkpt>
      <trkpt lat="45.46994" lon="4.77833">
        <ele>149.65</ele>
        <time>2019-05-25T13:03:03.000Z</time>
      </trkpt>
      <trkpt lat="45.46987" lon="4.77843">
        <ele>151.39</ele>
        <time>2019-05-25T13:03:09.000Z</time>
      </trkpt>
      <trkpt lat="45.46979" lon="4.77851">
        <ele>149.96</ele>
        <time>2019-05-25T13:03:18.000Z</time>
      </trkpt>
      <trkpt lat="45.46974" lon="4.77863">
        <ele>145.71</ele>
        <time>2019-05-25T13:04:49.000Z</time>
      </trkpt>
      <trkpt lat="45.46964" lon="4.77863">
        <ele>145.34</ele>
        <time>2019-05-25T13:04:54.000Z</time>
      </trkpt>
      <trkpt lat="45.46946" lon="4.77864">
        <ele>145.83</ele>
        <time>2019-05-25T13:04:59.000Z</time>
      </trkpt>
      <trkpt lat="45.46928" lon="4.77868">
        <ele>151.52</ele>
        <time>2019-05-25T13:05:04.000Z</time>
      </trkpt>
      <trkpt lat="45.46906" lon="4.77872">
        <ele>151.46</ele>
        <time>2019-05-25T13:05:09.000Z</time>
      </trkpt>
      <trkpt lat="45.46881" lon="4.77877">
        <ele>150.65</ele>
        <time>2019-05-25T13:05:14.000Z</time>
      </trkpt>
      <trkpt lat="45.46857" lon="4.77879">
        <ele>147.95</ele>
        <time>2019-05-25T13:05:19.000Z</time>
      </trkpt>
      <trkpt lat="45.46833" lon="4.77883">
        <ele>148.83</ele>
        <time>2019-05-25T13:05:24.000Z</time>
      </trkpt>
      <trkpt lat="45.46809" lon="4.77886">
        <ele>147.66</ele>
        <time>2019-05-25T13:05:29.000Z</time>
      </trkpt>
      <trkpt lat="45.46784" lon="4.7789">
        <ele>147.65</ele>
        <time>2019-05-25T13:05:34.000Z</time>
      </trkpt>
      <trkpt lat="45.46759" lon="4.77896">
        <ele>149.52</ele>
        <time>2019-05-25T13:05:39.000Z</time>
      </trkpt>
      <trkpt lat="45.46747" lon="4.77893">
        <ele>148.83</ele>
        <time>2019-05-25T13:05:44.000Z</time>
      </trkpt>
      <trkpt lat="45.46733" lon="4.77879">
        <ele>149.63</ele>
        <time>2019-05-25T13:05:49.000Z</time>
      </trkpt>
      <trkpt lat="45.46709" lon="4.77858">
        <ele>147.85</ele>
        <time>2019-05-25T13:05:54.000Z</time>
      </trkpt>
      <trkpt lat="45.46691" lon="4.77833">
        <ele>147.88</ele>
        <time>2019-05-25T13:05:59.000Z</time>
      </trkpt>
      <trkpt lat="45.46672" lon="4.77805">
        <ele>148.64</ele>
        <time>2019-05-25T13:06:04.000Z</time>
      </trkpt>
      <trkpt lat="45.46654" lon="4.77777">
        <ele>147.6</ele>
        <time>2019-05-25T13:06:09.000Z</time>
      </trkpt>
      <trkpt lat="45.46633" lon="4.77751">
        <ele>146.71</ele>
        <time>2019-05-25T13:06:14.000Z</time>
      </trkpt>
      <trkpt lat="45.46611" lon="4.77726">
        <ele>145.64</ele>
        <time>2019-05-25T13:06:19.000Z</time>
      </trkpt>
      <trkpt lat="45.46593" lon="4.77716">
        <ele>145.83</ele>
        <time>2019-05-25T13:06:24.000Z</time>
      </trkpt>
      <trkpt lat="45.46577" lon="4.7774">
        <ele>146.69</ele>
        <time>2019-05-25T13:06:29.000Z</time>
      </trkpt>
      <trkpt lat="45.46559" lon="4.77766">
        <ele>146.69</ele>
        <time>2019-05-25T13:06:34.000Z</time>
      </trkpt>
      <trkpt lat="45.46541" lon="4.77794">
        <ele>146.64</ele>
        <time>2019-05-25T13:06:39.000Z</time>
      </trkpt>
      <trkpt lat="45.46523" lon="4.77821">
        <ele>147.39</ele>
        <time>2019-05-25T13:06:44.000Z</time>
      </trkpt>
      <trkpt lat="45.46504" lon="4.77848">
        <ele>149.57</ele>
        <time>2019-05-25T13:06:49.000Z</time>
      </trkpt>
      <trkpt lat="45.46491" lon="4.77873">
        <ele>149.64</ele>
        <time>2019-05-25T13:06:54.000Z</time>
      </trkpt>
      <trkpt lat="45.46487" lon="4.77906">
        <ele>149.4</ele>
        <time>2019-05-25T13:06:59.000Z</time>
      </trkpt>
      <trkpt lat="45.4648" lon="4.77936">
        <ele>149.59</ele>
        <time>2019-05-25T13:07:04.000Z</time>
      </trkpt>
      <trkpt lat="45.46459" lon="4.77941">
        <ele>146.7</ele>
        <time>2019-05-25T13:07:09.000Z</time>
      </trkpt>
      <trkpt lat="45.46437" lon="4.77932">
        <ele>147.58</ele>
        <time>2019-05-25T13:07:14.000Z</time>
      </trkpt>
      <trkpt lat="45.46411" lon="4.77923">
        <ele>147.64</ele>
        <time>2019-05-25T13:07:19.000Z</time>
      </trkpt>
      <trkpt lat="45.46386" lon="4.7792">
        <ele>147.69</ele>
        <time>2019-05-25T13:07:24.000Z</time>
      </trkpt>
      <trkpt lat="45.46362" lon="4.77909">
        <ele>150.57</ele>
        <time>2019-05-25T13:07:29.000Z</time>
      </trkpt>
      <trkpt lat="45.46337" lon="4.77893">
        <ele>149.66</ele>
        <time>2019-05-25T13:07:34.000Z</time>
      </trkpt>
      <trkpt lat="45.4631" lon="4.7788">
        <ele>149.64</ele>
        <time>2019-05-25T13:07:39.000Z</time>
      </trkpt>
      <trkpt lat="45.46283" lon="4.77866">
        <ele>149.64</ele>
        <time>2019-05-25T13:07:44.000Z</time>
      </trkpt>
      <trkpt lat="45.46259" lon="4.77844">
        <ele>149.64</ele>
        <time>2019-05-25T13:07:49.000Z</time>
      </trkpt>
      <trkpt lat="45.46235" lon="4.7782">
        <ele>148.65</ele>
        <time>2019-05-25T13:07:54.000Z</time>
      </trkpt>
      <trkpt lat="45.46212" lon="4.77795">
        <ele>147.65</ele>
        <time>2019-05-25T13:07:59.000Z</time>
      </trkpt>
      <trkpt lat="45.46188" lon="4.77771">
        <ele>145.65</ele>
        <time>2019-05-25T13:08:04.000Z</time>
      </trkpt>
      <trkpt lat="45.46165" lon="4.77746">
        <ele>145.63</ele>
        <time>2019-05-25T13:08:09.000Z</time>
      </trkpt>
      <trkpt lat="45.4614" lon="4.77723">
        <ele>146.63</ele>
        <time>2019-05-25T13:08:14.000Z</time>
      </trkpt>
      <trkpt lat="45.46114" lon="4.77703">
        <ele>146.63</ele>
        <time>2019-05-25T13:08:19.000Z</time>
      </trkpt>
      <trkpt lat="45.46089" lon="4.77684">
        <ele>147.62</ele>
        <time>2019-05-25T13:08:24.000Z</time>
      </trkpt>
      <trkpt lat="45.46067" lon="4.7767">
        <ele>147.58</ele>
        <time>2019-05-25T13:08:29.000Z</time>
      </trkpt>
      <trkpt lat="45.46048" lon="4.77651">
        <ele>146.63</ele>
        <time>2019-05-25T13:08:34.000Z</time>
      </trkpt>
      <trkpt lat="45.46041" lon="4.77618">
        <ele>145.63</ele>
        <time>2019-05-25T13:08:39.000Z</time>
      </trkpt>
      <trkpt lat="45.46038" lon="4.77585">
        <ele>146.61</ele>
        <time>2019-05-25T13:08:44.000Z</time>
      </trkpt>
      <trkpt lat="45.46035" lon="4.7755">
        <ele>145.63</ele>
        <time>2019-05-25T13:08:49.000Z</time>
      </trkpt>
      <trkpt lat="45.46032" lon="4.77514">
        <ele>145.39</ele>
        <time>2019-05-25T13:08:54.000Z</time>
      </trkpt>
      <trkpt lat="45.46023" lon="4.77478">
        <ele>146.58</ele>
        <time>2019-05-25T13:08:59.000Z</time>
      </trkpt>
      <trkpt lat="45.46013" lon="4.77442">
        <ele>146.62</ele>
        <time>2019-05-25T13:09:04.000Z</time>
      </trkpt>
      <trkpt lat="45.46001" lon="4.77407">
        <ele>146.62</ele>
        <time>2019-05-25T13:09:09.000Z</time>
      </trkpt>
      <trkpt lat="45.45986" lon="4.77375">
        <ele>146.82</ele>
        <time>2019-05-25T13:09:14.000Z</time>
      </trkpt>
      <trkpt lat="45.45972" lon="4.77342">
        <ele>146.56</ele>
        <time>2019-05-25T13:09:19.000Z</time>
      </trkpt>
      <trkpt lat="45.45961" lon="4.77306">
        <ele>146.62</ele>
        <time>2019-05-25T13:09:24.000Z</time>
      </trkpt>
      <trkpt lat="45.45948" lon="4.77276">
        <ele>145.62</ele>
        <time>2019-05-25T13:09:29.000Z</time>
      </trkpt>
      <trkpt lat="45.45939" lon="4.77242">
        <ele>145.87</ele>
        <time>2019-05-25T13:09:34.000Z</time>
      </trkpt>
      <trkpt lat="45.45929" lon="4.77215">
        <ele>145.85</ele>
        <time>2019-05-25T13:09:39.000Z</time>
      </trkpt>
      <trkpt lat="45.45912" lon="4.77202">
        <ele>145.62</ele>
        <time>2019-05-25T13:09:44.000Z</time>
      </trkpt>
      <trkpt lat="45.45891" lon="4.77186">
        <ele>145.62</ele>
        <time>2019-05-25T13:09:49.000Z</time>
      </trkpt>
      <trkpt lat="45.4587" lon="4.77172">
        <ele>146.6</ele>
        <time>2019-05-25T13:09:54.000Z</time>
      </trkpt>
      <trkpt lat="45.45847" lon="4.77156">
        <ele>146.62</ele>
        <time>2019-05-25T13:09:59.000Z</time>
      </trkpt>
      <trkpt lat="45.45827" lon="4.77141">
        <ele>147.36</ele>
        <time>2019-05-25T13:10:04.000Z</time>
      </trkpt>
      <trkpt lat="45.45806" lon="4.77123">
        <ele>147.6</ele>
        <time>2019-05-25T13:10:09.000Z</time>
      </trkpt>
      <trkpt lat="45.45788" lon="4.77097">
        <ele>148.36</ele>
        <time>2019-05-25T13:10:14.000Z</time>
      </trkpt>
      <trkpt lat="45.4578" lon="4.77062">
        <ele>147.63</ele>
        <time>2019-05-25T13:10:19.000Z</time>
      </trkpt>
      <trkpt lat="45.45782" lon="4.77024">
        <ele>146.38</ele>
        <time>2019-05-25T13:10:24.000Z</time>
      </trkpt>
      <trkpt lat="45.45784" lon="4.76998">
        <ele>145.81</ele>
        <time>2019-05-25T13:10:29.000Z</time>
      </trkpt>
      <trkpt lat="45.45782" lon="4.76985">
        <ele>143.62</ele>
        <time>2019-05-25T13:10:45.000Z</time>
      </trkpt>
      <trkpt lat="45.45783" lon="4.76966">
        <ele>145.36</ele>
        <time>2019-05-25T13:10:50.000Z</time>
      </trkpt>
      <trkpt lat="45.45785" lon="4.76947">
        <ele>144.86</ele>
        <time>2019-05-25T13:10:55.000Z</time>
      </trkpt>
      <trkpt lat="45.45794" lon="4.76942">
        <ele>144.62</ele>
        <time>2019-05-25T13:11:00.000Z</time>
      </trkpt>
      <trkpt lat="45.4579" lon="4.76924">
        <ele>145.67</ele>
        <time>2019-05-25T13:11:05.000Z</time>
      </trkpt>
      <trkpt lat="45.4579" lon="4.76898">
        <ele>146.65</ele>
        <time>2019-05-25T13:11:10.000Z</time>
      </trkpt>
      <trkpt lat="45.4579" lon="4.76869">
        <ele>145.61</ele>
        <time>2019-05-25T13:11:15.000Z</time>
      </trkpt>
      <trkpt lat="45.45786" lon="4.76843">
        <ele>146.59</ele>
        <time>2019-05-25T13:11:20.000Z</time>
      </trkpt>
      <trkpt lat="45.45785" lon="4.7683">
        <ele>148.35</ele>
        <time>2019-05-25T13:11:25.000Z</time>
      </trkpt>
      <trkpt lat="45.45783" lon="4.76807">
        <ele>147.61</ele>
        <time>2019-05-25T13:11:30.000Z</time>
      </trkpt>
      <trkpt lat="45.45788" lon="4.76776">
        <ele>145.67</ele>
        <time>2019-05-25T13:11:35.000Z</time>
      </trkpt>
      <trkpt lat="45.45792" lon="4.76746">
        <ele>144.67</ele>
        <time>2019-05-25T13:11:40.000Z</time>
      </trkpt>
      <trkpt lat="45.45798" lon="4.76715">
        <ele>143.66</ele>
        <time>2019-05-25T13:11:45.000Z</time>
      </trkpt>
      <trkpt lat="45.45803" lon="4.76684">
        <ele>143.79</ele>
        <time>2019-05-25T13:11:50.000Z</time>
      </trkpt>
      <trkpt lat="45.45808" lon="4.76651">
        <ele>143.6</ele>
        <time>2019-05-25T13:11:55.000Z</time>
      </trkpt>
      <trkpt lat="45.45812" lon="4.76617">
        <ele>142.66</ele>
        <time>2019-05-25T13:12:00.000Z</time>
      </trkpt>
      <trkpt lat="45.45819" lon="4.7658">
        <ele>143.6</ele>
        <time>2019-05-25T13:12:05.000Z</time>
      </trkpt>
      <trkpt lat="45.45825" lon="4.76546">
        <ele>143.6</ele>
        <time>2019-05-25T13:12:10.000Z</time>
      </trkpt>
      <trkpt lat="45.45829" lon="4.76512">
        <ele>143.85</ele>
        <time>2019-05-25T13:12:15.000Z</time>
      </trkpt>
      <trkpt lat="45.45827" lon="4.76482">
        <ele>143.61</ele>
        <time>2019-05-25T13:12:20.000Z</time>
      </trkpt>
      <trkpt lat="45.45824" lon="4.76449">
        <ele>143.61</ele>
        <time>2019-05-25T13:12:25.000Z</time>
      </trkpt>
      <trkpt lat="45.45821" lon="4.76414">
        <ele>143.41</ele>
        <time>2019-05-25T13:12:30.000Z</time>
      </trkpt>
      <trkpt lat="45.45818" lon="4.76377">
        <ele>142.6</ele>
        <time>2019-05-25T13:12:35.000Z</time>
      </trkpt>
      <trkpt lat="45.45815" lon="4.76339">
        <ele>142.6</ele>
        <time>2019-05-25T13:12:40.000Z</time>
      </trkpt>
      <trkpt lat="45.4581" lon="4.76301">
        <ele>143.34</ele>
        <time>2019-05-25T13:12:45.000Z</time>
      </trkpt>
      <trkpt lat="45.45805" lon="4.76265">
        <ele>144.34</ele>
        <time>2019-05-25T13:12:50.000Z</time>
      </trkpt>
      <trkpt lat="45.458" lon="4.76229">
        <ele>144.59</ele>
        <time>2019-05-25T13:12:55.000Z</time>
      </trkpt>
      <trkpt lat="45.45794" lon="4.76193">
        <ele>144.84</ele>
        <time>2019-05-25T13:13:00.000Z</time>
      </trkpt>
      <trkpt lat="45.45793" lon="4.76165">
        <ele>144.59</ele>
        <time>2019-05-25T13:13:05.000Z</time>
      </trkpt>
      <trkpt lat="45.45791" lon="4.76152">
        <ele>144.59</ele>
        <time>2019-05-25T13:13:10.000Z</time>
      </trkpt>
      <trkpt lat="45.45801" lon="4.76152">
        <ele>143.86</ele>
        <time>2019-05-25T13:13:15.000Z</time>
      </trkpt>
      <trkpt lat="45.45814" lon="4.76147">
        <ele>143.59</ele>
        <time>2019-05-25T13:13:20.000Z</time>
      </trkpt>
      <trkpt lat="45.45822" lon="4.76156">
        <ele>143.59</ele>
        <time>2019-05-25T13:13:25.000Z</time>
      </trkpt>
      <trkpt lat="45.4583" lon="4.76151">
        <ele>145.57</ele>
        <time>2019-05-25T13:13:33.000Z</time>
      </trkpt>
      <trkpt lat="45.45844" lon="4.76131">
        <ele>145.59</ele>
        <time>2019-05-25T13:13:38.000Z</time>
      </trkpt>
      <trkpt lat="45.45859" lon="4.7611">
        <ele>145.59</ele>
        <time>2019-05-25T13:13:43.000Z</time>
      </trkpt>
      <trkpt lat="45.4587" lon="4.76094">
        <ele>146.52</ele>
        <time>2019-05-25T13:13:48.000Z</time>
      </trkpt>
      <trkpt lat="45.45871" lon="4.76079">
        <ele>145.66</ele>
        <time>2019-05-25T13:13:55.000Z</time>
      </trkpt>
      <trkpt lat="45.45864" lon="4.76061">
        <ele>147.28</ele>
        <time>2019-05-25T13:14:00.000Z</time>
      </trkpt>
      <trkpt lat="45.45857" lon="4.76042">
        <ele>148.53</ele>
        <time>2019-05-25T13:14:05.000Z</time>
      </trkpt>
      <trkpt lat="45.45851" lon="4.76027">
        <ele>148.59</ele>
        <time>2019-05-25T13:14:10.000Z</time>
      </trkpt>
      <trkpt lat="45.45846" lon="4.76014">
        <ele>149.59</ele>
        <time>2019-05-25T13:14:17.000Z</time>
      </trkpt>
      <trkpt lat="45.45841" lon="4.76003">
        <ele>148.82</ele>
        <time>2019-05-25T13:14:25.000Z</time>
      </trkpt>
      <trkpt lat="45.45835" lon="4.75992">
        <ele>148.59</ele>
        <time>2019-05-25T13:14:33.000Z</time>
      </trkpt>
      <trkpt lat="45.4583" lon="4.75982">
        <ele>148.59</ele>
        <time>2019-05-25T13:14:40.000Z</time>
      </trkpt>
      <trkpt lat="45.4582" lon="4.75978">
        <ele>148.59</ele>
        <time>2019-05-25T13:14:49.000Z</time>
      </trkpt>
      <trkpt lat="45.45803" lon="4.75978">
        <ele>148.34</ele>
        <time>2019-05-25T13:14:54.000Z</time>
      </trkpt>
      <trkpt lat="45.45784" lon="4.75982">
        <ele>149.28</ele>
        <time>2019-05-25T13:14:59.000Z</time>
      </trkpt>
      <trkpt lat="45.45772" lon="4.75984">
        <ele>148.35</ele>
        <time>2019-05-25T13:15:04.000Z</time>
      </trkpt>
      <trkpt lat="45.45757" lon="4.75982">
        <ele>149.76</ele>
        <time>2019-05-25T13:15:09.000Z</time>
      </trkpt>
      <trkpt lat="45.45744" lon="4.75968">
        <ele>148.55</ele>
        <time>2019-05-25T13:15:14.000Z</time>
      </trkpt>
      <trkpt lat="45.45732" lon="4.75949">
        <ele>146.85</ele>
        <time>2019-05-25T13:15:19.000Z</time>
      </trkpt>
      <trkpt lat="45.4572" lon="4.75933">
        <ele>147.82</ele>
        <time>2019-05-25T13:15:24.000Z</time>
      </trkpt>
      <trkpt lat="45.45712" lon="4.75913">
        <ele>146.66</ele>
        <time>2019-05-25T13:15:29.000Z</time>
      </trkpt>
      <trkpt lat="45.45707" lon="4.7588">
        <ele>147.52</ele>
        <time>2019-05-25T13:15:34.000Z</time>
      </trkpt>
      <trkpt lat="45.457" lon="4.75852">
        <ele>147.52</ele>
        <time>2019-05-25T13:15:39.000Z</time>
      </trkpt>
      <trkpt lat="45.45695" lon="4.75822">
        <ele>146.6</ele>
        <time>2019-05-25T13:15:44.000Z</time>
      </trkpt>
      <trkpt lat="45.45688" lon="4.75792">
        <ele>147.58</ele>
        <time>2019-05-25T13:15:49.000Z</time>
      </trkpt>
      <trkpt lat="45.45681" lon="4.75759">
        <ele>146.83</ele>
        <time>2019-05-25T13:15:54.000Z</time>
      </trkpt>
      <trkpt lat="45.45669" lon="4.75728">
        <ele>146.81</ele>
        <time>2019-05-25T13:15:59.000Z</time>
      </trkpt>
      <trkpt lat="45.45658" lon="4.75697">
        <ele>146.64</ele>
        <time>2019-05-25T13:16:04.000Z</time>
      </trkpt>
      <trkpt lat="45.45648" lon="4.7567">
        <ele>147.39</ele>
        <time>2019-05-25T13:16:09.000Z</time>
      </trkpt>
      <trkpt lat="45.45639" lon="4.75649">
        <ele>147.76</ele>
        <time>2019-05-25T13:16:14.000Z</time>
      </trkpt>
      <trkpt lat="45.45632" lon="4.7563">
        <ele>146.83</ele>
        <time>2019-05-25T13:16:19.000Z</time>
      </trkpt>
      <trkpt lat="45.45622" lon="4.75604">
        <ele>146.58</ele>
        <time>2019-05-25T13:16:24.000Z</time>
      </trkpt>
      <trkpt lat="45.45611" lon="4.75574">
        <ele>146.62</ele>
        <time>2019-05-25T13:16:29.000Z</time>
      </trkpt>
      <trkpt lat="45.45599" lon="4.75545">
        <ele>146.62</ele>
        <time>2019-05-25T13:16:34.000Z</time>
      </trkpt>
      <trkpt lat="45.45589" lon="4.75524">
        <ele>146.57</ele>
        <time>2019-05-25T13:16:39.000Z</time>
      </trkpt>
      <trkpt lat="45.45582" lon="4.75514">
        <ele>146.57</ele>
        <time>2019-05-25T13:16:44.000Z</time>
      </trkpt>
      <trkpt lat="45.45572" lon="4.75504">
        <ele>145.62</ele>
        <time>2019-05-25T13:16:49.000Z</time>
      </trkpt>
      <trkpt lat="45.45559" lon="4.75485">
        <ele>146.57</ele>
        <time>2019-05-25T13:16:54.000Z</time>
      </trkpt>
      <trkpt lat="45.45541" lon="4.75465">
        <ele>147.57</ele>
        <time>2019-05-25T13:16:59.000Z</time>
      </trkpt>
      <trkpt lat="45.45519" lon="4.75449">
        <ele>148.57</ele>
        <time>2019-05-25T13:17:04.000Z</time>
      </trkpt>
      <trkpt lat="45.45495" lon="4.75433">
        <ele>147.58</ele>
        <time>2019-05-25T13:17:09.000Z</time>
      </trkpt>
      <trkpt lat="45.45469" lon="4.75425">
        <ele>148.57</ele>
        <time>2019-05-25T13:17:14.000Z</time>
      </trkpt>
      <trkpt lat="45.45441" lon="4.75421">
        <ele>147.63</ele>
        <time>2019-05-25T13:17:19.000Z</time>
      </trkpt>
      <trkpt lat="45.45414" lon="4.75418">
        <ele>148.57</ele>
        <time>2019-05-25T13:17:24.000Z</time>
      </trkpt>
      <trkpt lat="45.45391" lon="4.75417">
        <ele>147.76</ele>
        <time>2019-05-25T13:17:29.000Z</time>
      </trkpt>
      <trkpt lat="45.45367" lon="4.75413">
        <ele>147.51</ele>
        <time>2019-05-25T13:17:34.000Z</time>
      </trkpt>
      <trkpt lat="45.4534" lon="4.75412">
        <ele>147.51</ele>
        <time>2019-05-25T13:17:39.000Z</time>
      </trkpt>
      <trkpt lat="45.4531" lon="4.75409">
        <ele>147.32</ele>
        <time>2019-05-25T13:17:44.000Z</time>
      </trkpt>
      <trkpt lat="45.45283" lon="4.75406">
        <ele>147.55</ele>
        <time>2019-05-25T13:17:49.000Z</time>
      </trkpt>
      <trkpt lat="45.45253" lon="4.75402">
        <ele>147.38</ele>
        <time>2019-05-25T13:17:54.000Z</time>
      </trkpt>
      <trkpt lat="45.45224" lon="4.75399">
        <ele>147.56</ele>
        <time>2019-05-25T13:17:59.000Z</time>
      </trkpt>
      <trkpt lat="45.45194" lon="4.75397">
        <ele>147.62</ele>
        <time>2019-05-25T13:18:04.000Z</time>
      </trkpt>
      <trkpt lat="45.45164" lon="4.75394">
        <ele>147.55</ele>
        <time>2019-05-25T13:18:09.000Z</time>
      </trkpt>
      <trkpt lat="45.45135" lon="4.75392">
        <ele>148.5</ele>
        <time>2019-05-25T13:18:14.000Z</time>
      </trkpt>
      <trkpt lat="45.45105" lon="4.75389">
        <ele>147.75</ele>
        <time>2019-05-25T13:18:19.000Z</time>
      </trkpt>
      <trkpt lat="45.45074" lon="4.75383">
        <ele>147.56</ele>
        <time>2019-05-25T13:18:24.000Z</time>
      </trkpt>
      <trkpt lat="45.45044" lon="4.75377">
        <ele>147.56</ele>
        <time>2019-05-25T13:18:29.000Z</time>
      </trkpt>
      <trkpt lat="45.45013" lon="4.75376">
        <ele>148.56</ele>
        <time>2019-05-25T13:18:34.000Z</time>
      </trkpt>
      <trkpt lat="45.44982" lon="4.75372">
        <ele>148.32</ele>
        <time>2019-05-25T13:18:39.000Z</time>
      </trkpt>
      <trkpt lat="45.44951" lon="4.75371">
        <ele>149.31</ele>
        <time>2019-05-25T13:18:44.000Z</time>
      </trkpt>
      <trkpt lat="45.4492" lon="4.75369">
        <ele>148.56</ele>
        <time>2019-05-25T13:18:49.000Z</time>
      </trkpt>
      <trkpt lat="45.4489" lon="4.75367">
        <ele>147.57</ele>
        <time>2019-05-25T13:18:54.000Z</time>
      </trkpt>
      <trkpt lat="45.4486" lon="4.75367">
        <ele>148.79</ele>
        <time>2019-05-25T13:18:59.000Z</time>
      </trkpt>
      <trkpt lat="45.44829" lon="4.75371">
        <ele>147.31</ele>
        <time>2019-05-25T13:19:04.000Z</time>
      </trkpt>
      <trkpt lat="45.44799" lon="4.75376">
        <ele>147.31</ele>
        <time>2019-05-25T13:19:09.000Z</time>
      </trkpt>
      <trkpt lat="45.44768" lon="4.75384">
        <ele>146.57</ele>
        <time>2019-05-25T13:19:14.000Z</time>
      </trkpt>
      <trkpt lat="45.44737" lon="4.75393">
        <ele>146.6</ele>
        <time>2019-05-25T13:19:19.000Z</time>
      </trkpt>
      <trkpt lat="45.44707" lon="4.75404">
        <ele>146.56</ele>
        <time>2019-05-25T13:19:24.000Z</time>
      </trkpt>
      <trkpt lat="45.44678" lon="4.75415">
        <ele>146.56</ele>
        <time>2019-05-25T13:19:29.000Z</time>
      </trkpt>
      <trkpt lat="45.4465" lon="4.75426">
        <ele>148.49</ele>
        <time>2019-05-25T13:19:34.000Z</time>
      </trkpt>
      <trkpt lat="45.44622" lon="4.7544">
        <ele>149.31</ele>
        <time>2019-05-25T13:19:39.000Z</time>
      </trkpt>
      <trkpt lat="45.44593" lon="4.75448">
        <ele>148.81</ele>
        <time>2019-05-25T13:19:44.000Z</time>
      </trkpt>
      <trkpt lat="45.44564" lon="4.75461">
        <ele>148.56</ele>
        <time>2019-05-25T13:19:49.000Z</time>
      </trkpt>
      <trkpt lat="45.44535" lon="4.75473">
        <ele>147.56</ele>
        <time>2019-05-25T13:19:54.000Z</time>
      </trkpt>
      <trkpt lat="45.44505" lon="4.75487">
        <ele>146.56</ele>
        <time>2019-05-25T13:19:59.000Z</time>
      </trkpt>
      <trkpt lat="45.44476" lon="4.75494">
        <ele>147.54</ele>
        <time>2019-05-25T13:20:04.000Z</time>
      </trkpt>
      <trkpt lat="45.44447" lon="4.75494">
        <ele>148.55</ele>
        <time>2019-05-25T13:20:09.000Z</time>
      </trkpt>
      <trkpt lat="45.44418" lon="4.75492">
        <ele>148.57</ele>
        <time>2019-05-25T13:20:14.000Z</time>
      </trkpt>
      <trkpt lat="45.44389" lon="4.755">
        <ele>146.57</ele>
        <time>2019-05-25T13:20:19.000Z</time>
      </trkpt>
      <trkpt lat="45.44363" lon="4.7552">
        <ele>146.56</ele>
        <time>2019-05-25T13:20:24.000Z</time>
      </trkpt>
      <trkpt lat="45.44337" lon="4.7554">
        <ele>148.3</ele>
        <time>2019-05-25T13:20:29.000Z</time>
      </trkpt>
      <trkpt lat="45.44309" lon="4.75556">
        <ele>147.81</ele>
        <time>2019-05-25T13:20:34.000Z</time>
      </trkpt>
      <trkpt lat="45.4428" lon="4.75566">
        <ele>147.56</ele>
        <time>2019-05-25T13:20:39.000Z</time>
      </trkpt>
      <trkpt lat="45.44252" lon="4.75567">
        <ele>148.54</ele>
        <time>2019-05-25T13:20:44.000Z</time>
      </trkpt>
      <trkpt lat="45.44226" lon="4.75551">
        <ele>148.57</ele>
        <time>2019-05-25T13:20:49.000Z</time>
      </trkpt>
      <trkpt lat="45.44198" lon="4.75532">
        <ele>148.55</ele>
        <time>2019-05-25T13:20:54.000Z</time>
      </trkpt>
      <trkpt lat="45.44168" lon="4.75529">
        <ele>146.82</ele>
        <time>2019-05-25T13:20:59.000Z</time>
      </trkpt>
      <trkpt lat="45.44138" lon="4.75536">
        <ele>147.55</ele>
        <time>2019-05-25T13:21:04.000Z</time>
      </trkpt>
      <trkpt lat="45.44115" lon="4.75566">
        <ele>146.56</ele>
        <time>2019-05-25T13:21:09.000Z</time>
      </trkpt>
      <trkpt lat="45.441" lon="4.75606">
        <ele>145.8</ele>
        <time>2019-05-25T13:21:14.000Z</time>
      </trkpt>
      <trkpt lat="45.44081" lon="4.75642">
        <ele>149.27</ele>
        <time>2019-05-25T13:21:19.000Z</time>
      </trkpt>
      <trkpt lat="45.44055" lon="4.75661">
        <ele>149.57</ele>
        <time>2019-05-25T13:21:24.000Z</time>
      </trkpt>
      <trkpt lat="45.44025" lon="4.75673">
        <ele>148.52</ele>
        <time>2019-05-25T13:21:29.000Z</time>
      </trkpt>
      <trkpt lat="45.43995" lon="4.75676">
        <ele>147.57</ele>
        <time>2019-05-25T13:21:34.000Z</time>
      </trkpt>
      <trkpt lat="45.43965" lon="4.75671">
        <ele>147.6</ele>
        <time>2019-05-25T13:21:39.000Z</time>
      </trkpt>
      <trkpt lat="45.43935" lon="4.75663">
        <ele>146.57</ele>
        <time>2019-05-25T13:21:44.000Z</time>
      </trkpt>
      <trkpt lat="45.43904" lon="4.75646">
        <ele>145.61</ele>
        <time>2019-05-25T13:21:49.000Z</time>
      </trkpt>
      <trkpt lat="45.43872" lon="4.75641">
        <ele>146.54</ele>
        <time>2019-05-25T13:21:54.000Z</time>
      </trkpt>
      <trkpt lat="45.43842" lon="4.7564">
        <ele>144.12</ele>
        <time>2019-05-25T13:21:59.000Z</time>
      </trkpt>
      <trkpt lat="45.4381" lon="4.75645">
        <ele>143.54</ele>
        <time>2019-05-25T13:22:04.000Z</time>
      </trkpt>
      <trkpt lat="45.43782" lon="4.75656">
        <ele>142.57</ele>
        <time>2019-05-25T13:22:09.000Z</time>
      </trkpt>
      <trkpt lat="45.43752" lon="4.75673">
        <ele>145.23</ele>
        <time>2019-05-25T13:22:14.000Z</time>
      </trkpt>
      <trkpt lat="45.43731" lon="4.75702">
        <ele>143.79</ele>
        <time>2019-05-25T13:22:19.000Z</time>
      </trkpt>
      <trkpt lat="45.43707" lon="4.7573">
        <ele>144.49</ele>
        <time>2019-05-25T13:22:24.000Z</time>
      </trkpt>
      <trkpt lat="45.4368" lon="4.75747">
        <ele>146.24</ele>
        <time>2019-05-25T13:22:29.000Z</time>
      </trkpt>
      <trkpt lat="45.43652" lon="4.75756">
        <ele>146.49</ele>
        <time>2019-05-25T13:22:34.000Z</time>
      </trkpt>
      <trkpt lat="45.43623" lon="4.75756">
        <ele>148.29</ele>
        <time>2019-05-25T13:22:39.000Z</time>
      </trkpt>
      <trkpt lat="45.43593" lon="4.75754">
        <ele>147.6</ele>
        <time>2019-05-25T13:22:44.000Z</time>
      </trkpt>
      <trkpt lat="45.43564" lon="4.75747">
        <ele>147.55</ele>
        <time>2019-05-25T13:22:49.000Z</time>
      </trkpt>
      <trkpt lat="45.43534" lon="4.75739">
        <ele>147.55</ele>
        <time>2019-05-25T13:22:54.000Z</time>
      </trkpt>
      <trkpt lat="45.43505" lon="4.75729">
        <ele>148.53</ele>
        <time>2019-05-25T13:22:59.000Z</time>
      </trkpt>
      <trkpt lat="45.43475" lon="4.75716">
        <ele>148.56</ele>
        <time>2019-05-25T13:23:04.000Z</time>
      </trkpt>
      <trkpt lat="45.43448" lon="4.75698">
        <ele>149.3</ele>
        <time>2019-05-25T13:23:09.000Z</time>
      </trkpt>
      <trkpt lat="45.43424" lon="4.75671">
        <ele>148.56</ele>
        <time>2019-05-25T13:23:14.000Z</time>
      </trkpt>
      <trkpt lat="45.43404" lon="4.75639">
        <ele>146.54</ele>
        <time>2019-05-25T13:23:19.000Z</time>
      </trkpt>
      <trkpt lat="45.4338" lon="4.75614">
        <ele>146.54</ele>
        <time>2019-05-25T13:23:24.000Z</time>
      </trkpt>
      <trkpt lat="45.43351" lon="4.75596">
        <ele>145.75</ele>
        <time>2019-05-25T13:23:29.000Z</time>
      </trkpt>
      <trkpt lat="45.43321" lon="4.7558">
        <ele>146.54</ele>
        <time>2019-05-25T13:23:34.000Z</time>
      </trkpt>
      <trkpt lat="45.43294" lon="4.75564">
        <ele>147.54</ele>
        <time>2019-05-25T13:23:39.000Z</time>
      </trkpt>
      <trkpt lat="45.43264" lon="4.75545">
        <ele>147.34</ele>
        <time>2019-05-25T13:23:44.000Z</time>
      </trkpt>
      <trkpt lat="45.43237" lon="4.75524">
        <ele>145.55</ele>
        <time>2019-05-25T13:23:49.000Z</time>
      </trkpt>
      <trkpt lat="45.43212" lon="4.75501">
        <ele>145.54</ele>
        <time>2019-05-25T13:23:54.000Z</time>
      </trkpt>
      <trkpt lat="45.43189" lon="4.75477">
        <ele>144.54</ele>
        <time>2019-05-25T13:23:59.000Z</time>
      </trkpt>
      <trkpt lat="45.43164" lon="4.75448">
        <ele>144.49</ele>
        <time>2019-05-25T13:24:04.000Z</time>
      </trkpt>
      <trkpt lat="45.43142" lon="4.7542">
        <ele>146.47</ele>
        <time>2019-05-25T13:24:09.000Z</time>
      </trkpt>
      <trkpt lat="45.4312" lon="4.75394">
        <ele>147.52</ele>
        <time>2019-05-25T13:24:14.000Z</time>
      </trkpt>
      <trkpt lat="45.43102" lon="4.75361">
        <ele>146.78</ele>
        <time>2019-05-25T13:24:19.000Z</time>
      </trkpt>
      <trkpt lat="45.43084" lon="4.75329">
        <ele>147.52</ele>
        <time>2019-05-25T13:24:24.000Z</time>
      </trkpt>
      <trkpt lat="45.43066" lon="4.75295">
        <ele>148.53</ele>
        <time>2019-05-25T13:24:29.000Z</time>
      </trkpt>
      <trkpt lat="45.43047" lon="4.75262">
        <ele>147.59</ele>
        <time>2019-05-25T13:24:34.000Z</time>
      </trkpt>
      <trkpt lat="45.43027" lon="4.75229">
        <ele>146.41</ele>
        <time>2019-05-25T13:24:39.000Z</time>
      </trkpt>
      <trkpt lat="45.43006" lon="4.75198">
        <ele>146.53</ele>
        <time>2019-05-25T13:24:44.000Z</time>
      </trkpt>
      <trkpt lat="45.42986" lon="4.75167">
        <ele>146.54</ele>
        <time>2019-05-25T13:24:49.000Z</time>
      </trkpt>
      <trkpt lat="45.42965" lon="4.75137">
        <ele>146.53</ele>
        <time>2019-05-25T13:24:54.000Z</time>
      </trkpt>
      <trkpt lat="45.42943" lon="4.75108">
        <ele>147.46</ele>
        <time>2019-05-25T13:24:59.000Z</time>
      </trkpt>
      <trkpt lat="45.4292" lon="4.75077">
        <ele>148.28</ele>
        <time>2019-05-25T13:25:04.000Z</time>
      </trkpt>
      <trkpt lat="45.42897" lon="4.75047">
        <ele>149.27</ele>
        <time>2019-05-25T13:25:09.000Z</time>
      </trkpt>
      <trkpt lat="45.42873" lon="4.7502">
        <ele>148.52</ele>
        <time>2019-05-25T13:25:14.000Z</time>
      </trkpt>
      <trkpt lat="45.4285" lon="4.7499">
        <ele>147.53</ele>
        <time>2019-05-25T13:25:19.000Z</time>
      </trkpt>
      <trkpt lat="45.42828" lon="4.74964">
        <ele>146.58</ele>
        <time>2019-05-25T13:25:24.000Z</time>
      </trkpt>
      <trkpt lat="45.42804" lon="4.74936">
        <ele>147.5</ele>
        <time>2019-05-25T13:25:29.000Z</time>
      </trkpt>
      <trkpt lat="45.4278" lon="4.74905">
        <ele>147.72</ele>
        <time>2019-05-25T13:25:34.000Z</time>
      </trkpt>
      <trkpt lat="45.42756" lon="4.74876">
        <ele>146.48</ele>
        <time>2019-05-25T13:25:39.000Z</time>
      </trkpt>
      <trkpt lat="45.42732" lon="4.74847">
        <ele>146.52</ele>
        <time>2019-05-25T13:25:44.000Z</time>
      </trkpt>
      <trkpt lat="45.42709" lon="4.74819">
        <ele>146.28</ele>
        <time>2019-05-25T13:25:49.000Z</time>
      </trkpt>
      <trkpt lat="45.42687" lon="4.74792">
        <ele>145.72</ele>
        <time>2019-05-25T13:25:54.000Z</time>
      </trkpt>
      <trkpt lat="45.42663" lon="4.74764">
        <ele>145.56</ele>
        <time>2019-05-25T13:25:59.000Z</time>
      </trkpt>
      <trkpt lat="45.42641" lon="4.74735">
        <ele>144.53</ele>
        <time>2019-05-25T13:26:04.000Z</time>
      </trkpt>
      <trkpt lat="45.42618" lon="4.74708">
        <ele>145.5</ele>
        <time>2019-05-25T13:26:09.000Z</time>
      </trkpt>
      <trkpt lat="45.42595" lon="4.74681">
        <ele>146.49</ele>
        <time>2019-05-25T13:26:14.000Z</time>
      </trkpt>
      <trkpt lat="45.42572" lon="4.74654">
        <ele>147.45</ele>
        <time>2019-05-25T13:26:19.000Z</time>
      </trkpt>
      <trkpt lat="45.4255" lon="4.74625">
        <ele>146.76</ele>
        <time>2019-05-25T13:26:24.000Z</time>
      </trkpt>
      <trkpt lat="45.42528" lon="4.74598">
        <ele>147.49</ele>
        <time>2019-05-25T13:26:29.000Z</time>
      </trkpt>
      <trkpt lat="45.42503" lon="4.74568">
        <ele>147.51</ele>
        <time>2019-05-25T13:26:34.000Z</time>
      </trkpt>
      <trkpt lat="45.4248" lon="4.74542">
        <ele>148.46</ele>
        <time>2019-05-25T13:26:39.000Z</time>
      </trkpt>
      <trkpt lat="45.42458" lon="4.74514">
        <ele>148.3</ele>
        <time>2019-05-25T13:26:44.000Z</time>
      </trkpt>
      <trkpt lat="45.42436" lon="4.74485">
        <ele>148.5</ele>
        <time>2019-05-25T13:26:49.000Z</time>
      </trkpt>
      <trkpt lat="45.42412" lon="4.74458">
        <ele>147.46</ele>
        <time>2019-05-25T13:26:54.000Z</time>
      </trkpt>
      <trkpt lat="45.4239" lon="4.74431">
        <ele>148.25</ele>
        <time>2019-05-25T13:26:59.000Z</time>
      </trkpt>
      <trkpt lat="45.42367" lon="4.74403">
        <ele>147.5</ele>
        <time>2019-05-25T13:27:04.000Z</time>
      </trkpt>
      <trkpt lat="45.42344" lon="4.74376">
        <ele>147.7</ele>
        <time>2019-05-25T13:27:09.000Z</time>
      </trkpt>
      <trkpt lat="45.42322" lon="4.74349">
        <ele>146.55</ele>
        <time>2019-05-25T13:27:14.000Z</time>
      </trkpt>
      <trkpt lat="45.423" lon="4.74321">
        <ele>147.43</ele>
        <time>2019-05-25T13:27:19.000Z</time>
      </trkpt>
      <trkpt lat="45.42276" lon="4.74292">
        <ele>147.5</ele>
        <time>2019-05-25T13:27:24.000Z</time>
      </trkpt>
      <trkpt lat="45.42252" lon="4.74266">
        <ele>148.24</ele>
        <time>2019-05-25T13:27:29.000Z</time>
      </trkpt>
      <trkpt lat="45.42226" lon="4.74241">
        <ele>147.49</ele>
        <time>2019-05-25T13:27:34.000Z</time>
      </trkpt>
      <trkpt lat="45.42199" lon="4.74218">
        <ele>147.49</ele>
        <time>2019-05-25T13:27:39.000Z</time>
      </trkpt>
      <trkpt lat="45.42172" lon="4.74198">
        <ele>147.49</ele>
        <time>2019-05-25T13:27:44.000Z</time>
      </trkpt>
      <trkpt lat="45.42144" lon="4.74177">
        <ele>145.55</ele>
        <time>2019-05-25T13:27:49.000Z</time>
      </trkpt>
      <trkpt lat="45.42116" lon="4.74159">
        <ele>145.49</ele>
        <time>2019-05-25T13:27:54.000Z</time>
      </trkpt>
      <trkpt lat="45.42089" lon="4.74143">
        <ele>146.43</ele>
        <time>2019-05-25T13:27:59.000Z</time>
      </trkpt>
      <trkpt lat="45.42061" lon="4.74127">
        <ele>147.24</ele>
        <time>2019-05-25T13:28:04.000Z</time>
      </trkpt>
      <trkpt lat="45.42032" lon="4.74113">
        <ele>145.75</ele>
        <time>2019-05-25T13:28:09.000Z</time>
      </trkpt>
      <trkpt lat="45.42003" lon="4.74101">
        <ele>147.42</ele>
        <time>2019-05-25T13:28:14.000Z</time>
      </trkpt>
      <trkpt lat="45.41974" lon="4.74086">
        <ele>147.49</ele>
        <time>2019-05-25T13:28:19.000Z</time>
      </trkpt>
      <trkpt lat="45.41944" lon="4.74075">
        <ele>148.47</ele>
        <time>2019-05-25T13:28:24.000Z</time>
      </trkpt>
      <trkpt lat="45.41915" lon="4.74064">
        <ele>148.48</ele>
        <time>2019-05-25T13:28:29.000Z</time>
      </trkpt>
      <trkpt lat="45.41885" lon="4.74056">
        <ele>148.48</ele>
        <time>2019-05-25T13:28:34.000Z</time>
      </trkpt>
      <trkpt lat="45.41855" lon="4.74046">
        <ele>147.55</ele>
        <time>2019-05-25T13:28:39.000Z</time>
      </trkpt>
      <trkpt lat="45.41825" lon="4.74039">
        <ele>147.23</ele>
        <time>2019-05-25T13:28:44.000Z</time>
      </trkpt>
      <trkpt lat="45.41797" lon="4.74032">
        <ele>147.48</ele>
        <time>2019-05-25T13:28:49.000Z</time>
      </trkpt>
      <trkpt lat="45.41777" lon="4.74026">
        <ele>148.42</ele>
        <time>2019-05-25T13:28:54.000Z</time>
      </trkpt>
      <trkpt lat="45.41764" lon="4.74024">
        <ele>147.48</ele>
        <time>2019-05-25T13:28:59.000Z</time>
      </trkpt>
      <trkpt lat="45.41743" lon="4.74021">
        <ele>147.48</ele>
        <time>2019-05-25T13:29:04.000Z</time>
      </trkpt>
      <trkpt lat="45.41727" lon="4.74018">
        <ele>147.48</ele>
        <time>2019-05-25T13:29:09.000Z</time>
      </trkpt>
      <trkpt lat="45.41716" lon="4.74018">
        <ele>147.48</ele>
        <time>2019-05-25T13:29:14.000Z</time>
      </trkpt>
      <trkpt lat="45.41696" lon="4.74015">
        <ele>147.48</ele>
        <time>2019-05-25T13:29:19.000Z</time>
      </trkpt>
      <trkpt lat="45.4167" lon="4.74013">
        <ele>146.5</ele>
        <time>2019-05-25T13:29:24.000Z</time>
      </trkpt>
      <trkpt lat="45.41644" lon="4.74011">
        <ele>146.42</ele>
        <time>2019-05-25T13:29:29.000Z</time>
      </trkpt>
      <trkpt lat="45.41615" lon="4.74005">
        <ele>146.53</ele>
        <time>2019-05-25T13:29:34.000Z</time>
      </trkpt>
      <trkpt lat="45.41586" lon="4.74008">
        <ele>146.48</ele>
        <time>2019-05-25T13:29:39.000Z</time>
      </trkpt>
      <trkpt lat="45.41557" lon="4.74009">
        <ele>143.26</ele>
        <time>2019-05-25T13:29:44.000Z</time>
      </trkpt>
      <trkpt lat="45.41528" lon="4.74012">
        <ele>144.23</ele>
        <time>2019-05-25T13:29:49.000Z</time>
      </trkpt>
      <trkpt lat="45.41499" lon="4.74014">
        <ele>144.66</ele>
        <time>2019-05-25T13:29:54.000Z</time>
      </trkpt>
      <trkpt lat="45.41476" lon="4.73999">
        <ele>144.48</ele>
        <time>2019-05-25T13:29:59.000Z</time>
      </trkpt>
      <trkpt lat="45.4147" lon="4.73962">
        <ele>145.47</ele>
        <time>2019-05-25T13:30:04.000Z</time>
      </trkpt>
      <trkpt lat="45.41472" lon="4.73924">
        <ele>146.22</ele>
        <time>2019-05-25T13:30:09.000Z</time>
      </trkpt>
      <trkpt lat="45.41468" lon="4.73885">
        <ele>145.47</ele>
        <time>2019-05-25T13:30:14.000Z</time>
      </trkpt>
      <trkpt lat="45.41462" lon="4.73849">
        <ele>146.41</ele>
        <time>2019-05-25T13:30:19.000Z</time>
      </trkpt>
      <trkpt lat="45.41454" lon="4.73814">
        <ele>147.41</ele>
        <time>2019-05-25T13:30:24.000Z</time>
      </trkpt>
      <trkpt lat="45.41445" lon="4.73781">
        <ele>147.46</ele>
        <time>2019-05-25T13:30:29.000Z</time>
      </trkpt>
      <trkpt lat="45.41438" lon="4.73748">
        <ele>147.47</ele>
        <time>2019-05-25T13:30:34.000Z</time>
      </trkpt>
      <trkpt lat="45.41423" lon="4.73746">
        <ele>148.46</ele>
        <time>2019-05-25T13:30:39.000Z</time>
      </trkpt>
      <trkpt lat="45.41403" lon="4.73746">
        <ele>149.41</ele>
        <time>2019-05-25T13:30:44.000Z</time>
      </trkpt>
      <trkpt lat="45.41401" lon="4.73761">
        <ele>149.53</ele>
        <time>2019-05-25T13:30:59.000Z</time>
      </trkpt>
      <trkpt lat="45.41407" lon="4.73795">
        <ele>149.28</ele>
        <time>2019-05-25T13:31:04.000Z</time>
      </trkpt>
      <trkpt lat="45.41412" lon="4.73832">
        <ele>150.22</ele>
        <time>2019-05-25T13:31:09.000Z</time>
      </trkpt>
      <trkpt lat="45.41418" lon="4.73869">
        <ele>150.47</ele>
        <time>2019-05-25T13:31:14.000Z</time>
      </trkpt>
      <trkpt lat="45.41421" lon="4.73908">
        <ele>150.66</ele>
        <time>2019-05-25T13:31:19.000Z</time>
      </trkpt>
      <trkpt lat="45.4142" lon="4.73948">
        <ele>150.71</ele>
        <time>2019-05-25T13:31:24.000Z</time>
      </trkpt>
      <trkpt lat="45.41414" lon="4.7399">
        <ele>149.54</ele>
        <time>2019-05-25T13:31:29.000Z</time>
      </trkpt>
      <trkpt lat="45.41401" lon="4.74023">
        <ele>147.74</ele>
        <time>2019-05-25T13:31:34.000Z</time>
      </trkpt>
      <trkpt lat="45.41374" lon="4.74034">
        <ele>146.73</ele>
        <time>2019-05-25T13:31:39.000Z</time>
      </trkpt>
      <trkpt lat="45.41345" lon="4.74037">
        <ele>146.54</ele>
        <time>2019-05-25T13:31:44.000Z</time>
      </trkpt>
      <trkpt lat="45.41315" lon="4.74042">
        <ele>146.48</ele>
        <time>2019-05-25T13:31:49.000Z</time>
      </trkpt>
      <trkpt lat="45.41284" lon="4.74048">
        <ele>146.49</ele>
        <time>2019-05-25T13:31:54.000Z</time>
      </trkpt>
      <trkpt lat="45.41255" lon="4.7405">
        <ele>144.99</ele>
        <time>2019-05-25T13:31:59.000Z</time>
      </trkpt>
      <trkpt lat="45.41229" lon="4.74047">
        <ele>144.47</ele>
        <time>2019-05-25T13:32:04.000Z</time>
      </trkpt>
      <trkpt lat="45.41221" lon="4.74012">
        <ele>143.48</ele>
        <time>2019-05-25T13:32:09.000Z</time>
      </trkpt>
      <trkpt lat="45.41202" lon="4.73988">
        <ele>143.47</ele>
        <time>2019-05-25T13:32:14.000Z</time>
      </trkpt>
      <trkpt lat="45.41172" lon="4.73998">
        <ele>142.52</ele>
        <time>2019-05-25T13:32:19.000Z</time>
      </trkpt>
      <trkpt lat="45.41142" lon="4.74007">
        <ele>142.47</ele>
        <time>2019-05-25T13:32:24.000Z</time>
      </trkpt>
      <trkpt lat="45.4111" lon="4.74012">
        <ele>142.53</ele>
        <time>2019-05-25T13:32:29.000Z</time>
      </trkpt>
      <trkpt lat="45.41078" lon="4.74018">
        <ele>141.48</ele>
        <time>2019-05-25T13:32:34.000Z</time>
      </trkpt>
      <trkpt lat="45.41048" lon="4.74028">
        <ele>141.48</ele>
        <time>2019-05-25T13:32:39.000Z</time>
      </trkpt>
      <trkpt lat="45.41016" lon="4.74039">
        <ele>141.47</ele>
        <time>2019-05-25T13:32:44.000Z</time>
      </trkpt>
      <trkpt lat="45.40985" lon="4.74052">
        <ele>141.47</ele>
        <time>2019-05-25T13:32:49.000Z</time>
      </trkpt>
      <trkpt lat="45.40955" lon="4.74068">
        <ele>142.46</ele>
        <time>2019-05-25T13:32:54.000Z</time>
      </trkpt>
      <trkpt lat="45.40925" lon="4.74082">
        <ele>143.22</ele>
        <time>2019-05-25T13:32:59.000Z</time>
      </trkpt>
      <trkpt lat="45.40895" lon="4.741">
        <ele>143.22</ele>
        <time>2019-05-25T13:33:04.000Z</time>
      </trkpt>
      <trkpt lat="45.40867" lon="4.74116">
        <ele>142.49</ele>
        <time>2019-05-25T13:33:09.000Z</time>
      </trkpt>
      <trkpt lat="45.40838" lon="4.74133">
        <ele>141.53</ele>
        <time>2019-05-25T13:33:14.000Z</time>
      </trkpt>
      <trkpt lat="45.40812" lon="4.74149">
        <ele>140.55</ele>
        <time>2019-05-25T13:33:19.000Z</time>
      </trkpt>
      <trkpt lat="45.40783" lon="4.74169">
        <ele>139.24</ele>
        <time>2019-05-25T13:33:24.000Z</time>
      </trkpt>
      <trkpt lat="45.40759" lon="4.74185">
        <ele>140.47</ele>
        <time>2019-05-25T13:33:29.000Z</time>
      </trkpt>
      <trkpt lat="45.40735" lon="4.74204">
        <ele>140.47</ele>
        <time>2019-05-25T13:33:34.000Z</time>
      </trkpt>
      <trkpt lat="45.40707" lon="4.7422">
        <ele>140.47</ele>
        <time>2019-05-25T13:33:39.000Z</time>
      </trkpt>
      <trkpt lat="45.40679" lon="4.74239">
        <ele>142.58</ele>
        <time>2019-05-25T13:33:44.000Z</time>
      </trkpt>
      <trkpt lat="45.4065" lon="4.74259">
        <ele>141.47</ele>
        <time>2019-05-25T13:33:49.000Z</time>
      </trkpt>
      <trkpt lat="45.40622" lon="4.74275">
        <ele>140.53</ele>
        <time>2019-05-25T13:33:54.000Z</time>
      </trkpt>
      <trkpt lat="45.40595" lon="4.74295">
        <ele>140.47</ele>
        <time>2019-05-25T13:33:59.000Z</time>
      </trkpt>
      <trkpt lat="45.40567" lon="4.74314">
        <ele>141.22</ele>
        <time>2019-05-25T13:34:04.000Z</time>
      </trkpt>
      <trkpt lat="45.4054" lon="4.74333">
        <ele>141.47</ele>
        <time>2019-05-25T13:34:09.000Z</time>
      </trkpt>
      <trkpt lat="45.40514" lon="4.74353">
        <ele>140.54</ele>
        <time>2019-05-25T13:34:14.000Z</time>
      </trkpt>
      <trkpt lat="45.40489" lon="4.74374">
        <ele>138.49</ele>
        <time>2019-05-25T13:34:19.000Z</time>
      </trkpt>
      <trkpt lat="45.40464" lon="4.74395">
        <ele>137.72</ele>
        <time>2019-05-25T13:34:24.000Z</time>
      </trkpt>
      <trkpt lat="45.40438" lon="4.74419">
        <ele>139.47</ele>
        <time>2019-05-25T13:34:29.000Z</time>
      </trkpt>
      <trkpt lat="45.40412" lon="4.74445">
        <ele>140.46</ele>
        <time>2019-05-25T13:34:34.000Z</time>
      </trkpt>
      <trkpt lat="45.40386" lon="4.74471">
        <ele>140.49</ele>
        <time>2019-05-25T13:34:39.000Z</time>
      </trkpt>
      <trkpt lat="45.40364" lon="4.74493">
        <ele>141.47</ele>
        <time>2019-05-25T13:34:44.000Z</time>
      </trkpt>
      <trkpt lat="45.4034" lon="4.74519">
        <ele>141.46</ele>
        <time>2019-05-25T13:34:49.000Z</time>
      </trkpt>
      <trkpt lat="45.40316" lon="4.74545">
        <ele>144.47</ele>
        <time>2019-05-25T13:34:54.000Z</time>
      </trkpt>
      <trkpt lat="45.40293" lon="4.74569">
        <ele>143.48</ele>
        <time>2019-05-25T13:34:59.000Z</time>
      </trkpt>
      <trkpt lat="45.40271" lon="4.74591">
        <ele>143.24</ele>
        <time>2019-05-25T13:35:04.000Z</time>
      </trkpt>
      <trkpt lat="45.40249" lon="4.74613">
        <ele>142.48</ele>
        <time>2019-05-25T13:35:09.000Z</time>
      </trkpt>
      <trkpt lat="45.40227" lon="4.74633">
        <ele>141.73</ele>
        <time>2019-05-25T13:35:14.000Z</time>
      </trkpt>
      <trkpt lat="45.40204" lon="4.74654">
        <ele>141.72</ele>
        <time>2019-05-25T13:35:19.000Z</time>
      </trkpt>
      <trkpt lat="45.40181" lon="4.74675">
        <ele>140.49</ele>
        <time>2019-05-25T13:35:24.000Z</time>
      </trkpt>
      <trkpt lat="45.40158" lon="4.74697">
        <ele>139.73</ele>
        <time>2019-05-25T13:35:29.000Z</time>
      </trkpt>
      <trkpt lat="45.40133" lon="4.7472">
        <ele>139.48</ele>
        <time>2019-05-25T13:35:34.000Z</time>
      </trkpt>
      <trkpt lat="45.40107" lon="4.74744">
        <ele>139.48</ele>
        <time>2019-05-25T13:35:39.000Z</time>
      </trkpt>
      <trkpt lat="45.40096" lon="4.7478">
        <ele>139.47</ele>
        <time>2019-05-25T13:35:44.000Z</time>
      </trkpt>
      <trkpt lat="45.40107" lon="4.7481">
        <ele>140.42</ele>
        <time>2019-05-25T13:35:49.000Z</time>
      </trkpt>
      <trkpt lat="45.401" lon="4.74837">
        <ele>140.47</ele>
        <time>2019-05-25T13:35:54.000Z</time>
      </trkpt>
      <trkpt lat="45.40088" lon="4.74853">
        <ele>142.23</ele>
        <time>2019-05-25T13:35:59.000Z</time>
      </trkpt>
      <trkpt lat="45.40078" lon="4.74869">
        <ele>143.43</ele>
        <time>2019-05-25T13:36:04.000Z</time>
      </trkpt>
      <trkpt lat="45.40065" lon="4.74889">
        <ele>143.48</ele>
        <time>2019-05-25T13:36:09.000Z</time>
      </trkpt>
      <trkpt lat="45.40045" lon="4.74906">
        <ele>143.48</ele>
        <time>2019-05-25T13:36:14.000Z</time>
      </trkpt>
      <trkpt lat="45.40025" lon="4.74927">
        <ele>144.47</ele>
        <time>2019-05-25T13:36:19.000Z</time>
      </trkpt>
      <trkpt lat="45.40003" lon="4.74948">
        <ele>143.49</ele>
        <time>2019-05-25T13:36:24.000Z</time>
      </trkpt>
      <trkpt lat="45.3998" lon="4.74969">
        <ele>143.48</ele>
        <time>2019-05-25T13:36:29.000Z</time>
      </trkpt>
      <trkpt lat="45.39956" lon="4.74993">
        <ele>144.48</ele>
        <time>2019-05-25T13:36:34.000Z</time>
      </trkpt>
      <trkpt lat="45.39932" lon="4.75017">
        <ele>144.48</ele>
        <time>2019-05-25T13:36:39.000Z</time>
      </trkpt>
      <trkpt lat="45.39908" lon="4.7504">
        <ele>145.23</ele>
        <time>2019-05-25T13:36:44.000Z</time>
      </trkpt>
      <trkpt lat="45.39882" lon="4.7506">
        <ele>145.24</ele>
        <time>2019-05-25T13:36:49.000Z</time>
      </trkpt>
      <trkpt lat="45.39855" lon="4.75076">
        <ele>144.73</ele>
        <time>2019-05-25T13:36:54.000Z</time>
      </trkpt>
      <trkpt lat="45.39828" lon="4.75095">
        <ele>143.49</ele>
        <time>2019-05-25T13:36:59.000Z</time>
      </trkpt>
      <trkpt lat="45.39802" lon="4.75114">
        <ele>142.73</ele>
        <time>2019-05-25T13:37:04.000Z</time>
      </trkpt>
      <trkpt lat="45.39781" lon="4.75145">
        <ele>143.42</ele>
        <time>2019-05-25T13:37:09.000Z</time>
      </trkpt>
      <trkpt lat="45.39756" lon="4.75168">
        <ele>142.73</ele>
        <time>2019-05-25T13:37:14.000Z</time>
      </trkpt>
      <trkpt lat="45.3973" lon="4.7519">
        <ele>143.48</ele>
        <time>2019-05-25T13:37:19.000Z</time>
      </trkpt>
      <trkpt lat="45.39702" lon="4.75205">
        <ele>143.48</ele>
        <time>2019-05-25T13:37:24.000Z</time>
      </trkpt>
      <trkpt lat="45.39672" lon="4.75211">
        <ele>144.48</ele>
        <time>2019-05-25T13:37:29.000Z</time>
      </trkpt>
      <trkpt lat="45.39641" lon="4.75218">
        <ele>145.47</ele>
        <time>2019-05-25T13:37:34.000Z</time>
      </trkpt>
      <trkpt lat="45.39612" lon="4.75237">
        <ele>144.49</ele>
        <time>2019-05-25T13:37:39.000Z</time>
      </trkpt>
      <trkpt lat="45.39584" lon="4.75255">
        <ele>145.47</ele>
        <time>2019-05-25T13:37:44.000Z</time>
      </trkpt>
      <trkpt lat="45.39562" lon="4.75282">
        <ele>145.48</ele>
        <time>2019-05-25T13:37:49.000Z</time>
      </trkpt>
      <trkpt lat="45.3954" lon="4.75309">
        <ele>145.67</ele>
        <time>2019-05-25T13:37:54.000Z</time>
      </trkpt>
      <trkpt lat="45.39513" lon="4.75325">
        <ele>145.48</ele>
        <time>2019-05-25T13:37:59.000Z</time>
      </trkpt>
      <trkpt lat="45.39486" lon="4.75339">
        <ele>145.48</ele>
        <time>2019-05-25T13:38:04.000Z</time>
      </trkpt>
      <trkpt lat="45.39457" lon="4.75347">
        <ele>146.28</ele>
        <time>2019-05-25T13:38:09.000Z</time>
      </trkpt>
      <trkpt lat="45.39429" lon="4.75354">
        <ele>145.53</ele>
        <time>2019-05-25T13:38:14.000Z</time>
      </trkpt>
      <trkpt lat="45.39399" lon="4.75361">
        <ele>145.48</ele>
        <time>2019-05-25T13:38:19.000Z</time>
      </trkpt>
      <trkpt lat="45.39369" lon="4.75372">
        <ele>145.48</ele>
        <time>2019-05-25T13:38:24.000Z</time>
      </trkpt>
      <trkpt lat="45.39339" lon="4.75386">
        <ele>144.73</ele>
        <time>2019-05-25T13:38:29.000Z</time>
      </trkpt>
      <trkpt lat="45.3931" lon="4.75404">
        <ele>145.67</ele>
        <time>2019-05-25T13:38:34.000Z</time>
      </trkpt>
      <trkpt lat="45.39285" lon="4.75426">
        <ele>144.55</ele>
        <time>2019-05-25T13:38:39.000Z</time>
      </trkpt>
      <trkpt lat="45.39261" lon="4.75448">
        <ele>144.43</ele>
        <time>2019-05-25T13:38:44.000Z</time>
      </trkpt>
      <trkpt lat="45.39233" lon="4.75463">
        <ele>145.48</ele>
        <time>2019-05-25T13:38:49.000Z</time>
      </trkpt>
      <trkpt lat="45.39202" lon="4.75467">
        <ele>145.48</ele>
        <time>2019-05-25T13:38:54.000Z</time>
      </trkpt>
      <trkpt lat="45.39171" lon="4.7547">
        <ele>145.48</ele>
        <time>2019-05-25T13:38:59.000Z</time>
      </trkpt>
      <trkpt lat="45.3914" lon="4.75476">
        <ele>144.48</ele>
        <time>2019-05-25T13:39:04.000Z</time>
      </trkpt>
      <trkpt lat="45.3911" lon="4.75486">
        <ele>144.48</ele>
        <time>2019-05-25T13:39:09.000Z</time>
      </trkpt>
      <trkpt lat="45.39081" lon="4.75496">
        <ele>144.48</ele>
        <time>2019-05-25T13:39:14.000Z</time>
      </trkpt>
      <trkpt lat="45.39052" lon="4.75508">
        <ele>145.42</ele>
        <time>2019-05-25T13:39:19.000Z</time>
      </trkpt>
      <trkpt lat="45.39026" lon="4.75533">
        <ele>145.48</ele>
        <time>2019-05-25T13:39:24.000Z</time>
      </trkpt>
      <trkpt lat="45.38998" lon="4.75546">
        <ele>145.48</ele>
        <time>2019-05-25T13:39:29.000Z</time>
      </trkpt>
      <trkpt lat="45.38967" lon="4.75545">
        <ele>145.48</ele>
        <time>2019-05-25T13:39:34.000Z</time>
      </trkpt>
      <trkpt lat="45.38936" lon="4.75545">
        <ele>145.48</ele>
        <time>2019-05-25T13:39:39.000Z</time>
      </trkpt>
      <trkpt lat="45.38906" lon="4.75551">
        <ele>145.43</ele>
        <time>2019-05-25T13:39:44.000Z</time>
      </trkpt>
      <trkpt lat="45.38874" lon="4.75559">
        <ele>145.48</ele>
        <time>2019-05-25T13:39:49.000Z</time>
      </trkpt>
      <trkpt lat="45.38844" lon="4.75568">
        <ele>146.23</ele>
        <time>2019-05-25T13:39:54.000Z</time>
      </trkpt>
      <trkpt lat="45.38815" lon="4.75575">
        <ele>146.48</ele>
        <time>2019-05-25T13:39:59.000Z</time>
      </trkpt>
      <trkpt lat="45.38785" lon="4.75581">
        <ele>145.68</ele>
        <time>2019-05-25T13:40:04.000Z</time>
      </trkpt>
      <trkpt lat="45.38754" lon="4.75587">
        <ele>145.48</ele>
        <time>2019-05-25T13:40:09.000Z</time>
      </trkpt>
      <trkpt lat="45.38723" lon="4.75592">
        <ele>144.54</ele>
        <time>2019-05-25T13:40:14.000Z</time>
      </trkpt>
      <trkpt lat="45.38694" lon="4.75595">
        <ele>144.48</ele>
        <time>2019-05-25T13:40:19.000Z</time>
      </trkpt>
      <trkpt lat="45.38665" lon="4.75596">
        <ele>144.49</ele>
        <time>2019-05-25T13:40:24.000Z</time>
      </trkpt>
      <trkpt lat="45.38637" lon="4.75594">
        <ele>144.46</ele>
        <time>2019-05-25T13:40:29.000Z</time>
      </trkpt>
      <trkpt lat="45.38607" lon="4.75589">
        <ele>143.48</ele>
        <time>2019-05-25T13:40:34.000Z</time>
      </trkpt>
      <trkpt lat="45.38576" lon="4.75583">
        <ele>143.48</ele>
        <time>2019-05-25T13:40:39.000Z</time>
      </trkpt>
      <trkpt lat="45.38546" lon="4.75575">
        <ele>144.66</ele>
        <time>2019-05-25T13:40:44.000Z</time>
      </trkpt>
      <trkpt lat="45.38518" lon="4.75562">
        <ele>144.54</ele>
        <time>2019-05-25T13:40:49.000Z</time>
      </trkpt>
      <trkpt lat="45.3849" lon="4.7555">
        <ele>145.47</ele>
        <time>2019-05-25T13:40:54.000Z</time>
      </trkpt>
      <trkpt lat="45.38463" lon="4.75534">
        <ele>145.48</ele>
        <time>2019-05-25T13:40:59.000Z</time>
      </trkpt>
      <trkpt lat="45.38437" lon="4.75518">
        <ele>145.52</ele>
        <time>2019-05-25T13:41:04.000Z</time>
      </trkpt>
      <trkpt lat="45.38411" lon="4.75499">
        <ele>145.47</ele>
        <time>2019-05-25T13:41:09.000Z</time>
      </trkpt>
      <trkpt lat="45.38384" lon="4.75481">
        <ele>145.47</ele>
        <time>2019-05-25T13:41:14.000Z</time>
      </trkpt>
      <trkpt lat="45.38361" lon="4.75463">
        <ele>145.47</ele>
        <time>2019-05-25T13:41:19.000Z</time>
      </trkpt>
      <trkpt lat="45.38337" lon="4.75447">
        <ele>144.47</ele>
        <time>2019-05-25T13:41:24.000Z</time>
      </trkpt>
      <trkpt lat="45.38314" lon="4.7543">
        <ele>146.22</ele>
        <time>2019-05-25T13:41:29.000Z</time>
      </trkpt>
      <trkpt lat="45.38292" lon="4.75419">
        <ele>146.66</ele>
        <time>2019-05-25T13:41:34.000Z</time>
      </trkpt>
      <trkpt lat="45.38279" lon="4.75417">
        <ele>145.73</ele>
        <time>2019-05-25T13:41:39.000Z</time>
      </trkpt>
      <trkpt lat="45.38276" lon="4.75403">
        <ele>146.47</ele>
        <time>2019-05-25T13:41:55.000Z</time>
      </trkpt>
      <trkpt lat="45.38276" lon="4.75385">
        <ele>146.47</ele>
        <time>2019-05-25T13:42:00.000Z</time>
      </trkpt>
      <trkpt lat="45.38272" lon="4.75374">
        <ele>147.42</ele>
        <time>2019-05-25T13:42:11.000Z</time>
      </trkpt>
      <trkpt lat="45.38284" lon="4.75371">
        <ele>147.47</ele>
        <time>2019-05-25T13:42:16.000Z</time>
      </trkpt>
      <trkpt lat="45.38293" lon="4.7537">
        <ele>146.71</ele>
        <time>2019-05-25T13:42:22.000Z</time>
      </trkpt>
      <trkpt lat="45.38283" lon="4.75367">
        <ele>145.72</ele>
        <time>2019-05-25T13:42:27.000Z</time>
      </trkpt>
      <trkpt lat="45.38267" lon="4.75361">
        <ele>144.53</ele>
        <time>2019-05-25T13:42:32.000Z</time>
      </trkpt>
      <trkpt lat="45.38254" lon="4.75359">
        <ele>143.66</ele>
        <time>2019-05-25T13:42:37.000Z</time>
      </trkpt>
      <trkpt lat="45.38243" lon="4.7536">
        <ele>144.45</ele>
        <time>2019-05-25T13:42:42.000Z</time>
      </trkpt>
      <trkpt lat="45.38232" lon="4.7537">
        <ele>143.72</ele>
        <time>2019-05-25T13:42:47.000Z</time>
      </trkpt>
      <trkpt lat="45.38226" lon="4.75381">
        <ele>143.28</ele>
        <time>2019-05-25T13:42:52.000Z</time>
      </trkpt>
      <trkpt lat="45.38219" lon="4.75391">
        <ele>141.53</ele>
        <time>2019-05-25T13:42:57.000Z</time>
      </trkpt>
      <trkpt lat="45.38217" lon="4.75378">
        <ele>143.42</ele>
        <time>2019-05-25T13:43:12.000Z</time>
      </trkpt>
      <trkpt lat="45.3822" lon="4.75363">
        <ele>143.46</ele>
        <time>2019-05-25T13:43:18.000Z</time>
      </trkpt>
      <trkpt lat="45.38222" lon="4.7535">
        <ele>143.46</ele>
        <time>2019-05-25T13:43:33.000Z</time>
      </trkpt>
      <trkpt lat="45.38226" lon="4.75339">
        <ele>142.47</ele>
        <time>2019-05-25T13:43:42.000Z</time>
      </trkpt>
      <trkpt lat="45.38227" lon="4.75326">
        <ele>141.72</ele>
        <time>2019-05-25T13:44:02.000Z</time>
      </trkpt>
      <trkpt lat="45.38238" lon="4.75323">
        <ele>142.47</ele>
        <time>2019-05-25T13:44:09.000Z</time>
      </trkpt>
      <trkpt lat="45.38247" lon="4.75318">
        <ele>142.47</ele>
        <time>2019-05-25T13:44:14.000Z</time>
      </trkpt>
      <trkpt lat="45.38255" lon="4.75324">
        <ele>139.73</ele>
        <time>2019-05-25T13:44:20.000Z</time>
      </trkpt>
      <trkpt lat="45.38267" lon="4.75336">
        <ele>140.46</ele>
        <time>2019-05-25T13:44:25.000Z</time>
      </trkpt>
      <trkpt lat="45.38281" lon="4.75347">
        <ele>140.47</ele>
        <time>2019-05-25T13:44:30.000Z</time>
      </trkpt>
      <trkpt lat="45.38297" lon="4.75358">
        <ele>141.47</ele>
        <time>2019-05-25T13:44:35.000Z</time>
      </trkpt>
      <trkpt lat="45.38313" lon="4.75375">
        <ele>142.22</ele>
        <time>2019-05-25T13:44:40.000Z</time>
      </trkpt>
      <trkpt lat="45.38323" lon="4.75393">
        <ele>142.47</ele>
        <time>2019-05-25T13:44:45.000Z</time>
      </trkpt>
      <trkpt lat="45.38331" lon="4.75404">
        <ele>143.22</ele>
        <time>2019-05-25T13:44:50.000Z</time>
      </trkpt>
      <trkpt lat="45.38349" lon="4.75412">
        <ele>143.47</ele>
        <time>2019-05-25T13:44:55.000Z</time>
      </trkpt>
      <trkpt lat="45.38368" lon="4.75418">
        <ele>142.49</ele>
        <time>2019-05-25T13:45:00.000Z</time>
      </trkpt>
      <trkpt lat="45.38386" lon="4.75423">
        <ele>142.47</ele>
        <time>2019-05-25T13:45:05.000Z</time>
      </trkpt>
      <trkpt lat="45.38388" lon="4.75408">
        <ele>141.78</ele>
        <time>2019-05-25T13:45:13.000Z</time>
      </trkpt>
      <trkpt lat="45.3839" lon="4.75389">
        <ele>142.41</ele>
        <time>2019-05-25T13:45:18.000Z</time>
      </trkpt>
      <trkpt lat="45.38396" lon="4.75375">
        <ele>146.47</ele>
        <time>2019-05-25T13:45:45.000Z</time>
      </trkpt>
      <trkpt lat="45.38393" lon="4.75362">
        <ele>146.7</ele>
        <time>2019-05-25T13:45:50.000Z</time>
      </trkpt>
      <trkpt lat="45.38398" lon="4.7535">
        <ele>146.41</ele>
        <time>2019-05-25T13:45:57.000Z</time>
      </trkpt>
      <trkpt lat="45.38404" lon="4.7536">
        <ele>144.79</ele>
        <time>2019-05-25T13:46:06.000Z</time>
      </trkpt>
      <trkpt lat="45.38393" lon="4.75376">
        <ele>142.43</ele>
        <time>2019-05-25T13:46:11.000Z</time>
      </trkpt>
      <trkpt lat="45.38387" lon="4.75405">
        <ele>142.27</ele>
        <time>2019-05-25T13:46:16.000Z</time>
      </trkpt>
      <trkpt lat="45.38391" lon="4.7543">
        <ele>143.41</ele>
        <time>2019-05-25T13:46:21.000Z</time>
      </trkpt>
      <trkpt lat="45.3841" lon="4.75434">
        <ele>142.48</ele>
        <time>2019-05-25T13:46:26.000Z</time>
      </trkpt>
      <trkpt lat="45.38423" lon="4.75441">
        <ele>143.22</ele>
        <time>2019-05-25T13:46:31.000Z</time>
      </trkpt>
      <trkpt lat="45.3843" lon="4.75459">
        <ele>144.46</ele>
        <time>2019-05-25T13:46:36.000Z</time>
      </trkpt>
      <trkpt lat="45.38454" lon="4.75467">
        <ele>143.49</ele>
        <time>2019-05-25T13:46:41.000Z</time>
      </trkpt>
      <trkpt lat="45.38479" lon="4.75475">
        <ele>143.47</ele>
        <time>2019-05-25T13:46:46.000Z</time>
      </trkpt>
      <trkpt lat="45.38504" lon="4.75483">
        <ele>143.47</ele>
        <time>2019-05-25T13:46:51.000Z</time>
      </trkpt>
      <trkpt lat="45.38531" lon="4.7549">
        <ele>143.47</ele>
        <time>2019-05-25T13:46:56.000Z</time>
      </trkpt>
      <trkpt lat="45.38557" lon="4.75494">
        <ele>142.48</ele>
        <time>2019-05-25T13:47:01.000Z</time>
      </trkpt>
      <trkpt lat="45.38585" lon="4.75486">
        <ele>142.48</ele>
        <time>2019-05-25T13:47:06.000Z</time>
      </trkpt>
      <trkpt lat="45.3861" lon="4.75468">
        <ele>141.74</ele>
        <time>2019-05-25T13:47:11.000Z</time>
      </trkpt>
      <trkpt lat="45.38631" lon="4.75443">
        <ele>142.47</ele>
        <time>2019-05-25T13:47:16.000Z</time>
      </trkpt>
    </trkseg>
  </trk>
</gpx>